GFSSW_sfc_rhum_000.txt.gz
RH
76 77 78 79 86 84 77 77 78 79 78 80 81 81 82 85 90 88 57 38 50 65 52 23 25 26 30 28 22 17 20 21 17 17 13 11 13 13 20 29 37 39 46 35 39
76 77 78 80 78 79 75 77 79 84 79 82 82 82 83 85 85 63 50 64 72 70 20 20 20 23 28 26 21 18 18 16 12 14 11 11 9 10 20 44 54 53 43 40 35
78 79 79 79 78 78 77 78 79 79 79 80 81 82 84 84 74 38 60 57 72 63 22 19 21 20 24 24 19 18 14 9 10 10 8 10 9 12 19 42 49 51 46 40 37
80 79 80 79 79 79 77 79 80 79 79 80 81 82 85 91 43 20 55 69 77 43 29 24 24 27 26 22 16 13 12 8 9 9 9 9 9 11 19 18 41 40 38 38 40
82 81 82 81 81 82 79 80 80 80 80 81 81 83 90 72 40 19 65 75 56 33 29 24 23 19 17 15 10 11 10 8 10 12 11 8 8 9 16 19 40 39 40 42 40
83 83 84 84 88 86 80 81 82 81 82 81 82 84 85 48 20 15 25 38 25 25 23 25 20 15 15 14 11 12 9 9 9 14 14 11 15 14 13 19 44 42 45 44 42
85 86 85 86 94 89 81 82 82 83 82 83 82 80 76 45 24 20 14 17 20 22 21 15 19 17 19 14 12 12 11 12 13 16 16 14 20 17 14 16 43 45 45 44 42
86 87 92 95 85 82 82 83 84 83 82 82 82 88 50 23 22 10 13 11 12 12 14 16 16 19 14 14 13 14 18 18 17 17 18 14 19 16 14 12 20 36 42 42 44
92 93 94 95 90 85 84 86 85 84 86 84 94 90 30 27 14 11 14 13 14 13 15 9 15 17 16 18 20 22 21 26 21 18 19 20 25 18 16 13 14 20 35 42 49
93 91 92 95 94 90 88 86 87 87 87 75 61 59 36 27 15 13 13 14 20 18 17 15 25 24 26 23 23 23 24 30 22 20 22 22 27 25 24 35 48 54 53 54 53
91 90 91 94 95 95 93 95 62 54 70 27 30 35 22 16 13 14 14 14 20 19 26 24 26 28 26 24 20 20 24 26 25 18 18 28 35 35 46 49 49 51 56 55 53
90 89 90 93 95 95 94 74 52 43 40 36 37 29 17 14 19 16 17 23 26 26 26 27 32 23 21 25 27 27 27 30 24 19 19 31 35 40 43 46 45 49 54 55 54
90 88 88 92 95 94 77 58 49 57 43 24 21 19 20 19 22 21 21 26 25 27 30 32 24 22 26 30 30 38 33 34 30 27 24 29 35 40 36 37 37 43 50 53 53
90 88 91 96 80 80 64 43 51 49 39 23 22 19 17 21 25 17 18 23 25 29 27 26 26 27 32 31 35 44 35 31 30 32 27 29 50 40 45 44 44 50 56 55 56
90 90 94 91 73 72 48 62 65 54 60 22 24 18 18 24 23 22 21 26 32 22 30 35 35 35 34 34 32 38 36 36 37 39 41 37 48 44 42 47 49 53 55 61 59
90 91 95 86 89 66 73 76 47 78 58 29 23 24 24 25 26 21 24 26 29 28 28 30 31 31 34 32 32 31 40 42 44 50 66 46 53 54 53 46 46 49 52 54 58
92 93 90 67 71 72 82 53 73 74 36 26 27 28 26 31 30 28 33 36 42 43 43 35 35 30 30 36 33 34 51 73 65 76 72 48 61 64 45 41 47 53 53 53 56
92 95 86 66 86 79 66 61 75 44 32 25 26 31 31 30 35 35 38 41 34 42 46 46 57 34 28 36 40 41 46 69 70 82 57 43 61 52 43 43 44 44 49 49 50
91 91 92 79 80 72 70 91 73 47 24 26 28 36 38 32 32 35 41 40 38 41 45 52 47 35 31 31 38 43 45 38 61 76 70 60 49 41 36 37 34 35 41 52 54
82 80 68 76 77 70 84 83 57 35 32 26 35 35 39 34 36 42 46 42 45 36 40 44 47 35 28 35 35 28 33 55 70 66 70 58 61 59 49 45 39 50 55 57 58
85 56 55 80 59 66 86 78 44 32 35 32 39 33 35 37 39 48 51 46 47 42 37 52 48 43 42 42 45 43 47 50 54 72 77 84 60 47 51 47 53 56 56 59 61
84 71 76 49 41 85 74 55 43 34 34 36 42 45 37 45 56 62 60 54 54 55 45 51 58 74 47 36 35 39 47 52 75 69 89 89 61 43 48 46 50 52 53 53 59
77 86 78 51 59 88 65 42 36 37 37 40 44 45 47 50 64 63 60 60 50 52 60 50 61 76 60 50 42 40 41 57 64 74 64 82 64 45 52 50 53 58 59 64 64
82 82 74 83 76 65 63 51 49 43 41 39 39 41 46 52 59 65 66 58 50 48 71 64 66 60 74 58 49 45 40 54 58 82 74 73 49 60 64 65 65 67 69 69 64
84 70 56 83 73 72 61 49 50 49 42 38 40 45 48 63 67 71 64 61 51 56 59 62 70 68 53 53 49 46 47 48 46 55 66 56 59 68 67 69 69 68 65 60 61
76 74 75 56 52 62 69 54 48 47 44 47 47 53 52 62 57 67 58 62 60 58 74 80 81 84 72 67 69 59 51 52 49 43 46 67 76 65 64 71 73 68 65 62 59
71 77 66 88 63 68 73 51 51 48 49 46 57 68 70 69 67 64 65 65 60 62 86 91 93 83 79 92 83 70 57 54 49 61 49 63 73 69 77 77 76 71 64 63 61

GFSSW_sfc_rhum_003.txt.gz
RH
76 76 77 78 78 78 79 76 76 79 81 77 78 79 81 83 87 90 78 39 53 64 52 27 27 27 29 32 26 21 25 25 17 14 9 9 19 23 34 48 45 48 48 59 69
77 77 76 80 78 79 81 76 77 80 80 78 78 80 82 83 92 80 58 67 72 72 21 21 22 27 32 30 26 24 27 20 13 11 9 11 30 29 44 54 58 49 44 57 64
78 79 81 78 79 81 81 80 83 82 80 77 79 80 82 81 84 40 61 62 75 63 20 19 20 22 30 26 24 21 15 11 11 10 8 10 16 22 51 64 56 49 49 57 67
81 80 80 79 79 79 84 81 86 83 82 77 79 81 82 93 38 26 60 75 78 30 24 21 25 28 28 26 21 16 11 10 10 9 8 10 11 24 30 47 49 39 42 47 51
81 81 83 82 80 84 82 84 85 79 80 79 80 81 93 77 41 22 78 77 41 29 24 22 25 23 18 17 19 11 11 12 13 10 10 9 10 13 19 37 45 38 37 41 42
82 82 83 82 82 86 87 84 81 80 79 80 80 81 86 40 20 19 39 35 30 30 28 23 20 21 21 15 10 11 13 11 15 14 12 10 16 17 20 56 49 41 38 38 37
84 84 86 83 83 89 86 85 80 81 81 82 81 80 75 32 26 28 24 27 25 23 22 23 22 21 16 18 13 12 12 14 14 18 16 17 21 18 21 53 50 45 43 47 43
85 85 84 85 87 83 82 82 81 81 82 82 81 88 44 25 29 20 14 12 15 21 19 13 16 17 17 15 16 17 19 19 16 19 21 15 17 20 22 56 58 58 59 55 53
86 86 94 93 90 83 83 83 83 83 83 83 95 92 31 25 15 12 14 14 15 15 16 10 16 19 18 18 20 23 23 25 22 18 22 20 26 22 20 43 39 55 61 56 61
90 95 95 95 94 85 85 85 84 86 86 78 70 57 32 21 16 14 14 14 19 21 18 19 26 23 26 18 18 21 24 44 22 21 24 26 38 45 51 53 66 73 63 63 66
95 94 94 96 95 91 89 93 65 62 82 25 29 37 31 26 14 14 15 16 20 22 27 28 26 28 26 27 22 23 26 24 28 22 39 49 56 63 61 64 68 64 62 61 62
94 90 94 96 95 96 98 78 50 48 53 38 42 36 29 19 21 18 20 22 23 28 29 27 32 27 27 32 30 27 30 34 28 33 42 50 52 52 51 60 67 62 61 59 58
92 90 94 96 96 98 78 51 56 52 50 24 30 25 20 18 22 23 23 27 27 29 30 30 29 24 28 33 34 41 39 34 31 38 40 42 49 45 42 48 53 60 64 60 61
91 90 95 96 90 77 65 51 59 42 40 26 23 17 20 23 25 20 21 23 29 31 28 30 33 30 33 32 37 43 38 33 33 43 52 42 70 53 54 59 60 64 63 66 60
90 92 96 89 77 81 53 72 65 48 57 24 24 17 19 25 24 20 23 27 28 29 32 39 39 36 34 36 36 41 38 36 35 40 42 47 59 59 51 63 63 64 61 59 64
91 94 98 93 96 66 77 65 44 74 52 33 25 26 23 26 28 24 28 29 31 32 32 36 34 33 37 35 35 32 42 47 54 54 68 50 58 61 60 56 57 56 58 58 64
91 96 87 72 75 81 76 50 66 81 36 30 31 29 31 33 31 33 36 38 42 44 49 36 36 33 35 40 38 39 51 71 64 75 75 52 61 64 46 47 52 55 58 62 63
95 97 92 74 88 80 59 52 76 47 38 28 31 34 34 34 39 39 40 41 38 45 50 48 55 35 29 38 42 44 48 72 66 82 58 49 68 56 48 48 48 52 54 60 62
97 96 94 88 86 70 66 87 73 53 30 29 34 40 42 35 36 40 47 43 43 43 48 51 47 35 33 33 40 46 49 45 70 76 72 68 55 44 48 54 50 51 54 63 65
89 80 68 81 67 67 82 82 66 45 35 31 40 39 41 38 41 48 51 48 50 43 42 43 43 38 30 37 37 34 38 55 71 64 71 66 68 66 52 53 45 54 67 67 63
74 48 48 77 49 56 80 79 61 32 40 34 36 39 39 39 45 55 57 52 54 48 42 53 44 43 42 44 47 44 47 55 62 75 76 85 71 50 50 46 56 68 65 66 68
76 52 72 48 46 88 68 62 54 36 34 43 46 44 43 52 62 64 61 60 59 57 46 55 58 74 48 39 41 43 50 50 68 68 89 87 60 47 52 55 60 63 65 68 66
77 94 84 46 63 89 60 58 45 40 41 44 47 50 53 61 66 67 65 61 50 53 56 50 63 75 62 49 42 45 48 58 63 76 78 79 60 54 55 61 61 68 69 70 68
77 90 77 82 68 46 56 54 53 45 46 42 44 47 51 63 66 70 70 62 53 50 72 62 66 58 69 59 52 45 46 57 55 77 70 73 52 67 72 70 74 75 74 72 68
84 68 66 89 84 83 61 58 52 50 45 41 44 48 53 69 74 77 70 62 52 63 69 59 62 70 63 62 53 49 44 55 58 59 66 58 60 61 72 76 77 75 72 67 64
85 73 76 59 55 69 78 60 48 50 46 50 48 62 56 62 56 69 60 61 59 67 81 73 83 80 80 72 71 58 47 50 51 51 59 71 85 73 73 78 76 72 69 66 57
84 86 65 89 73 72 78 57 52 50 58 54 57 64 69 71 68 73 72 69 66 68 85 85 92 70 59 88 76 54 56 52 51 64 61 83 71 76 83 77 77 76 70 63 55

GFSSW_sfc_rhum_006.txt.gz
RH
77 83 76 83 81 84 78 77 77 76 76 76 77 77 80 80 84 91 86 44 62 64 46 28 25 30 34 35 29 25 27 26 25 35 30 17 28 25 44 49 49 49 66 79 94
81 83 79 84 86 86 88 86 84 82 77 76 77 77 81 80 88 93 64 72 74 67 22 24 27 30 35 34 28 27 30 22 16 21 32 24 32 37 49 56 56 61 78 91 94
81 82 78 83 85 86 88 88 86 82 76 76 76 78 81 79 84 43 61 71 75 58 22 21 22 26 34 30 29 27 24 14 11 13 11 22 24 38 52 63 57 66 88 91 98
85 79 80 81 85 83 87 86 84 76 76 77 76 79 80 85 39 27 72 73 77 38 22 23 24 30 33 28 24 20 15 11 12 13 12 23 17 44 38 41 47 60 74 78 89
85 80 82 81 82 84 88 88 78 77 77 77 78 80 93 84 51 42 83 78 54 26 23 24 26 26 27 25 16 16 12 13 11 10 11 10 21 33 25 50 46 56 66 69 73
81 81 82 80 83 87 81 86 78 77 78 78 79 79 94 56 22 40 57 42 32 27 27 23 23 21 23 17 18 15 13 14 15 11 11 12 17 18 26 60 49 53 61 62 63
86 82 84 87 85 82 86 80 79 79 78 78 78 81 92 44 23 32 35 32 32 27 27 26 22 21 22 22 13 13 11 13 13 18 16 17 20 21 44 56 52 48 53 51 50
86 84 88 87 85 87 80 80 80 80 78 80 83 87 68 28 32 27 24 18 23 26 23 20 24 25 18 19 18 17 20 17 16 20 22 14 18 23 55 59 65 64 61 61 62
84 85 87 89 85 82 82 82 81 81 82 85 94 94 41 26 21 14 13 15 16 22 22 14 19 20 17 19 21 22 24 24 22 22 22 19 35 46 43 63 63 67 63 65 70
88 86 86 94 92 85 86 83 82 86 84 77 79 69 32 21 20 14 15 16 21 24 22 22 25 23 25 18 23 21 23 46 24 34 48 47 74 70 69 61 74 76 75 77 73
88 94 96 96 96 89 89 90 84 79 92 32 34 32 32 22 20 15 16 20 21 22 28 27 27 28 27 24 18 21 22 25 29 34 56 69 71 68 75 78 77 77 75 72 70
95 95 94 96 96 90 90 95 46 46 56 52 47 38 33 29 22 19 22 23 24 28 30 28 31 28 31 33 30 29 32 40 42 43 55 60 59 56 57 67 77 73 72 70 69
95 94 95 97 96 96 97 61 53 55 56 29 38 33 24 22 22 23 24 28 28 28 29 31 30 30 35 35 35 43 34 37 45 49 52 54 59 57 52 61 64 66 69 67 68
94 93 96 97 95 90 76 49 64 51 43 30 24 19 22 24 25 21 23 25 30 32 33 39 37 33 34 34 38 42 40 39 50 53 60 50 79 61 64 70 68 71 71 75 66
94 94 96 82 88 89 59 78 71 44 57 26 24 18 21 26 21 24 30 25 31 33 35 42 40 37 34 38 39 42 36 38 40 43 47 53 68 64 64 70 69 70 69 74 77
94 95 94 95 98 73 80 60 42 71 57 31 26 26 27 29 30 28 30 30 31 37 37 40 37 36 39 38 37 37 45 50 58 56 65 52 59 68 71 63 66 64 64 67 70
93 96 94 76 79 88 74 46 64 78 38 33 32 30 32 36 36 35 38 41 40 44 51 37 38 36 38 41 40 45 51 70 64 75 76 58 60 57 52 56 57 60 63 68 72
95 98 95 84 85 83 54 46 68 51 42 31 34 33 36 38 41 41 42 44 41 45 53 49 52 38 32 40 42 47 51 71 65 84 68 55 68 57 49 48 52 56 62 68 71
98 98 97 94 89 75 55 78 68 56 34 34 36 39 45 40 39 44 50 45 48 46 49 51 48 36 35 38 41 48 54 50 73 76 74 72 58 54 61 60 58 58 63 75 74
96 93 78 88 73 64 73 75 69 56 41 36 41 42 46 45 46 50 54 54 50 51 46 47 44 43 35 40 39 42 42 52 71 64 72 71 69 71 64 63 61 68 69 74 72
69 52 50 91 51 54 70 73 66 50 42 35 40 44 44 42 51 57 54 56 58 53 48 48 47 45 44 46 49 46 50 62 63 75 74 86 72 58 57 59 60 69 73 72 74
64 52 66 52 51 84 60 66 62 39 42 48 44 42 44 58 63 63 57 59 62 62 47 57 60 73 47 44 48 46 51 48 63 56 89 88 61 55 58 54 65 73 71 74 69
76 95 88 50 67 89 59 60 54 41 46 47 50 51 58 65 67 68 66 62 51 56 52 49 64 77 56 44 43 49 58 59 63 79 78 83 61 61 68 71 71 77 76 74 72
84 93 85 77 70 47 49 51 53 48 48 45 51 51 60 69 69 72 71 62 55 60 77 60 64 56 62 54 55 52 56 56 53 76 70 75 52 71 75 77 82 81 78 75 70
79 81 80 93 87 61 48 57 56 55 47 44 49 50 57 70 76 78 72 63 56 70 75 55 61 68 73 68 59 50 46 60 54 55 59 57 56 48 69 77 81 78 77 74 70
89 73 70 73 79 75 76 56 53 53 51 50 49 64 59 64 54 70 61 57 50 76 80 70 75 76 80 77 72 60 50 52 60 57 63 68 62 72 80 83 83 78 76 74 68
94 86 64 88 82 82 84 64 55 54 66 60 54 63 68 74 73 78 75 75 71 71 82 77 90 63 52 81 67 56 52 53 55 56 57 73 57 83 86 81 80 82 76 73 63

GFSSW_sfc_rhum_009.txt.gz
RH
77 76 79 79 82 83 86 85 82 85 81 77 79 77 77 78 80 85 80 39 53 73 51 23 20 23 24 24 19 18 19 27 26 33 55 30 42 28 40 43 41 41 65 68 80
80 76 78 80 86 88 88 83 84 82 78 77 76 77 77 78 82 84 58 72 74 73 20 18 20 25 24 24 21 19 22 20 17 33 34 26 28 38 42 42 45 74 84 78 82
77 77 82 82 85 88 86 85 86 82 77 76 76 77 78 76 82 36 61 72 75 55 18 18 22 24 25 21 21 21 19 15 11 16 22 25 25 38 41 42 42 68 88 84 87
79 78 85 81 79 85 85 87 86 84 76 78 78 76 77 81 28 19 80 76 73 26 20 21 20 22 24 22 18 16 16 10 13 14 17 25 25 42 35 31 38 62 81 84 84
86 80 82 80 80 85 79 79 82 77 78 78 76 76 84 78 50 41 82 76 52 24 20 22 23 23 25 23 17 16 12 11 10 10 21 14 29 36 18 44 48 65 74 78 83
87 80 85 82 82 84 78 82 81 78 78 78 75 77 88 49 21 49 61 51 34 22 22 20 19 20 20 17 17 16 10 11 11 10 10 15 13 15 28 43 58 68 69 70 68
85 82 86 80 85 80 82 79 84 83 79 76 74 76 91 44 22 43 37 35 29 23 25 22 19 19 21 18 12 11 11 12 13 12 13 13 14 21 41 44 54 64 59 56 50
84 83 82 87 85 80 82 85 86 81 80 81 80 81 68 34 33 29 29 24 28 24 21 22 21 20 18 15 16 13 16 14 12 14 16 11 14 33 42 45 49 49 50 49 49
82 82 83 86 86 81 84 85 83 76 78 84 88 92 50 30 22 16 16 16 25 27 25 19 22 24 15 17 18 20 15 17 16 27 17 19 27 47 47 51 54 51 52 50 52
83 84 87 88 89 89 88 84 79 82 81 76 78 75 36 19 23 14 14 15 18 25 24 23 21 20 19 15 19 19 18 17 18 26 35 40 53 54 56 51 56 54 57 55 57
86 84 90 91 93 90 90 84 77 76 92 44 40 35 25 22 18 14 16 21 20 23 26 24 22 22 20 18 15 17 17 19 25 39 48 58 55 56 57 54 58 58 56 58 62
87 92 96 93 94 89 86 89 46 44 57 60 51 43 35 28 22 16 19 22 26 26 22 24 28 22 26 27 23 24 28 36 41 42 45 48 56 54 53 59 58 57 58 57 60
95 95 95 94 93 92 89 85 55 50 57 34 44 34 25 26 22 18 21 26 23 26 26 30 24 28 28 30 33 32 31 37 39 44 42 43 49 57 54 56 57 57 56 56 54
94 95 97 95 91 92 86 62 67 60 44 32 23 20 22 22 28 19 21 23 27 28 33 32 30 29 29 31 30 35 31 41 47 40 40 37 35 54 57 59 57 56 56 56 49
94 95 96 84 86 80 60 74 62 51 63 28 21 17 21 22 21 22 26 23 29 30 29 34 33 30 33 32 34 36 40 37 34 34 36 41 37 46 54 61 56 54 54 51 46
95 96 95 89 91 82 74 62 52 68 63 29 24 24 27 28 28 26 27 28 29 34 33 33 28 29 29 35 34 40 39 41 44 40 47 40 37 42 55 52 53 51 53 51 47
95 96 89 84 79 86 78 51 66 71 38 32 30 27 30 36 34 33 36 39 34 43 44 33 32 28 32 33 33 36 40 50 50 58 50 47 46 37 39 44 45 49 48 51 51
95 96 90 87 83 86 58 48 55 46 44 29 32 31 33 35 38 36 36 38 37 38 43 35 40 28 29 31 34 38 39 57 62 64 46 47 52 35 40 37 40 41 45 52 53
97 94 96 89 84 84 55 79 53 52 34 33 32 35 42 36 37 40 41 40 38 37 41 45 38 28 32 30 31 36 40 41 60 61 56 46 43 37 46 43 47 50 51 53 54
95 96 84 87 89 67 68 60 53 52 41 35 36 40 43 41 41 40 43 45 41 43 38 42 40 35 31 32 35 33 37 43 51 60 54 44 52 42 53 47 48 53 52 56 56
85 76 64 82 63 58 71 57 61 54 42 35 40 43 41 42 46 45 45 47 48 41 38 36 44 42 36 37 37 38 42 53 48 56 47 52 37 44 46 44 48 47 53 57 58
75 60 71 62 56 73 62 59 63 50 42 45 39 42 44 51 53 53 51 49 56 52 42 44 55 58 36 35 38 35 39 42 52 49 66 66 40 43 48 43 49 51 57 57 56
67 89 85 60 67 87 56 54 55 46 44 45 50 51 56 60 60 60 58 56 49 46 49 46 56 62 43 33 35 37 44 46 54 66 68 84 38 45 55 52 48 52 59 60 54
83 92 85 71 62 50 48 51 49 50 48 46 50 53 59 62 63 68 63 55 57 58 79 58 53 52 51 40 43 45 50 44 42 59 56 60 38 36 49 56 61 61 60 56 52
78 81 82 92 72 53 44 46 50 54 46 44 49 50 56 67 67 70 60 53 57 70 65 50 56 54 59 58 49 38 46 47 40 44 52 43 44 34 40 50 59 62 60 57 54
75 76 71 76 70 54 60 58 52 49 52 49 51 58 55 61 52 67 59 52 49 65 63 61 67 64 68 64 59 51 42 44 51 50 44 48 47 38 54 57 66 64 61 59 56
92 76 63 86 86 67 75 57 52 54 66 56 53 59 63 63 63 67 66 68 63 63 70 66 81 60 57 65 54 60 51 45 48 45 45 56 39 59 65 64 62 64 60 59 57

GFSSW_sfc_rhum_015.txt.gz
RH
76 77 80 86 84 87 86 85 86 84 85 83 83 80 76 79 80 50 40 25 30 62 69 14 12 14 10 9 7 8 11 10 11 23 30 19 19 20 23 30 44 31 29 42 51
81 77 78 85 87 88 86 85 85 84 85 84 83 80 80 81 56 35 31 67 63 73 17 13 14 11 10 9 9 8 9 9 19 50 25 21 23 24 27 29 35 37 34 40 46
78 80 78 80 85 87 88 86 86 86 84 82 82 80 81 70 43 17 68 71 68 61 11 9 9 9 10 9 9 8 12 12 21 15 19 21 24 18 28 55 31 40 45 42 50
82 79 77 81 84 86 88 88 86 85 84 80 78 75 76 56 28 17 71 72 68 25 11 9 9 11 11 10 8 11 10 11 17 12 13 15 15 21 64 74 61 31 38 38 46
87 83 85 81 83 86 87 87 86 85 81 78 74 76 61 43 24 32 78 70 26 21 12 9 11 11 11 9 9 12 12 12 13 16 15 19 35 20 24 21 24 36 41 37 40
89 84 86 87 86 87 86 86 87 85 79 75 74 78 56 36 11 18 18 20 15 15 10 9 9 8 8 10 11 10 11 9 11 13 15 18 16 14 20 19 27 32 28 28 29
90 86 86 89 88 87 86 87 86 83 76 74 72 52 46 26 11 16 15 12 12 10 10 10 10 11 12 13 11 9 10 10 13 14 15 18 12 18 22 21 26 25 25 27 26
91 87 86 89 89 88 86 86 82 77 74 73 72 52 41 14 11 14 15 15 12 11 11 13 12 13 15 11 11 10 10 15 13 13 13 12 14 18 19 21 24 24 26 27 28
91 87 87 89 89 88 86 82 78 74 73 73 66 55 28 27 14 10 12 13 15 14 13 12 15 16 14 15 12 11 13 13 13 10 12 10 13 19 17 21 24 26 30 30 30
91 86 88 88 89 88 86 78 78 79 66 46 42 53 26 14 12 9 11 12 16 18 19 18 16 18 16 14 16 14 11 10 12 10 9 7 13 17 17 18 24 24 27 29 31
90 86 88 89 91 90 79 53 49 52 46 28 21 20 13 11 10 9 8 11 15 16 17 18 17 18 14 13 10 10 9 8 8 10 9 9 13 13 18 18 20 21 24 27 29
89 87 87 91 93 90 69 38 28 38 36 24 20 18 15 14 14 9 8 12 16 16 16 18 24 13 10 10 9 9 10 12 12 12 16 11 13 14 18 19 20 21 22 24 28
88 88 90 93 93 82 54 36 27 32 40 21 17 17 13 15 12 10 9 10 13 15 21 23 15 13 13 10 11 11 10 16 14 15 14 13 17 21 19 19 24 22 22 23 30
89 91 93 93 80 46 44 29 29 34 37 21 18 15 13 12 13 9 9 11 12 15 15 29 15 14 12 12 12 18 14 13 14 19 19 13 18 19 23 25 26 27 27 29 30
90 94 96 84 58 40 37 33 34 50 50 15 14 10 11 12 10 13 11 11 15 14 16 21 17 15 14 17 17 26 17 17 16 16 19 16 16 42 23 23 26 27 28 30 34
94 94 95 83 63 44 40 49 52 60 42 18 13 14 16 14 12 10 12 11 13 15 14 29 15 15 16 19 17 19 20 20 18 17 30 16 17 20 23 20 24 28 31 34 35
94 94 88 56 43 45 54 55 57 51 17 15 15 13 15 15 15 14 15 16 14 23 22 17 16 18 17 20 19 17 21 27 25 30 32 18 19 17 14 18 19 28 31 33 33
94 96 93 52 42 59 63 52 50 22 19 12 12 14 16 14 14 15 13 14 12 16 21 19 29 18 17 18 18 20 18 28 31 31 18 20 21 14 17 15 17 23 28 32 31
95 88 79 70 65 63 56 72 41 15 14 15 13 16 18 15 15 17 18 14 13 14 20 19 22 18 19 18 16 18 26 18 28 31 34 18 12 14 20 20 20 25 28 31 29
64 83 60 59 68 68 56 48 25 18 16 14 18 16 20 19 17 17 19 16 20 20 18 17 23 18 22 20 21 22 17 27 24 37 36 16 17 13 23 23 23 26 29 29 27
59 57 40 54 62 56 55 37 20 20 19 18 16 16 16 19 17 17 17 20 21 20 18 15 20 27 24 24 18 24 22 21 23 32 35 26 17 15 15 20 23 24 26 28 28
61 56 60 63 54 47 45 28 27 23 26 21 21 16 18 18 21 18 17 16 21 20 20 16 23 39 25 21 20 21 21 21 36 29 33 44 23 15 18 19 21 22 23 25 26
60 58 70 66 71 74 33 24 20 25 24 24 21 18 16 19 22 19 18 36 33 27 21 25 27 40 31 26 22 21 18 19 19 36 31 56 24 15 18 19 19 21 23 25 26
44 65 72 62 42 40 35 27 29 26 22 20 18 21 24 27 24 28 29 35 35 28 63 42 25 30 38 26 21 30 20 18 22 36 32 28 16 13 15 17 16 20 20 23 26
39 43 43 78 52 37 30 27 24 29 25 25 28 24 24 31 31 32 31 37 37 60 34 32 37 27 24 24 22 20 19 19 20 20 30 20 11 9 10 12 13 15 20 21 27
42 36 37 46 41 36 40 27 23 23 27 30 26 22 21 29 30 29 32 33 35 37 36 35 42 40 46 27 26 26 20 16 17 18 15 14 15 10 13 12 16 17 22 24 27
43 54 36 59 45 38 35 25 23 25 37 25 22 27 30 34 35 33 31 29 28 38 42 42 56 50 38 39 38 64 40 23 18 16 18 25 17 14 19 19 19 19 23 26 27

GFSSW_sfc_rhum_018.txt.gz
RH
82 83 80 77 85 79 87 86 86 86 85 85 82 78 80 81 79 51 46 30 31 61 61 18 15 13 12 11 9 6 10 13 12 25 61 45 28 20 26 36 32 49 80 47 59
81 77 78 75 78 81 86 87 84 87 84 80 82 80 83 79 62 43 34 63 61 72 21 18 14 12 14 11 9 9 13 12 35 44 64 64 45 23 24 39 39 56 83 55 56
81 79 80 75 76 83 86 89 88 84 86 82 83 81 83 75 49 20 67 66 66 55 14 12 11 12 12 10 9 9 11 9 42 45 42 49 30 26 28 34 51 86 47 52 55
85 85 84 82 80 78 81 89 88 84 85 80 77 77 80 62 33 17 68 69 69 23 17 15 10 12 12 12 8 11 8 10 28 34 34 31 30 28 27 38 46 50 42 45 50
89 89 85 81 79 81 80 81 86 84 81 80 74 75 63 47 30 32 78 62 22 20 18 11 10 10 12 10 9 10 11 10 27 36 31 30 31 35 34 30 34 43 46 41 45
90 90 86 85 83 78 84 82 86 82 82 76 73 78 62 40 11 20 25 25 13 16 14 8 9 9 10 8 9 10 11 11 16 35 19 35 25 41 37 37 46 45 33 35 34
90 90 88 86 86 84 86 79 86 86 81 73 73 57 46 29 12 14 14 13 13 15 11 9 9 11 11 11 9 11 13 11 14 14 21 22 31 22 37 37 32 28 28 28 26
90 90 89 86 88 88 87 82 84 80 76 74 73 57 44 16 14 12 14 13 11 11 10 11 12 13 15 15 12 12 14 19 13 14 16 21 19 18 21 23 25 24 25 25 24
89 90 88 87 87 88 86 84 81 78 75 74 69 56 34 26 15 10 11 15 14 13 12 11 14 17 16 20 17 14 16 18 17 12 13 14 16 16 20 23 30 27 34 27 26
89 90 88 87 88 88 88 81 78 77 71 45 39 46 32 16 11 8 9 11 15 16 17 18 18 19 19 19 20 18 15 14 14 11 13 12 16 17 16 32 27 26 27 30 31
89 90 87 87 88 90 83 60 57 63 50 28 23 24 11 9 10 9 9 13 14 19 23 19 22 22 22 18 14 14 14 14 10 10 11 10 14 16 16 18 24 27 29 32 33
90 90 87 87 90 91 73 51 30 38 46 29 17 19 14 13 15 10 8 14 19 22 18 17 21 17 16 15 15 12 13 12 10 8 10 9 12 12 16 17 21 22 28 30 31
90 89 88 90 94 85 61 42 26 30 42 24 15 15 15 12 13 10 9 11 16 17 20 31 32 27 13 16 13 12 15 17 13 11 8 22 13 13 13 16 16 18 19 22 29
91 89 90 94 87 54 53 36 35 41 46 24 17 15 13 13 14 8 8 11 20 21 20 22 24 18 14 11 10 19 19 16 15 20 21 20 26 20 28 17 17 20 22 24 27
92 91 95 90 66 43 36 26 35 51 63 17 16 10 11 14 10 11 8 11 16 24 21 24 32 17 15 22 18 23 23 19 15 15 34 38 31 37 38 38 22 25 26 27 31
91 92 96 91 73 57 47 54 52 72 59 19 13 15 14 12 10 9 12 10 11 14 19 26 20 18 22 18 16 20 22 19 15 18 58 38 42 33 42 38 30 22 26 29 32
92 94 91 55 52 43 53 69 67 59 17 17 17 14 14 15 13 12 15 15 17 22 30 20 16 12 15 14 16 15 18 30 59 57 46 18 28 44 29 33 62 54 27 33 40
94 95 91 59 48 57 68 92 61 27 23 10 12 13 16 14 13 13 16 15 13 14 17 33 35 16 13 14 30 26 16 38 83 83 35 28 30 16 23 22 42 29 29 35 38
95 90 84 73 71 71 91 94 52 24 16 14 12 16 16 13 13 14 15 15 12 14 44 54 38 26 17 14 14 15 23 17 28 69 43 21 13 16 17 18 16 27 30 36 36
73 82 69 67 70 74 96 70 37 21 12 13 16 14 18 16 16 16 16 12 12 13 38 63 69 28 19 17 17 20 16 32 31 51 46 21 18 24 23 21 21 25 32 34 34
63 68 49 62 71 80 82 57 37 19 15 17 15 14 15 18 15 16 16 18 20 17 16 16 30 25 22 22 15 22 22 21 19 40 63 56 24 17 18 19 22 23 31 33 35
65 67 58 67 64 48 67 41 35 21 17 19 17 14 15 17 18 16 17 16 17 16 20 17 22 50 24 16 16 18 24 20 64 43 55 69 34 16 18 16 21 22 24 30 31
61 66 71 64 58 74 50 38 28 24 23 25 20 18 15 18 22 18 16 32 29 21 23 22 29 48 31 24 21 23 16 17 22 50 56 77 41 15 15 16 17 22 23 27 30
56 84 98 90 37 49 53 38 32 23 20 20 20 17 17 18 17 21 20 33 32 27 59 44 26 30 49 28 25 30 22 16 20 67 58 45 20 14 16 18 17 20 22 23 29
75 58 66 92 66 50 45 34 30 26 21 20 21 18 23 28 23 26 22 37 34 53 33 31 37 28 22 19 23 25 21 19 19 23 37 30 18 14 12 14 16 17 20 20 20
77 50 49 51 50 53 55 42 30 22 26 27 27 20 22 28 25 28 25 36 37 38 33 34 49 49 52 28 25 28 22 20 19 17 18 16 17 12 15 16 18 17 17 23 20
57 56 47 63 55 58 59 39 30 25 25 21 23 24 26 30 29 34 36 32 28 40 44 47 72 70 64 39 45 61 46 28 24 17 18 28 21 14 15 17 21 21 19 25 24

GFSSW_sfc_rhum_021.txt.gz
RH
85 84 84 85 75 77 77 79 89 85 87 86 82 82 82 85 83 65 73 53 50 64 61 25 25 23 22 22 17 19 20 18 25 58 58 59 58 51 41 48 53 69 79 86 86
86 84 80 84 79 77 76 78 90 89 86 87 84 85 86 86 80 67 52 62 68 73 31 30 26 20 23 22 19 20 23 20 46 59 61 49 45 54 46 59 76 57 70 85 87
87 86 84 84 85 76 77 78 89 88 86 87 81 83 85 83 73 37 75 63 72 62 22 21 20 17 21 20 18 18 17 42 48 47 52 58 51 48 42 72 71 72 73 84 91
88 87 88 87 86 77 78 79 80 80 84 84 83 81 83 82 40 30 73 73 73 31 27 20 23 22 21 18 15 18 12 21 38 42 43 56 45 37 39 60 58 63 68 73 63
88 89 90 85 85 84 79 79 80 82 77 80 79 78 84 72 52 47 72 71 33 26 24 24 26 19 19 16 15 14 15 33 38 48 44 36 36 37 40 50 58 67 68 65 62
88 89 90 89 87 87 82 78 79 88 83 86 78 79 91 61 30 50 36 32 20 25 24 23 18 12 14 16 16 14 14 33 36 43 40 30 36 42 42 44 52 54 63 53 43
89 89 90 89 88 89 84 86 80 87 88 83 77 69 65 50 23 30 26 25 17 18 21 18 14 20 20 23 19 15 15 17 36 40 37 32 48 47 41 38 50 53 49 51 38
89 89 90 90 88 89 89 86 88 86 86 82 77 79 75 28 30 24 20 18 16 17 19 17 19 22 23 20 21 18 22 27 21 28 33 30 45 39 43 44 56 45 41 39 36
89 88 90 90 89 89 89 88 89 86 84 81 86 86 66 32 26 19 18 20 17 16 17 13 20 28 25 30 32 24 24 24 22 17 24 25 32 40 46 46 43 44 40 36 37
90 88 90 89 88 89 90 90 84 85 78 62 57 68 45 28 20 14 15 17 21 24 24 28 28 33 32 34 37 28 23 21 23 20 19 25 28 45 48 48 49 52 53 51 40
90 89 90 88 88 89 93 92 88 88 78 58 40 38 20 18 14 15 14 16 22 25 39 30 34 39 33 24 23 18 19 20 17 15 20 24 27 30 49 50 53 55 68 52 46
92 89 89 88 88 90 94 88 51 55 67 48 37 29 20 19 20 16 13 21 29 35 44 32 37 28 21 20 24 23 23 23 16 13 15 22 26 24 50 61 52 60 54 50 46
93 90 88 88 92 97 91 72 44 52 71 40 37 32 20 20 21 18 14 17 26 31 29 38 35 26 27 29 24 25 30 23 19 14 15 23 25 25 22 23 35 48 47 43 48
94 91 90 93 95 84 86 61 60 61 87 39 34 20 16 18 24 14 12 16 29 30 28 32 27 28 29 28 19 23 25 28 23 28 29 27 41 39 32 28 25 35 50 43 47
94 92 94 86 95 82 58 60 55 68 94 26 25 15 16 21 20 15 12 16 25 31 32 35 29 33 33 26 21 26 24 29 28 31 38 34 34 42 41 27 28 33 34 41 47
95 92 95 94 93 83 69 62 78 89 89 31 21 21 21 21 19 14 16 19 21 29 28 32 22 29 33 24 20 23 29 35 36 37 61 40 45 52 44 26 33 33 31 37 50
95 93 93 71 78 69 71 87 95 98 29 25 24 21 22 23 20 17 21 24 26 39 42 28 24 29 30 30 26 31 32 55 54 76 72 43 44 44 37 31 35 35 32 44 56
95 94 90 74 70 78 90 97 98 47 40 19 22 22 25 20 21 20 23 28 22 24 39 38 52 42 32 26 31 37 35 63 70 93 61 49 49 36 26 28 32 35 42 52 62
96 96 91 82 78 82 99 98 78 49 24 28 19 26 24 19 19 22 24 27 20 19 42 55 49 36 32 30 28 30 40 35 72 75 87 57 32 26 33 43 46 46 47 59 60
97 97 86 78 87 87 100 80 64 36 30 24 31 23 28 23 21 22 25 20 20 18 43 60 57 47 42 37 24 28 28 45 60 66 62 38 36 47 36 35 38 55 50 54 51
96 94 70 73 88 98 89 79 56 38 31 33 29 24 23 27 23 27 25 19 23 35 40 52 58 60 46 38 30 34 34 32 35 63 70 79 46 27 29 32 33 46 46 49 47
96 93 71 77 96 88 80 64 57 41 38 37 30 25 25 29 32 27 28 40 27 27 40 50 59 73 42 26 22 25 41 48 69 45 76 79 54 24 22 25 28 31 41 46 43
96 83 78 63 79 90 63 61 54 47 44 36 37 33 36 29 40 27 40 46 39 33 35 42 43 67 42 36 35 32 28 25 46 69 60 73 56 22 20 21 24 28 30 45 44
94 89 98 92 47 60 58 58 63 46 43 34 31 34 34 33 33 36 55 48 45 46 63 48 42 48 61 44 38 46 34 30 36 74 67 67 42 26 25 25 24 24 28 42 43
98 67 72 96 89 54 53 52 57 57 39 32 35 34 36 35 38 36 52 51 48 58 46 45 49 46 43 40 33 36 33 32 31 40 52 43 37 30 27 27 26 29 27 26 30
95 73 87 82 72 69 58 58 51 43 39 36 37 33 32 36 40 40 46 53 52 55 49 47 69 64 66 42 43 46 38 35 35 32 32 31 31 24 26 25 24 23 25 28 28
78 82 69 82 77 71 55 55 52 41 39 26 38 41 42 44 44 53 50 58 49 57 58 60 76 76 74 56 50 57 42 39 37 34 36 39 29 27 31 31 32 32 31 30 32

GFSSW_sfc_rhum_024.txt.gz
RH
86 87 86 86 87 81 80 80 78 86 86 84 86 87 84 87 86 73 81 51 58 70 59 33 31 30 28 32 26 18 25 25 20 63 55 58 62 52 46 58 56 74 87 87 88
87 87 84 86 87 87 83 79 78 83 88 87 88 86 86 87 85 81 61 69 72 76 38 30 32 27 26 27 25 24 26 23 37 63 63 54 62 50 55 63 62 93 93 86 79
88 88 88 87 88 88 82 84 78 80 81 86 86 86 86 86 83 46 73 71 76 69 27 27 26 24 29 27 25 23 24 35 50 52 53 54 53 50 65 80 64 92 88 85 85
88 89 88 89 89 88 87 82 79 80 86 83 83 83 84 88 43 29 78 82 76 39 29 26 25 29 26 25 20 22 16 33 45 50 52 53 48 43 46 63 58 88 85 87 84
89 88 89 89 88 88 89 85 79 79 87 83 83 80 86 75 60 50 75 75 43 29 28 26 34 31 26 19 19 19 24 38 41 42 42 43 44 48 66 60 63 76 84 88 89
90 89 89 90 90 90 90 88 85 83 88 86 82 80 87 54 36 49 45 36 29 29 28 28 28 22 18 18 20 19 34 38 45 36 35 36 44 45 62 60 65 72 81 89 83
92 90 89 90 90 89 90 90 89 89 88 86 80 71 79 37 37 44 29 28 22 24 26 23 21 24 29 24 23 21 34 43 48 42 38 38 40 46 52 61 68 65 67 70 85
93 91 90 90 90 89 90 90 90 90 89 85 79 85 70 37 42 28 30 23 21 21 21 20 21 23 29 25 24 21 21 44 42 45 36 33 47 46 49 57 68 66 65 58 76
95 92 90 90 90 89 90 91 91 89 87 86 90 90 70 40 34 31 24 21 21 21 22 15 24 30 26 33 34 29 27 27 40 38 36 39 40 40 47 53 64 58 55 49 64
95 93 90 90 89 89 91 90 89 90 79 69 64 68 47 29 27 20 23 21 24 27 26 30 32 36 35 35 39 30 25 28 26 22 37 32 38 54 50 54 53 54 56 49 51
95 93 89 89 88 88 92 93 78 84 85 52 36 42 26 24 20 16 18 20 26 28 37 38 36 41 34 32 27 24 28 24 22 19 24 28 57 55 56 52 49 56 59 58 47
94 93 89 88 88 90 93 90 64 56 70 54 48 43 31 30 26 20 17 23 31 36 45 38 42 32 28 28 31 35 28 28 23 18 19 32 51 58 54 44 42 55 62 60 57
95 94 90 87 91 96 96 82 56 54 75 55 50 48 40 25 27 23 18 24 32 36 36 37 30 29 29 27 35 34 30 32 28 16 21 24 32 64 53 54 49 52 50 47 47
96 94 92 92 85 87 94 72 71 65 87 56 44 40 21 21 28 20 16 20 32 34 35 34 32 32 35 35 33 36 24 28 26 28 26 32 40 38 41 51 51 49 57 46 54
97 95 93 82 91 88 68 66 71 73 79 33 40 22 18 25 24 20 16 20 29 32 31 33 37 35 34 32 29 28 30 29 31 34 41 35 36 34 39 35 49 51 51 48 47
96 95 94 94 97 87 68 71 85 89 86 44 27 26 26 26 24 22 17 22 26 32 36 32 30 29 30 30 26 25 31 38 47 47 64 52 43 42 44 28 28 39 47 48 51
96 96 89 78 81 83 78 85 95 92 39 36 30 27 28 29 28 25 25 27 35 41 44 33 33 31 33 33 30 30 37 50 50 73 66 49 50 42 35 35 31 33 40 43 56
97 97 90 75 84 88 91 95 93 61 56 32 28 27 30 28 28 26 28 29 30 30 45 42 49 41 38 35 40 38 37 59 52 80 57 56 60 40 30 30 35 36 48 68 72
98 99 96 83 87 84 98 97 77 67 35 33 29 34 33 28 24 26 30 30 24 24 37 55 50 45 42 38 37 41 42 40 72 83 82 65 46 32 39 45 41 52 56 76 82
97 99 93 84 79 87 98 78 68 50 40 33 36 32 36 30 29 28 28 26 26 23 37 48 53 49 42 35 39 40 30 47 64 73 77 46 43 48 43 42 47 57 54 72 74
97 95 81 81 83 96 90 75 59 44 44 48 44 40 29 31 28 33 27 22 25 42 42 53 47 55 48 44 41 41 38 39 46 63 64 74 48 30 38 38 35 48 54 65 65
95 95 85 79 94 80 86 67 60 49 47 54 48 46 32 32 33 34 32 28 32 42 42 49 59 82 55 34 36 39 37 43 67 45 81 82 52 31 29 32 39 49 50 59 57
94 91 87 73 86 93 72 63 56 49 52 52 47 42 33 35 36 37 37 49 43 36 43 46 53 67 49 34 42 34 32 41 52 70 63 73 54 28 27 23 29 39 54 54 54
93 96 99 91 63 58 72 73 71 48 52 51 51 48 41 42 45 47 54 51 54 45 62 52 47 46 56 39 41 48 41 38 46 75 65 67 42 32 29 27 25 29 45 56 53
95 74 75 93 88 62 58 64 70 60 50 47 49 50 50 46 52 40 56 56 52 63 54 47 48 47 42 46 44 42 41 40 39 43 53 43 44 30 27 26 29 29 31 48 55
92 83 79 87 69 73 62 60 56 51 48 47 53 49 45 39 41 47 54 58 51 56 48 54 57 70 65 51 48 48 40 42 40 39 42 37 38 31 31 30 32 32 31 33 36
90 83 78 74 76 81 65 56 47 43 50 40 42 45 50 39 46 48 49 51 53 54 62 62 76 75 68 61 54 68 48 39 38 38 38 46 39 40 41 38 38 40 36 39 44

GFSSW_sfc_rhum_027.txt.gz
RH
88 88 87 89 88 87 87 86 86 82 81 82 84 85 85 88 87 81 70 46 68 71 64 33 33 34 32 35 33 24 32 30 25 48 53 61 67 61 56 62 88 90 93 94 95
88 88 86 88 88 89 89 86 86 83 81 80 84 81 88 88 95 85 61 67 75 71 37 28 34 28 28 31 29 29 32 27 21 56 58 58 60 54 58 73 92 96 94 92 90
88 88 89 88 90 91 89 88 86 83 83 82 87 87 88 90 79 40 74 74 76 74 30 30 26 26 30 30 29 29 28 22 47 56 57 52 56 50 66 77 86 93 92 92 90
90 89 89 88 90 91 90 90 88 84 82 84 84 85 86 96 40 33 77 81 77 61 33 26 26 31 31 28 27 28 20 34 41 50 55 58 50 44 64 74 82 79 85 87 86
91 90 89 89 90 91 91 91 90 87 84 84 85 83 89 60 39 52 77 78 63 34 30 27 34 36 31 24 24 22 19 24 43 50 52 48 48 53 74 88 80 77 81 86 87
94 91 90 89 90 91 91 91 91 90 87 85 84 82 90 31 35 52 55 47 35 32 28 29 30 27 27 22 22 22 36 48 48 47 40 46 52 51 66 91 85 83 77 68 80
96 94 92 90 90 91 90 90 91 90 88 86 83 77 86 30 43 48 37 36 29 27 29 28 29 30 27 25 27 30 48 48 48 46 42 47 52 60 56 78 92 83 82 74 81
96 95 94 92 90 91 90 91 91 90 88 85 80 88 83 35 48 40 36 29 24 24 22 23 27 29 30 25 27 24 34 37 40 44 44 38 48 54 64 70 83 88 88 84 84
94 96 95 93 92 91 90 90 91 90 87 88 92 92 68 40 41 39 29 28 22 23 24 18 26 32 28 35 34 30 30 35 40 42 41 40 49 50 60 65 75 76 85 88 88
92 96 96 92 92 90 90 90 89 88 83 72 69 65 40 29 28 27 35 27 28 31 28 32 35 37 38 36 39 39 31 31 35 38 49 47 41 57 61 70 73 71 68 79 87
92 94 96 91 90 88 92 92 71 81 78 41 34 35 30 29 26 25 25 27 30 31 40 38 38 42 38 36 35 33 36 35 28 22 42 45 38 57 62 67 71 71 68 66 78
91 94 96 90 89 90 93 84 60 63 69 56 53 46 37 35 40 26 20 26 33 37 47 42 46 34 33 34 36 33 37 35 28 23 26 36 47 68 64 61 62 61 68 55 67
87 95 96 90 89 96 94 77 56 59 63 52 55 54 47 40 42 30 21 29 34 38 43 40 31 32 32 29 34 38 39 35 33 22 29 35 42 66 58 56 54 50 57 53 55
87 94 96 90 92 86 89 70 69 69 69 54 59 49 41 28 30 24 21 24 36 35 39 36 32 35 37 37 36 41 32 30 32 28 30 28 36 41 62 58 54 51 58 60 51
90 94 97 88 80 92 71 67 71 74 63 28 48 30 26 26 26 25 19 24 28 35 34 34 35 36 36 33 32 33 31 33 38 37 42 44 41 39 57 60 53 45 49 60 57
90 94 96 92 95 80 72 77 80 81 68 39 38 32 30 27 28 23 21 24 26 34 38 34 33 33 31 33 31 29 37 41 51 49 60 54 46 44 51 42 42 41 41 51 57
88 93 96 79 83 85 83 88 93 92 34 43 38 31 30 33 28 29 26 34 37 42 44 37 36 35 37 36 35 34 40 48 48 68 62 52 55 44 31 34 36 38 38 48 57
86 95 95 78 87 88 90 96 94 67 62 44 34 34 32 31 31 32 31 32 31 36 47 42 48 40 41 36 41 47 40 58 48 72 53 60 64 46 36 33 35 34 40 50 65
87 97 99 90 81 89 98 99 78 63 50 32 34 38 39 32 30 33 33 34 27 33 37 56 46 48 42 39 36 43 46 43 75 86 82 60 51 30 37 43 56 57 69 73 83
98 95 91 79 78 87 99 78 67 54 51 49 40 37 41 37 34 34 35 29 28 28 32 44 45 50 44 44 42 40 38 52 68 68 70 58 49 44 40 39 56 61 66 80 89
97 98 80 82 82 96 93 74 62 46 50 61 56 42 37 37 36 37 32 26 29 33 36 51 40 45 51 47 40 43 42 45 49 66 64 74 54 35 35 38 36 44 57 77 88
94 95 94 82 99 85 81 68 60 50 52 58 61 58 44 37 36 36 33 28 31 45 41 47 52 70 42 42 39 45 45 44 68 48 84 83 57 32 30 34 39 36 50 63 79
94 90 93 77 95 93 70 63 60 53 53 58 60 54 48 40 38 38 37 41 47 42 47 49 59 72 50 42 43 45 40 48 56 71 66 75 53 30 33 29 27 39 38 60 74
95 97 98 94 67 69 73 72 72 56 56 57 61 59 58 46 43 45 47 53 54 48 70 49 52 52 61 46 44 53 44 45 50 78 66 69 43 32 30 32 29 28 38 63 70
97 78 77 96 89 80 63 64 72 67 58 51 59 63 65 64 54 54 61 59 53 66 57 48 50 47 43 38 45 41 41 44 44 48 56 46 51 38 36 30 30 32 38 55 67
96 89 80 87 70 77 71 68 63 63 63 58 49 50 47 62 49 48 55 58 53 56 54 57 56 62 66 54 52 49 42 43 45 43 46 44 42 37 37 42 42 35 39 45 56
90 85 90 75 76 78 72 64 59 59 57 47 46 48 64 55 48 47 56 54 48 53 61 60 73 73 62 67 62 68 53 45 41 38 40 47 39 42 48 44 50 47 46 50 54

GFSSW_sfc_rhum_030.txt.gz
RH
89 89 89 89 90 89 89 89 88 85 80 82 82 85 83 88 85 85 75 47 68 70 70 37 36 39 34 38 34 29 35 35 28 34 46 65 67 63 75 90 86 88 93 91 94
90 89 88 89 89 90 91 90 89 87 84 80 83 86 87 90 89 93 62 64 72 71 32 32 36 31 30 33 32 33 36 30 23 30 59 61 62 61 72 93 88 92 94 96 93
91 90 89 90 89 90 92 91 90 87 85 83 83 87 89 91 65 40 74 72 76 68 31 31 27 28 31 31 31 32 30 25 24 50 61 59 60 60 68 79 84 86 96 93 92
93 91 90 89 89 90 92 92 91 88 86 84 84 84 87 92 38 33 81 81 76 61 35 27 30 35 33 32 28 32 24 24 39 58 58 56 52 60 73 82 80 85 87 87 88
96 93 91 90 89 90 91 91 91 89 87 85 85 84 83 50 30 62 84 78 65 40 35 27 36 37 36 28 27 26 22 28 44 54 54 49 61 77 94 88 81 85 87 86 89
93 96 94 91 90 90 91 91 91 91 89 86 85 82 80 26 33 56 64 46 43 35 30 28 32 31 32 32 25 23 30 46 52 52 49 60 66 66 88 84 84 86 84 82 84
93 97 96 93 91 90 91 91 91 91 89 87 84 77 79 26 44 49 41 40 35 30 31 31 32 33 33 30 28 36 46 46 53 50 44 47 52 69 86 80 87 83 71 72 79
90 94 97 96 92 90 91 91 91 90 89 87 82 86 70 37 50 47 43 35 28 30 28 24 29 32 35 28 28 30 36 37 52 50 45 38 59 76 86 84 90 86 82 78 80
87 89 95 97 94 92 91 91 91 90 88 87 93 90 48 38 38 35 34 30 26 26 25 20 30 35 31 35 33 32 35 31 50 45 45 44 52 67 80 87 86 89 89 91 90
88 89 90 97 95 92 90 90 89 87 84 77 70 59 31 30 32 33 43 28 30 31 32 34 38 39 40 36 38 42 39 53 36 41 52 56 48 65 70 76 90 91 93 94 91
89 91 92 95 94 89 90 87 67 78 81 48 33 28 27 31 37 28 34 33 33 31 41 42 41 43 35 35 35 37 40 42 33 26 49 53 52 61 69 74 85 83 86 91 88
89 88 90 94 94 89 93 84 64 71 75 58 53 44 37 41 50 34 28 32 38 41 47 42 48 35 34 38 37 39 41 37 31 24 43 55 58 65 71 72 72 74 75 76 78
85 85 86 96 92 94 93 75 62 72 78 50 53 53 48 44 47 42 25 32 36 40 46 45 34 35 34 33 35 38 41 40 34 27 36 44 47 75 64 62 60 64 64 64 65
82 86 87 96 93 93 88 75 72 74 62 46 56 53 47 45 37 30 24 28 41 34 43 44 35 34 38 37 35 42 35 39 34 30 35 38 39 40 68 66 61 58 61 62 59
85 86 88 93 90 95 78 68 77 72 62 29 56 37 42 30 28 29 22 26 34 38 38 38 41 40 41 36 35 36 36 41 39 40 46 47 43 38 66 68 59 56 57 55 62
76 84 89 98 92 87 72 81 80 78 56 32 42 45 36 30 30 26 25 25 28 35 42 38 35 37 33 34 32 35 40 37 49 50 58 52 50 49 53 52 48 48 51 49 60
79 83 93 85 84 88 80 89 99 92 35 34 48 38 35 36 31 28 32 37 37 44 48 42 37 37 40 40 39 38 41 48 45 66 62 54 59 47 33 37 46 49 49 48 50
80 85 89 86 77 89 92 96 98 64 48 45 40 38 35 32 31 34 32 40 39 36 49 44 44 42 39 36 36 47 41 58 45 69 48 60 56 35 39 36 39 37 39 47 65
82 94 94 86 84 80 96 99 77 64 50 42 37 40 40 33 33 34 37 37 33 35 37 52 45 50 48 45 40 46 49 42 74 88 80 60 48 31 38 46 51 52 58 56 76
95 95 90 84 87 84 97 82 66 49 51 54 42 40 46 41 35 35 41 34 31 33 36 43 44 50 46 48 47 43 44 55 69 64 68 59 55 43 33 40 53 58 61 66 80
94 96 73 83 93 99 92 73 62 51 51 61 69 59 42 42 38 43 39 32 31 32 35 47 39 41 53 46 39 48 49 52 53 66 64 73 53 40 32 38 43 46 56 62 82
94 96 85 89 99 86 84 70 58 53 53 57 63 68 58 43 43 41 38 32 32 43 39 46 48 60 40 42 42 43 46 52 71 54 83 83 61 35 31 33 37 35 40 57 77
95 90 94 74 91 89 69 67 61 54 54 63 64 63 57 50 43 43 40 36 48 39 44 50 53 64 46 42 49 48 47 48 58 72 69 77 56 31 35 32 30 32 38 53 73
96 98 94 92 63 66 74 70 67 58 58 55 63 66 63 59 49 43 41 53 54 42 66 48 58 48 47 42 45 56 46 55 53 77 67 69 46 34 31 34 32 32 33 41 66
97 90 72 96 90 74 63 65 69 62 56 60 65 68 62 67 55 56 62 64 57 71 56 44 48 54 47 41 44 44 43 52 49 52 57 50 51 39 38 37 34 34 35 45 68
99 90 78 76 72 74 74 66 67 58 60 62 67 60 66 72 53 52 64 62 54 59 56 57 56 59 63 58 55 58 47 49 51 51 51 48 47 39 40 47 46 42 50 58 67
94 91 96 72 75 74 72 64 62 60 56 54 54 56 70 52 44 51 48 59 60 60 65 58 72 70 61 74 59 66 56 49 51 47 45 54 44 42 52 52 56 53 58 65 64

GFSSW_sfc_rhum_033.txt.gz
RH
91 90 90 90 90 90 90 91 91 87 85 84 80 82 83 89 87 74 46 36 54 68 70 32 26 27 23 26 21 20 22 22 20 19 27 49 49 57 67 75 74 76 80 93 93
93 91 90 90 90 90 90 92 91 90 87 86 85 83 87 90 88 69 51 63 71 70 26 26 26 22 21 23 23 22 26 21 18 17 38 48 48 52 65 78 82 94 96 91 85
96 93 92 90 90 90 91 92 91 89 87 86 86 86 89 86 55 30 73 69 75 67 23 24 23 19 19 21 22 23 22 20 17 20 43 42 47 48 65 67 73 86 95 94 87
92 96 95 92 90 90 91 91 91 88 87 86 85 85 87 82 32 25 82 77 77 52 23 22 22 24 23 22 20 23 20 19 25 47 45 43 41 58 61 57 66 75 85 90 89
90 92 95 95 92 91 90 91 91 90 88 86 85 84 73 38 18 64 83 75 60 35 22 21 24 25 25 22 20 23 19 20 22 45 47 47 58 62 73 80 76 80 83 87 85
88 92 93 96 94 92 91 91 91 91 90 87 86 82 64 28 36 58 59 48 37 29 24 23 24 24 26 26 20 20 23 38 46 45 45 61 69 59 77 76 80 82 77 79 80
86 89 92 95 97 94 92 91 91 91 90 87 85 76 69 27 39 51 39 32 34 26 21 22 24 23 24 26 22 27 35 38 41 44 43 46 44 66 72 74 79 79 68 76 77
86 87 88 90 95 97 93 92 92 91 90 88 83 81 54 31 40 41 39 32 29 28 23 20 23 25 26 25 22 23 28 28 39 47 45 34 48 82 74 71 72 71 69 70 75
87 88 88 90 92 97 95 92 91 89 88 87 87 83 36 34 29 30 32 29 26 23 22 18 22 27 25 26 25 27 23 25 36 40 40 38 46 72 73 72 68 68 64 63 72
84 88 90 91 93 97 94 90 88 84 84 76 70 58 28 22 27 34 36 26 24 26 26 26 30 28 29 25 29 31 29 26 28 35 38 39 39 68 78 74 72 67 64 66 65
81 85 90 89 94 95 86 77 59 70 82 54 40 31 20 26 34 26 34 29 25 27 32 33 30 31 26 31 26 28 30 30 25 21 38 42 40 62 76 82 81 78 75 71 65
79 82 86 86 95 92 86 78 58 64 77 59 55 44 35 36 42 34 30 32 34 34 35 35 40 31 28 31 30 32 31 30 27 24 35 36 44 47 64 72 65 66 70 69 66
80 80 83 83 94 94 88 72 64 66 86 59 54 51 45 38 43 38 28 31 33 37 39 38 27 31 32 33 34 31 30 32 30 23 28 30 34 52 54 55 55 58 58 58 61
76 83 85 88 96 86 85 68 72 71 70 44 50 48 48 43 39 32 24 27 32 35 40 35 31 31 32 30 29 31 29 30 33 26 25 27 25 26 53 57 55 52 57 56 56
79 80 84 92 92 87 70 72 79 71 63 32 56 36 46 33 26 32 24 26 35 36 35 34 33 34 34 32 30 30 30 31 29 30 36 36 27 25 48 54 54 52 50 51 51
78 78 84 92 95 84 77 78 81 75 68 28 46 52 50 33 27 25 24 26 28 34 32 32 27 29 28 29 30 29 32 31 39 39 43 40 35 28 29 34 38 41 45 46 46
79 77 78 80 87 83 78 84 94 95 40 30 47 41 42 34 31 28 32 35 33 42 42 32 30 27 32 30 30 30 34 39 32 47 44 45 44 31 26 26 31 35 39 44 45
79 80 80 77 84 86 86 93 94 63 47 37 37 39 42 31 31 30 34 35 32 31 40 34 38 34 33 29 30 35 34 46 42 47 32 48 45 21 27 28 29 30 31 33 44
80 92 92 88 80 87 95 97 69 62 48 40 32 41 37 31 29 33 37 34 30 32 35 48 37 36 38 35 28 36 39 36 60 73 60 43 35 26 23 26 35 40 41 37 34
96 94 84 85 86 98 97 72 69 48 46 51 36 40 45 39 36 34 40 34 32 32 32 40 38 40 40 36 39 34 35 46 53 54 57 44 43 30 26 24 31 34 36 41 45
95 97 69 79 88 98 86 75 59 51 48 55 63 55 43 43 39 42 38 31 30 31 30 41 37 37 41 39 34 40 42 44 42 51 49 51 38 33 29 25 32 32 37 41 48
96 96 81 75 97 87 76 65 61 48 52 56 58 64 62 44 44 43 40 33 33 36 36 39 49 54 36 34 32 35 39 43 57 49 59 63 43 28 30 28 30 30 29 35 41
99 91 88 74 92 83 68 63 56 58 54 61 62 59 57 54 46 44 41 37 45 37 42 45 46 49 37 35 38 40 39 42 49 56 59 76 42 26 28 27 27 28 26 31 43
98 98 99 93 63 68 73 68 63 57 54 55 59 58 56 59 51 44 45 45 50 39 64 42 50 45 41 35 39 48 43 43 44 60 54 53 36 28 26 27 25 28 28 26 30
98 90 88 96 87 80 65 60 70 67 54 54 61 60 63 62 58 53 50 58 53 67 50 46 47 49 39 33 38 39 40 46 41 44 52 42 41 31 29 28 28 30 30 32 41
98 93 82 77 68 75 76 70 65 59 53 62 53 54 56 65 51 55 55 58 54 59 54 52 50 51 47 45 41 45 39 43 43 42 41 39 40 31 31 30 33 37 46 54 58
96 89 81 71 74 80 70 66 62 60 57 47 58 64 64 51 54 56 50 51 53 54 61 58 68 61 52 58 54 66 55 44 43 40 41 46 34 33 34 38 39 51 53 54 56

GFSSW_sfc_rhum_036.txt.gz
RH
94 92 91 91 90 90 89 90 91 90 87 86 87 86 84 88 81 46 29 30 33 62 66 21 18 17 14 15 15 13 13 12 16 17 18 28 34 42 44 51 54 61 58 75 90
88 92 94 92 91 90 90 90 91 91 90 88 89 88 89 90 49 31 42 64 69 74 17 14 15 14 13 14 14 14 13 12 12 12 15 27 32 40 47 48 62 88 87 89 86
84 87 90 95 94 91 90 91 91 90 90 89 89 88 89 75 37 22 70 67 71 56 14 15 11 11 14 14 14 14 14 13 12 13 14 24 32 36 45 47 46 84 93 87 81
84 85 87 90 95 94 92 91 91 90 89 87 85 86 86 50 16 21 79 74 75 26 16 14 13 14 14 15 14 17 14 14 13 20 24 28 31 38 45 62 52 80 85 82 79
84 86 85 87 93 96 94 92 91 91 89 86 85 85 51 24 12 33 83 69 31 21 16 17 17 16 16 16 16 18 14 15 18 21 31 32 35 40 56 53 70 81 87 84 76
86 86 89 90 93 96 96 94 92 91 90 87 85 87 42 24 20 35 32 30 20 17 15 15 17 17 19 18 18 16 18 27 25 31 34 36 40 40 52 55 71 64 85 79 72
84 87 87 87 88 92 96 96 93 92 91 87 85 56 48 26 19 28 26 19 19 15 15 14 16 18 18 19 17 17 26 21 26 32 34 31 33 40 44 49 62 48 50 66 63
82 84 88 88 88 89 93 96 94 92 91 88 84 58 38 20 18 29 23 21 20 17 18 15 16 19 20 18 16 18 20 30 30 28 30 33 33 47 41 43 44 49 53 56 61
79 81 86 88 90 91 94 96 94 88 86 84 68 60 27 36 24 17 22 21 20 18 17 14 18 20 19 16 16 18 18 21 28 24 30 30 28 40 43 38 48 41 41 48 55
72 71 80 89 90 94 96 93 83 82 71 60 52 54 29 13 15 25 18 19 19 18 20 21 20 19 15 14 19 19 18 19 24 27 28 27 22 38 47 42 44 41 37 38 41
72 69 72 86 86 94 80 53 50 56 63 36 31 29 13 17 25 23 24 21 20 22 24 23 21 19 14 15 17 17 18 18 16 19 24 20 19 31 46 48 47 46 42 36 36
77 72 74 83 83 93 74 64 52 55 50 32 36 31 27 21 26 23 22 25 26 25 23 26 23 16 16 18 21 22 19 19 18 19 21 19 18 22 38 49 47 43 43 42 39
77 76 75 81 86 91 66 62 47 49 60 35 34 30 28 28 26 19 24 22 24 24 25 23 20 21 21 22 23 22 20 20 22 19 19 20 20 27 29 35 41 41 36 35 36
79 77 81 82 87 60 62 53 50 55 57 24 32 32 30 24 30 16 20 20 22 24 23 23 20 23 23 21 21 23 18 22 22 22 20 20 18 20 23 32 35 36 37 37 33
87 78 79 85 84 70 55 57 63 67 43 20 36 26 30 22 18 22 18 20 22 23 25 23 24 24 24 21 20 21 23 23 22 22 25 22 18 19 24 26 26 32 33 32 32
86 81 79 75 67 64 57 64 68 66 41 22 34 42 40 31 20 18 22 18 16 21 23 19 20 20 18 21 20 23 23 23 26 24 32 22 22 16 17 16 15 18 27 30 30
84 86 78 59 62 54 68 71 70 59 23 19 35 38 30 29 23 21 23 26 22 30 30 23 21 19 21 23 24 23 24 29 29 33 34 29 28 18 14 14 16 17 16 23 28
81 87 79 62 53 66 83 94 56 20 24 26 30 33 34 22 22 23 22 24 19 18 20 24 29 20 20 21 22 23 22 30 38 35 21 32 26 16 15 16 18 20 19 19 23
84 94 82 77 64 76 98 90 33 20 22 19 23 35 36 24 20 24 24 22 19 19 24 27 22 22 24 21 19 27 28 22 36 48 35 22 20 16 14 17 18 20 25 22 20
82 94 87 65 73 95 98 68 30 18 24 26 27 23 35 28 24 24 27 20 20 18 16 23 26 26 30 27 29 26 22 33 33 43 40 25 25 18 16 15 15 16 16 21 25
87 95 80 65 75 98 97 58 36 20 28 32 32 23 26 32 24 25 27 25 20 21 16 18 23 35 33 31 24 31 29 30 28 33 38 36 24 17 16 15 16 16 19 20 21
91 98 75 72 94 92 84 50 38 27 32 37 39 34 27 30 30 25 26 23 21 18 26 20 25 34 26 24 25 19 21 26 38 34 38 47 30 15 16 18 19 19 19 20 23
94 94 85 72 89 88 55 50 40 36 31 39 41 40 41 39 37 30 26 30 25 23 23 26 29 36 29 27 27 24 23 22 28 37 37 58 30 16 18 19 17 18 17 19 24
96 99 98 94 52 54 54 52 55 38 35 31 35 37 46 46 41 35 32 37 32 22 53 37 24 29 34 24 18 31 24 23 26 40 35 35 23 17 17 16 16 18 19 18 19
98 89 87 97 79 49 45 36 52 54 36 36 45 42 43 50 45 44 36 44 39 55 29 31 29 25 19 17 16 18 18 21 26 26 32 27 23 19 16 17 15 21 20 22 24
97 78 73 53 66 52 48 44 47 46 36 42 47 43 40 46 37 48 48 46 37 43 33 31 32 27 31 20 23 23 19 18 24 22 23 23 23 16 16 19 20 22 27 32 37
80 48 56 63 66 59 56 45 41 41 41 29 34 42 51 51 46 48 52 47 41 43 42 41 41 42 37 37 36 50 34 22 23 23 27 29 22 16 18 21 22 26 33 38 43

GFSSW_sfc_rhum_039.txt.gz
RH
90 90 94 94 92 91 90 90 90 90 88 89 88 88 88 90 83 32 26 31 29 65 64 13 13 12 10 10 10 8 11 10 12 13 19 17 22 29 33 34 39 47 58 68 88
81 84 86 91 95 94 92 91 91 90 90 90 89 88 89 89 49 22 43 64 60 67 17 12 12 12 10 11 10 10 11 10 10 10 12 13 20 26 32 34 47 74 78 78 82
76 79 82 85 92 95 94 93 92 91 90 90 89 88 88 75 33 15 69 70 68 56 13 9 8 10 10 10 10 11 13 10 9 12 12 14 20 26 30 33 44 73 88 86 82
78 77 76 79 87 93 96 95 93 92 91 89 87 87 85 43 17 20 67 70 71 25 11 10 9 11 12 12 10 13 11 10 10 11 15 20 21 26 35 44 47 63 72 76 76
81 81 79 76 80 92 95 97 94 93 91 88 86 86 55 26 15 30 80 66 24 19 12 10 11 12 12 11 11 13 12 12 14 16 18 23 25 29 40 51 57 70 79 79 75
80 81 84 81 81 87 90 94 95 94 92 90 86 90 41 30 11 21 22 21 15 13 13 12 13 12 14 13 14 13 13 16 16 20 23 26 28 29 38 43 55 66 75 88 72
76 80 81 84 85 86 88 90 94 96 93 89 86 54 39 25 12 17 19 15 12 12 13 12 13 14 14 14 12 12 17 16 17 20 22 24 39 30 34 42 41 39 53 81 81
76 76 82 83 87 88 90 91 93 96 92 87 86 48 39 14 11 16 16 14 12 12 12 12 13 16 16 13 13 13 16 23 19 18 18 44 68 31 31 36 33 34 45 64 60
78 75 77 78 87 90 89 93 94 94 83 82 68 57 31 32 16 13 17 14 13 13 14 12 14 16 14 15 14 14 18 22 23 18 19 31 66 31 29 35 36 35 35 38 48
78 76 74 77 83 87 87 93 79 83 68 46 40 48 30 15 10 9 17 16 16 16 16 17 16 18 14 13 16 16 15 17 44 20 19 19 22 29 29 33 37 33 28 38 46
79 76 75 75 81 84 77 39 45 49 45 31 25 19 12 11 16 14 13 19 16 16 20 18 20 20 14 12 11 14 13 15 21 17 19 21 18 30 31 29 36 38 32 32 32
87 78 76 75 81 85 72 40 31 44 39 23 22 21 17 14 19 13 14 21 21 22 18 19 24 16 12 11 12 15 15 14 13 13 16 15 14 14 27 30 29 31 32 27 27
87 82 77 76 82 72 57 38 34 39 41 23 19 19 17 17 19 14 18 18 19 21 19 22 17 14 15 13 15 15 16 15 16 15 14 15 14 13 18 26 30 28 27 28 26
82 84 79 81 78 38 45 33 34 48 44 20 25 23 19 16 22 11 15 16 18 22 18 19 15 17 15 14 14 18 13 16 17 18 20 15 23 24 15 21 26 29 28 26 26
86 81 83 85 60 56 44 42 45 58 42 14 18 19 18 21 11 16 12 15 20 19 18 20 18 20 18 16 14 18 17 17 17 18 19 16 16 20 12 16 18 23 27 25 24
84 85 86 69 56 56 58 61 58 54 40 16 23 30 31 24 14 11 14 15 14 17 16 17 12 14 15 14 15 14 20 19 19 20 30 18 17 20 16 12 12 14 19 23 22
78 84 85 59 55 44 73 88 55 41 14 16 21 26 28 27 21 15 19 24 22 27 25 18 18 14 15 19 17 18 22 31 30 34 34 17 19 16 28 11 12 12 14 20 21
79 83 73 73 46 63 92 97 43 17 18 18 17 26 32 22 24 19 20 22 18 17 20 24 27 16 16 17 19 20 21 33 82 42 26 21 21 14 11 11 11 11 12 12 18
80 61 59 72 65 56 98 93 45 16 11 16 21 30 30 22 21 20 21 19 16 16 23 23 21 13 14 14 15 21 24 18 32 29 31 19 16 12 10 11 12 12 17 17 15
74 70 61 61 72 84 97 84 39 16 10 12 20 21 27 26 22 20 21 15 16 15 16 18 23 15 16 16 16 19 19 28 27 42 46 22 20 17 15 13 12 11 13 17 17
87 94 50 66 83 98 96 62 40 19 12 13 20 20 19 24 22 20 21 15 14 15 14 17 22 21 22 25 20 23 27 24 23 28 44 42 22 15 15 13 12 12 13 13 14
94 98 68 65 99 96 89 49 36 28 21 18 23 22 21 20 26 22 21 18 15 15 20 20 22 30 26 16 14 18 21 23 40 33 32 38 28 14 13 13 14 13 13 13 15
98 93 71 67 97 85 57 49 32 26 24 23 26 27 29 24 29 27 20 16 20 18 22 23 25 36 26 22 20 23 22 20 22 26 36 65 31 13 14 14 12 13 13 14 15
98 99 98 94 64 56 53 49 43 24 22 22 22 26 26 34 28 29 27 20 23 20 43 35 23 27 34 24 20 25 20 17 20 40 36 31 22 17 14 14 13 13 14 14 14
98 79 82 97 82 58 42 38 37 31 24 22 26 24 28 32 29 33 30 27 32 40 30 27 35 24 20 16 15 16 18 18 19 21 31 24 20 18 15 14 13 16 15 14 15
99 51 68 57 69 56 53 42 32 25 23 31 30 26 32 38 34 63 39 38 34 28 31 28 35 29 26 17 16 17 14 13 14 15 17 16 17 13 12 11 12 13 16 18 20
95 39 46 56 70 59 54 43 35 28 25 22 24 25 33 37 64 46 41 44 43 44 36 33 41 37 41 22 23 35 22 17 16 14 16 23 18 14 14 13 15 15 15 21 27

GFSSW_sfc_rhum_042.txt.gz
RH
84 84 86 89 92 94 94 93 92 91 90 90 89 88 87 88 84 30 32 30 32 68 61 15 15 13 12 12 9 8 13 14 12 12 17 18 32 54 46 29 58 71 80 86 87
76 76 77 81 88 92 93 95 95 93 92 91 90 89 88 88 53 30 38 64 61 62 16 13 12 11 12 11 10 10 14 13 9 9 12 11 17 58 48 25 68 65 76 80 77
74 75 75 74 80 87 92 94 96 94 93 92 91 90 89 77 36 23 72 67 62 53 17 15 9 9 12 10 9 10 13 11 9 12 11 12 35 53 30 52 85 68 81 77 83
75 75 76 76 75 82 90 92 95 96 94 93 91 90 88 52 25 26 72 67 67 24 16 10 10 11 12 12 9 11 9 10 10 10 13 13 24 42 48 59 60 68 71 74 78
76 75 76 76 77 82 85 88 91 94 95 93 90 90 59 32 24 37 75 64 24 18 17 10 10 11 14 11 10 11 10 10 11 14 14 16 21 26 46 54 60 67 72 77 71
68 74 76 77 80 84 85 87 89 91 94 94 90 92 53 42 13 23 26 25 16 14 13 9 11 12 14 14 12 12 13 11 13 13 15 22 63 55 64 50 63 63 77 90 86
77 76 76 78 80 85 86 88 89 90 92 94 88 62 54 42 12 11 18 17 13 11 12 11 11 15 14 16 11 11 14 12 15 15 20 30 43 71 64 42 42 50 65 79 90
76 78 75 74 77 82 86 87 88 91 92 93 85 57 53 17 14 14 14 17 11 10 12 11 12 15 17 15 14 14 14 18 20 19 27 32 56 39 37 41 43 41 51 69 81
83 78 78 75 72 78 85 84 82 86 91 84 70 56 38 27 21 14 13 17 12 12 13 11 14 17 15 18 18 15 18 17 19 17 26 32 65 49 42 33 41 46 53 61 73
84 85 80 78 76 80 85 81 68 80 71 52 44 45 33 20 15 14 12 15 13 14 16 17 16 18 17 18 24 19 20 19 24 23 18 48 58 63 74 30 35 36 35 46 48
80 81 84 78 77 80 71 46 37 65 58 40 31 26 23 14 12 10 10 18 16 16 22 17 20 20 18 16 13 12 16 20 22 23 23 29 46 62 49 34 35 32 35 40 47
82 85 85 80 78 80 66 54 23 38 48 23 17 18 18 15 18 14 9 23 23 23 19 19 24 18 15 14 13 13 14 16 12 15 16 15 15 31 29 32 34 38 37 38 44
80 85 85 81 78 70 56 46 28 31 47 24 14 14 15 15 19 16 12 18 21 22 19 22 18 16 16 15 14 14 16 16 20 18 15 15 16 15 29 25 28 32 33 30 34
81 84 81 79 74 46 40 30 30 36 50 16 10 16 13 15 19 12 11 16 19 20 18 19 15 16 18 18 14 16 12 15 19 20 21 16 26 18 25 25 28 28 31 29 27
82 86 80 86 61 50 58 57 41 57 38 9 12 14 16 19 14 16 11 17 22 18 18 22 19 18 21 14 11 15 19 21 18 18 22 18 20 13 16 20 28 31 30 29 28
82 85 83 76 71 50 45 58 60 55 40 13 21 24 23 21 19 13 15 14 16 18 17 18 14 14 17 13 13 13 21 22 20 21 36 22 18 25 25 26 18 21 27 28 27
80 84 80 45 73 44 68 84 62 44 10 10 18 24 24 25 23 21 19 20 25 30 29 19 18 14 13 16 14 16 22 32 36 40 44 20 19 19 26 21 20 16 17 26 27
81 82 73 45 48 70 84 98 45 15 19 12 13 15 29 25 26 23 20 22 22 20 23 26 30 17 15 17 19 21 21 37 78 88 46 30 26 16 15 12 11 11 14 18 25
84 85 73 64 59 75 95 96 46 21 11 15 14 20 24 25 23 24 22 22 19 20 27 29 25 14 15 14 17 21 26 20 63 70 70 59 22 11 12 11 11 12 15 18 18
93 90 78 65 68 83 99 92 44 19 13 12 18 15 25 28 26 25 24 18 20 18 19 23 31 18 15 15 16 18 18 34 34 59 64 26 21 21 19 13 13 13 15 20 21
97 99 66 65 84 97 95 72 46 29 17 19 22 18 16 22 27 25 24 18 17 17 16 19 28 30 18 19 20 21 24 29 30 32 54 53 31 33 35 37 16 15 15 18 21
96 99 73 69 98 96 86 54 44 33 24 22 22 21 17 20 23 34 27 20 16 17 20 19 29 38 28 17 16 18 22 25 44 38 45 69 40 17 21 22 17 18 16 17 19
98 97 81 69 96 93 74 57 38 36 31 26 24 21 21 26 34 27 25 25 19 19 22 22 29 48 33 24 19 22 19 20 24 32 44 76 44 15 14 14 15 16 15 17 18
99 99 98 94 56 65 72 65 48 35 34 26 21 20 25 31 35 46 35 26 27 20 50 42 28 34 46 31 25 27 20 24 30 51 51 53 33 25 18 23 26 18 15 15 19
99 97 74 97 90 64 57 43 48 42 35 31 29 24 26 35 37 44 47 40 33 38 27 34 38 30 26 20 19 22 21 19 24 29 35 31 24 18 17 27 33 23 18 17 16
100 80 59 52 69 69 66 55 42 33 33 37 37 26 23 28 35 48 63 44 50 34 32 35 40 36 38 24 20 23 18 19 18 18 18 18 20 15 14 26 25 22 14 17 17
98 70 64 65 69 75 66 57 48 36 32 26 28 29 29 22 24 58 67 70 85 88 39 38 44 44 51 33 31 42 27 19 20 16 17 22 19 15 15 16 21 18 15 16 19

GFSSW_sfc_rhum_045.txt.gz
RH
81 80 80 81 84 87 90 93 94 95 95 93 92 92 90 90 89 55 50 44 48 73 62 27 24 23 23 23 20 20 23 24 19 17 27 34 58 52 47 70 78 74 81 89 91
74 74 75 76 82 83 86 92 94 95 90 95 93 92 92 91 78 54 43 71 70 69 23 22 20 19 23 21 20 20 26 20 13 18 19 39 53 54 59 61 80 87 90 88 86
69 72 73 76 81 83 84 87 90 91 87 94 94 93 92 88 68 31 68 73 67 61 24 22 22 15 18 19 18 18 21 14 13 16 16 18 43 51 56 75 72 77 95 89 89
72 66 68 74 78 83 85 86 86 88 90 93 94 93 92 80 42 37 69 70 67 30 25 22 18 17 19 18 15 19 13 12 14 19 20 35 48 58 67 81 75 81 78 85 88
65 72 74 72 75 81 85 86 87 87 89 89 91 93 88 58 43 41 72 66 37 25 25 23 18 17 18 16 19 17 15 14 14 17 21 45 70 71 84 74 70 73 81 84 87
80 69 68 77 76 76 82 84 86 87 88 90 91 94 87 71 26 39 44 38 25 24 21 22 16 13 20 20 22 17 17 16 14 15 23 41 53 52 70 68 75 79 94 86 87
82 80 74 68 75 76 78 81 84 85 85 88 90 82 82 67 31 31 26 31 24 20 20 17 15 24 22 26 21 20 20 17 15 21 30 38 41 48 52 52 61 79 86 91 87
83 84 82 77 75 77 78 79 82 82 82 85 92 86 86 33 33 30 27 25 21 17 16 16 18 23 29 22 22 24 23 28 17 24 36 37 58 45 44 56 58 73 86 91 91
83 83 85 84 83 80 79 80 80 79 82 84 94 90 77 34 31 26 21 19 22 18 17 12 23 26 25 32 34 30 30 24 20 25 36 45 60 44 46 55 55 64 77 93 88
84 84 82 82 83 83 83 78 72 76 78 67 66 80 55 28 23 20 20 17 23 20 20 24 28 31 31 35 43 34 28 38 34 34 42 54 52 49 48 56 52 63 73 84 79
82 83 86 83 81 83 80 68 62 89 77 71 60 44 33 24 21 19 19 17 22 23 30 29 36 36 30 26 23 22 21 22 31 28 33 47 54 51 49 76 55 65 59 74 77
81 82 86 86 85 81 88 80 55 53 67 45 50 47 36 30 31 21 14 23 32 35 28 31 34 25 20 20 22 24 23 22 22 23 33 35 51 50 60 68 47 46 59 58 66
82 81 85 85 85 85 75 66 46 45 70 43 36 28 24 17 19 21 18 18 34 34 31 34 29 20 21 23 23 22 22 21 23 25 22 26 35 56 52 55 41 39 41 46 56
82 83 84 82 88 73 67 59 62 57 95 41 19 21 18 16 25 16 18 17 30 33 31 30 22 22 21 23 22 25 18 21 25 30 36 27 38 50 52 54 44 40 41 42 50
84 84 84 81 91 84 58 52 53 75 54 16 15 10 14 19 22 22 16 20 26 28 28 29 27 26 26 23 21 25 23 25 32 35 35 29 35 31 38 49 47 46 44 43 45
84 85 84 85 91 77 60 60 83 90 90 20 25 27 28 20 21 20 20 18 21 26 25 25 19 20 22 19 20 17 30 33 36 39 53 33 36 36 36 29 36 37 39 39 42
84 84 83 64 83 65 67 86 98 94 14 11 31 29 31 32 27 24 26 27 29 40 40 29 25 19 18 24 23 22 32 51 54 63 62 46 50 36 28 26 31 30 36 36 36
85 86 82 66 64 66 90 98 98 26 30 17 15 21 36 30 31 30 31 33 24 30 39 40 43 23 19 22 24 27 31 61 69 88 69 53 53 33 21 22 22 22 31 33 34
86 94 90 76 71 76 98 98 66 36 18 13 12 18 36 32 33 32 33 33 27 23 36 41 34 21 18 19 20 30 36 34 77 79 85 66 51 38 21 22 15 16 18 33 34
97 97 87 72 78 88 100 88 63 39 24 21 27 24 29 35 38 37 36 28 28 21 22 37 43 24 20 18 21 23 25 45 65 86 98 59 61 42 29 26 22 17 17 23 27
99 99 79 75 88 97 97 86 58 42 38 38 26 28 26 28 25 31 33 25 24 22 22 25 35 39 31 32 28 30 30 35 46 56 72 69 50 40 34 36 28 23 23 25 26
97 100 81 71 100 94 90 70 58 38 39 43 39 33 32 33 33 29 48 38 26 24 27 25 40 43 32 26 24 24 28 34 67 57 67 78 60 32 31 30 21 20 20 23 26
99 98 87 75 97 95 73 70 59 58 47 41 45 36 33 34 40 42 45 42 42 35 27 28 33 47 39 28 30 28 26 28 35 54 60 79 63 28 24 26 24 22 22 24 21
99 100 99 96 70 76 79 72 77 53 56 51 41 37 35 39 31 51 53 46 49 56 70 38 32 35 45 40 37 41 32 27 29 64 55 68 48 39 30 32 23 34 38 33 25
99 98 86 97 96 78 68 57 67 70 51 42 45 44 43 47 41 44 53 55 54 56 58 51 42 37 28 30 31 32 31 27 29 31 51 51 44 34 29 27 30 34 37 34 23
100 97 78 73 74 85 77 70 64 53 55 49 48 43 41 44 38 43 62 70 75 75 83 63 56 47 47 34 27 31 28 27 28 35 39 35 35 27 25 33 34 28 29 32 21
98 89 73 75 89 94 82 72 63 56 50 40 42 46 49 42 35 58 77 82 86 87 90 90 79 63 52 46 43 56 39 29 31 26 28 40 30 22 23 25 31 28 23 22 22

GFSSW_sfc_rhum_048.txt.gz
RH
78 75 75 79 83 84 84 85 89 91 88 85 88 94 93 93 91 65 54 42 60 74 68 32 28 28 27 32 27 23 32 32 24 22 24 42 52 56 58 71 71 79 89 90 93
66 68 70 74 81 84 86 86 86 85 89 86 90 94 93 94 85 64 51 70 73 78 25 21 27 28 31 30 25 25 32 26 18 20 36 48 49 58 55 58 66 90 87 89 89
65 67 67 69 74 80 84 86 86 83 85 89 90 92 94 94 71 36 70 76 76 70 24 24 27 29 24 25 26 26 26 18 15 17 34 54 61 58 54 75 74 80 91 92 93
77 69 71 72 74 75 81 86 85 81 82 83 86 90 93 94 27 40 69 69 70 36 26 29 29 23 22 23 18 22 16 16 14 21 39 52 60 72 64 67 72 78 81 88 92
79 80 74 71 74 77 79 81 82 83 82 81 81 89 93 77 59 38 69 66 43 28 26 24 29 22 22 19 21 23 19 17 17 35 63 53 70 73 83 81 80 83 82 92 88
83 83 81 78 73 75 78 80 79 81 83 80 79 91 96 88 27 29 48 44 30 28 25 27 26 19 19 25 31 26 25 22 16 23 46 61 66 56 78 79 88 88 95 93 89
83 85 85 82 81 78 78 80 80 80 81 78 78 80 82 74 40 36 32 36 31 26 23 22 25 25 24 26 28 24 26 22 20 20 42 48 56 54 75 80 88 92 84 93 91
80 83 86 85 84 84 83 82 82 80 78 80 79 82 85 46 50 46 45 41 32 26 23 22 20 24 27 28 26 27 30 32 22 23 42 41 54 50 74 68 95 94 97 90 89
82 84 87 86 84 84 84 84 81 77 78 83 89 94 89 50 45 38 32 29 26 27 25 17 22 25 30 34 38 40 37 33 27 25 38 42 54 49 56 70 86 93 96 90 98
82 82 86 86 86 86 85 82 71 80 77 74 75 90 63 32 27 23 31 25 25 31 29 23 30 33 36 40 47 39 37 52 33 34 43 53 47 53 59 65 71 81 96 96 94
81 83 83 86 85 87 87 70 60 81 83 80 71 67 36 32 30 26 26 26 25 31 32 33 37 41 37 34 30 30 32 32 26 28 45 50 50 47 69 71 70 76 87 95 88
82 84 84 85 85 87 87 85 67 64 79 46 52 56 47 40 50 38 22 25 31 39 31 35 39 31 30 30 30 30 31 31 23 27 34 44 50 58 58 67 60 67 83 91 86
83 82 84 85 84 88 87 70 48 59 88 52 37 41 43 40 54 44 22 24 37 43 37 34 33 26 28 29 29 29 31 29 24 27 33 44 46 53 51 57 57 57 62 76 84
85 84 84 83 86 83 80 60 59 57 93 50 38 30 28 24 32 20 17 21 30 40 41 37 25 27 31 30 26 32 26 24 28 36 40 30 43 57 52 57 60 53 58 66 79
86 86 84 81 86 86 64 58 60 78 29 12 23 21 26 23 22 23 16 26 29 36 38 43 34 33 32 29 25 30 29 26 28 34 42 38 42 42 46 66 61 50 49 55 76
86 86 85 89 97 84 64 63 84 90 76 37 21 24 27 23 25 25 23 24 25 32 33 35 27 28 28 24 25 24 32 35 39 45 59 47 45 49 71 52 50 49 42 43 55
84 86 86 72 84 72 67 90 91 88 23 17 31 32 30 26 25 29 31 32 34 44 40 30 30 25 25 29 27 26 40 53 57 66 66 52 57 50 35 42 40 45 44 41 42
84 88 86 76 78 77 89 99 93 44 32 23 21 19 43 33 31 32 35 38 32 38 41 43 54 31 27 28 30 32 35 58 67 80 60 58 55 42 33 35 26 37 39 42 43
85 96 94 85 80 84 96 99 77 49 28 25 18 19 20 38 37 39 44 39 35 28 45 52 44 27 24 23 25 32 40 34 75 85 87 66 56 37 30 27 26 32 38 43 42
98 97 89 86 83 91 99 86 66 42 37 36 35 31 36 31 36 43 45 37 36 30 27 40 49 31 25 26 26 26 31 50 70 79 74 68 69 58 39 28 26 24 37 42 40
99 100 81 86 90 98 98 74 60 46 47 51 50 38 32 32 34 36 34 33 34 31 29 29 41 38 34 37 29 34 36 45 53 68 77 79 59 41 36 31 31 26 22 27 38
99 100 86 74 100 97 88 67 61 55 48 50 49 52 48 40 41 39 40 38 51 50 35 31 40 44 34 29 28 28 33 38 64 65 71 82 58 33 36 34 31 26 23 30 34
99 98 90 77 97 95 74 66 62 61 56 53 55 46 43 47 53 46 45 38 55 54 73 58 47 61 47 33 29 35 33 33 44 63 72 81 62 36 35 33 27 31 28 25 31
99 100 99 97 78 73 74 70 65 57 61 58 60 55 54 56 47 50 46 43 54 54 79 67 53 45 48 42 36 41 35 32 36 70 59 66 41 40 32 32 29 31 36 31 26
100 98 92 98 95 84 68 65 72 69 55 56 61 53 60 67 60 47 46 54 55 75 68 77 86 56 40 30 31 31 27 34 39 42 51 43 51 37 38 34 32 31 35 35 30
100 98 88 87 77 88 75 76 67 65 60 63 64 56 46 59 56 62 51 48 72 73 75 85 94 82 55 38 31 32 37 31 32 36 37 33 43 35 30 32 36 33 33 32 31
96 92 74 78 82 96 86 75 63 64 59 51 56 59 59 49 50 56 54 60 74 72 86 84 96 98 78 49 46 54 38 34 37 34 38 52 43 34 32 30 34 33 33 31 30

GFSSW_sfc_rhum_051.txt.gz
RH
69 66 70 74 78 79 80 82 85 82 81 81 85 88 91 92 89 75 58 43 68 76 66 35 31 30 30 33 30 28 36 41 31 27 23 53 66 60 62 75 79 86 93 93 93
67 64 66 70 76 76 78 82 85 83 81 81 84 88 91 92 95 79 57 72 76 75 27 25 30 32 35 37 30 30 37 30 23 20 22 44 50 56 60 62 85 98 95 94 94
73 73 71 70 70 77 79 82 82 79 79 81 84 84 91 91 71 30 66 72 81 70 25 23 26 28 34 30 28 30 29 24 18 19 31 54 65 63 58 67 73 85 95 95 93
73 74 73 74 76 76 79 82 80 76 76 77 77 81 90 98 17 42 72 74 78 45 26 30 30 27 24 22 21 25 20 20 19 26 47 63 71 73 67 69 77 76 94 96 95
79 79 76 76 75 80 79 82 81 80 78 76 76 78 89 83 65 43 67 67 47 27 24 26 27 22 21 21 24 23 24 24 23 28 48 59 75 70 86 90 86 90 95 96 96
82 83 83 79 78 82 83 83 82 82 82 78 76 81 86 88 31 36 55 50 30 31 29 26 23 23 23 22 30 28 28 27 24 49 58 64 73 72 74 90 94 93 98 92 87
81 82 83 84 84 84 81 82 82 84 83 78 75 77 79 70 49 46 39 41 35 29 27 26 25 30 30 30 28 28 28 26 23 31 50 52 63 72 73 90 96 95 98 95 93
75 82 84 86 87 85 83 83 83 83 82 80 77 79 88 49 59 54 56 47 39 35 29 26 24 28 29 28 28 30 35 35 26 30 38 44 53 48 91 94 97 98 90 87 85
82 84 85 86 87 86 84 84 86 82 80 79 89 90 88 54 55 49 42 36 29 34 32 21 25 29 31 35 38 41 36 34 28 29 48 49 54 48 91 91 98 98 98 95 85
83 83 84 85 86 85 85 86 79 83 78 72 76 85 62 41 32 30 43 32 29 32 37 33 32 35 41 39 49 41 41 57 38 30 51 56 50 66 82 85 95 95 96 97 98
84 83 84 85 86 86 84 76 64 79 72 82 72 70 49 36 36 36 30 33 28 35 43 33 37 44 36 35 33 36 38 38 34 26 39 37 51 51 68 80 88 90 96 96 95
84 85 85 86 86 86 90 87 70 68 91 62 58 52 52 48 59 39 33 33 36 41 39 39 40 31 32 34 36 37 39 36 30 26 42 43 47 54 72 65 72 76 91 94 94
85 85 85 86 88 85 94 76 54 60 92 70 53 45 29 50 59 47 41 30 35 42 40 46 35 29 32 36 37 38 38 35 33 27 42 48 40 46 57 61 67 68 75 85 92
86 86 86 86 82 88 89 69 52 63 94 49 54 35 33 39 53 31 31 25 32 34 45 40 30 31 37 34 34 40 31 31 33 37 41 36 50 36 54 64 68 64 73 85 89
86 87 88 84 86 91 58 61 58 78 40 14 30 25 32 31 24 28 21 26 31 42 44 50 40 36 35 32 32 36 34 35 36 39 44 42 45 37 57 64 62 64 62 69 83
87 86 86 93 97 90 77 70 84 96 79 37 25 36 40 33 26 25 25 24 26 34 40 38 34 33 34 30 31 28 35 39 48 49 61 43 46 52 51 47 52 49 57 61 76
86 87 86 79 88 82 78 91 99 95 33 20 28 31 32 33 28 29 32 32 34 46 45 34 36 34 31 38 36 36 44 56 57 67 67 47 64 55 37 40 41 50 51 55 61
86 88 87 84 85 80 92 96 97 52 43 24 23 19 40 28 28 31 36 35 33 39 45 41 50 32 31 33 37 39 41 62 68 76 53 62 63 43 36 32 37 42 47 46 52
87 96 94 98 84 87 95 99 82 60 40 42 28 29 26 32 38 37 40 41 28 33 44 51 44 31 29 29 30 39 44 36 69 88 89 65 53 40 36 35 35 34 51 52 44
97 98 89 93 86 94 98 82 68 50 51 50 44 34 39 33 37 37 49 42 38 30 31 42 52 36 31 30 31 30 36 53 70 75 81 63 70 52 39 35 28 27 46 52 47
99 99 84 84 87 99 96 75 60 47 49 61 62 56 52 45 39 36 34 41 39 41 32 32 45 42 35 41 37 38 43 50 53 67 66 71 58 53 46 40 33 31 29 42 53
98 100 92 78 100 94 86 64 55 52 52 57 59 56 55 50 49 41 41 41 52 54 55 41 49 50 36 30 33 33 37 44 58 62 74 80 51 37 38 38 36 31 30 28 43
99 98 95 77 98 96 76 70 58 60 60 61 62 62 50 51 48 52 49 47 42 58 63 62 66 63 44 39 37 36 35 39 52 66 64 72 58 37 40 38 33 34 30 27 33
100 100 100 98 86 73 89 83 74 59 64 62 64 60 62 61 55 57 51 42 38 62 77 66 74 72 71 54 42 51 36 37 40 64 60 56 46 39 36 37 34 35 31 30 30
100 98 93 99 97 77 70 67 76 68 56 60 62 63 67 74 66 64 50 50 52 72 77 77 93 85 83 68 53 37 36 39 40 44 50 44 49 37 37 36 35 31 34 34 34
100 100 97 94 83 88 79 79 64 62 57 66 74 67 63 64 58 62 56 54 57 64 82 84 88 95 83 66 51 46 35 31 31 44 43 38 43 36 34 35 39 34 34 35 34
96 91 89 97 94 91 83 74 72 63 62 54 63 67 69 60 55 51 56 60 58 58 71 90 92 96 94 83 87 68 48 37 36 37 39 49 41 35 38 38 38 34 35 33 33

GFSSW_sfc_rhum_054.txt.gz
RH
75 72 70 68 71 76 75 77 82 77 76 76 78 79 83 88 86 85 69 42 63 72 60 38 30 30 32 34 32 32 38 44 36 29 23 55 62 64 67 78 81 86 95 97 90
75 74 73 74 79 77 79 80 82 79 76 78 78 80 84 87 88 96 61 73 77 77 32 26 34 34 38 40 34 33 41 33 27 23 21 42 60 55 64 66 80 95 95 96 95
72 72 73 73 76 81 81 81 81 79 79 80 81 81 83 86 85 27 73 73 78 70 25 22 29 28 34 33 30 32 32 27 22 21 22 34 62 58 62 66 68 86 92 93 97
73 73 73 73 74 79 83 85 84 80 78 79 76 79 83 93 19 42 76 78 83 53 25 27 31 31 27 26 25 29 23 22 19 23 50 58 69 70 68 71 78 74 90 95 97
78 78 75 71 72 77 84 84 82 79 78 78 76 77 80 87 66 42 68 77 58 29 25 27 29 24 24 23 22 24 23 24 23 28 46 63 72 72 78 86 88 93 95 94 97
81 82 82 77 76 78 82 82 80 80 80 78 77 76 94 77 29 44 46 54 35 30 29 26 25 24 23 22 28 28 29 30 27 36 48 59 79 78 65 90 93 96 98 93 94
80 81 83 79 81 83 83 82 80 80 81 78 77 73 84 66 44 45 47 43 39 30 28 28 25 29 32 35 29 31 32 28 25 32 55 60 62 84 71 94 94 96 90 83 87
80 83 85 87 86 85 85 84 82 79 81 79 77 76 85 48 61 56 57 46 41 38 34 32 28 27 32 31 30 35 35 37 27 47 44 46 47 39 83 97 96 97 98 85 83
83 85 86 85 86 87 87 86 82 78 81 81 84 79 81 50 59 52 47 34 33 37 39 23 29 33 34 38 42 41 41 36 28 30 52 57 52 55 95 96 96 98 88 82 83
84 85 85 86 86 87 89 84 74 79 74 74 72 70 51 22 36 36 52 40 32 39 42 41 40 40 43 42 48 45 45 56 40 37 55 67 58 50 90 97 95 96 98 97 96
84 85 86 86 87 88 87 81 73 74 78 76 75 65 44 43 39 42 39 40 37 41 47 44 48 47 39 36 34 33 39 41 37 31 33 33 36 31 70 94 96 97 96 95 96
85 86 86 86 87 89 90 89 67 72 90 62 66 65 53 53 64 35 39 39 41 44 42 42 44 36 31 35 36 38 41 41 33 28 32 41 44 49 63 79 81 89 91 92 94
87 88 87 88 89 82 93 87 56 57 94 68 58 56 40 43 50 38 41 35 40 44 44 43 40 30 32 40 39 42 42 42 34 35 36 50 46 42 52 71 72 76 76 79 89
87 88 89 88 86 90 80 63 58 62 94 57 69 53 32 50 59 28 30 29 40 39 45 46 37 36 40 38 37 44 37 35 37 43 48 47 62 38 39 57 70 73 76 75 89
88 88 89 87 96 96 71 72 58 81 57 18 40 27 38 30 25 32 31 32 37 41 45 49 44 42 42 39 35 38 36 38 40 46 51 44 49 39 59 53 55 62 69 72 78
87 87 89 92 96 90 82 79 84 98 84 37 32 41 46 40 32 28 36 29 29 39 47 41 39 37 35 33 33 34 40 44 50 53 65 46 46 50 39 43 38 48 60 62 76
87 87 89 81 82 85 84 89 95 93 45 28 29 33 38 41 38 31 36 35 36 46 48 38 40 37 32 37 41 39 47 60 60 75 72 48 58 47 38 34 37 36 52 60 65
86 88 88 90 86 84 90 96 91 66 59 40 36 33 35 36 32 30 35 37 28 39 46 45 47 36 33 37 42 46 46 67 70 75 55 66 69 46 37 35 37 38 48 59 65
85 97 98 98 79 85 91 99 75 66 52 62 44 36 37 31 41 39 35 34 28 37 40 49 44 32 30 31 31 44 51 40 71 87 87 66 53 36 34 36 33 40 53 62 64
99 97 94 89 78 93 99 86 72 60 56 58 58 51 48 43 40 40 50 48 38 28 36 42 50 38 35 32 37 36 39 58 69 74 78 66 73 45 34 29 36 32 47 61 55
99 98 84 82 92 99 98 89 61 43 45 63 70 67 58 54 46 42 39 51 54 50 37 41 48 45 37 42 41 42 46 54 53 68 65 67 60 52 40 40 40 34 29 49 62
97 99 94 87 100 100 93 78 60 51 50 60 64 62 61 53 50 48 51 57 39 62 61 55 49 53 34 32 35 36 42 52 67 59 80 78 54 37 42 39 40 36 33 30 54
99 97 98 87 98 98 92 77 64 64 60 66 70 67 60 58 50 48 49 52 44 62 69 60 76 69 55 43 39 42 38 40 57 65 69 76 57 37 40 38 37 37 34 34 32
100 100 100 99 91 82 95 85 79 63 61 65 69 66 65 65 58 64 55 47 51 62 82 70 76 80 86 81 77 78 53 41 44 65 62 66 50 36 35 36 31 35 36 34 32
100 99 93 98 98 85 79 70 77 68 62 62 68 70 73 76 68 63 53 55 46 54 76 76 78 86 80 80 72 70 62 49 47 49 53 45 52 40 34 36 35 34 36 35 33
100 100 98 98 79 98 93 88 72 72 56 72 77 72 69 77 65 61 57 54 55 56 72 81 87 92 82 67 63 65 64 51 46 44 49 46 46 37 33 35 37 34 36 36 36
97 94 99 93 98 97 91 81 73 63 67 54 66 72 76 64 62 60 58 58 60 71 68 85 89 88 81 82 68 74 67 52 57 46 44 52 42 34 35 37 39 35 37 36 36

GFSSW_sfc_rhum_057.txt.gz
RH
76 75 74 75 79 81 81 80 82 78 76 75 76 77 79 84 84 75 60 33 59 72 61 36 24 23 21 22 21 22 25 26 24 23 17 31 36 48 50 50 64 68 74 77 77
70 70 71 73 78 80 82 84 84 83 80 79 78 81 82 84 81 75 59 68 76 77 26 24 26 23 22 26 23 22 27 23 20 18 17 20 34 38 44 45 54 67 79 86 79
72 72 72 71 71 77 81 85 85 77 79 79 79 80 82 80 70 24 76 78 76 71 24 19 27 24 25 26 24 25 23 22 18 18 16 17 34 37 43 44 44 56 67 84 82
74 74 74 74 73 74 81 84 83 75 73 73 74 77 81 83 11 32 74 76 76 57 21 25 26 26 25 24 22 23 20 19 15 17 24 25 39 49 45 38 56 60 66 84 84
76 75 74 73 74 76 82 83 83 78 75 73 74 76 76 68 40 37 60 72 63 34 23 23 26 24 22 18 19 22 17 18 16 20 25 44 44 46 57 53 66 72 78 83 81
80 80 78 76 74 77 81 82 83 82 81 74 75 74 79 64 22 40 41 42 38 27 25 22 20 20 19 18 18 20 18 20 22 20 28 40 48 58 49 60 72 75 81 84 84
80 82 84 80 80 83 83 83 84 83 82 74 75 69 77 58 32 35 44 36 34 27 26 24 20 20 21 24 21 24 26 23 20 20 30 45 41 58 52 69 72 74 72 73 74
78 84 86 87 87 87 87 86 84 82 80 79 78 71 75 42 48 54 48 41 33 33 32 24 22 21 23 24 25 25 26 27 20 34 43 38 30 26 52 68 65 74 82 77 72
82 85 86 87 88 88 88 87 84 78 80 81 83 71 64 44 58 46 43 37 30 32 33 25 26 27 27 28 30 32 25 28 21 26 43 41 34 32 72 68 63 72 74 72 70
82 84 86 86 88 89 90 86 76 78 72 71 65 54 44 20 32 36 48 39 27 36 34 35 33 32 33 28 29 33 32 31 25 31 39 40 35 29 50 68 67 66 75 74 72
81 82 87 87 87 88 88 77 67 65 65 71 64 56 42 48 42 40 42 41 32 34 42 42 42 41 31 30 27 27 28 28 27 24 23 27 25 22 25 65 68 69 73 77 74
81 85 87 87 88 88 82 78 76 72 91 61 63 59 51 50 66 43 34 38 39 32 39 40 48 36 29 31 29 28 31 30 26 25 25 22 25 24 32 39 51 58 69 69 68
82 84 88 88 89 80 85 81 57 61 90 66 55 57 52 46 53 43 37 37 35 40 40 41 36 32 31 33 34 32 33 34 28 28 26 32 30 25 26 44 49 57 57 59 64
84 87 90 89 80 84 71 68 64 64 95 58 65 57 40 43 49 29 23 31 36 36 41 38 31 33 33 33 32 38 32 30 30 29 29 30 36 30 22 26 37 42 56 55 61
85 86 89 85 89 85 72 76 69 83 56 23 41 28 38 33 25 33 25 27 36 38 39 41 43 37 35 30 31 30 32 32 31 33 37 33 35 29 32 28 24 27 41 52 53
83 84 87 88 92 81 78 79 85 92 73 41 29 41 44 38 32 33 34 27 27 39 41 31 34 32 29 32 30 32 31 36 42 40 49 37 34 31 26 24 22 24 29 44 54
82 84 86 83 86 75 81 83 91 81 44 44 40 31 29 30 40 34 40 40 34 46 54 39 37 31 31 34 34 32 38 42 48 56 48 40 39 32 25 24 26 24 23 36 52
83 86 86 89 82 82 85 88 82 51 62 45 43 41 33 34 35 33 42 43 32 34 37 43 47 37 33 35 38 39 34 46 58 56 39 51 45 28 27 27 30 28 29 33 48
84 95 96 94 89 88 91 95 70 53 53 59 49 42 39 35 36 38 36 37 29 31 38 43 37 29 31 33 29 41 44 34 51 69 60 46 39 28 22 24 23 26 27 30 40
99 97 92 92 92 94 97 78 65 56 51 55 61 54 54 47 40 40 45 36 49 31 36 40 44 33 30 29 31 32 33 45 52 50 55 48 47 31 26 23 24 29 26 31 38
97 97 85 90 92 99 96 88 64 47 44 57 64 65 58 53 42 37 50 37 40 50 33 39 43 40 37 35 34 36 38 44 40 53 51 50 41 38 32 28 28 29 29 27 30
96 99 93 93 100 98 96 91 65 53 46 55 61 61 60 51 44 36 43 50 46 51 56 52 46 53 37 30 29 30 37 39 54 50 63 62 38 28 33 32 34 30 30 27 26
98 92 96 97 97 94 99 95 62 61 57 54 67 65 58 55 45 44 48 44 45 43 77 63 65 60 48 37 41 43 37 37 51 57 56 67 42 28 32 32 29 32 28 29 30
99 100 92 99 90 83 93 94 77 63 56 58 66 62 60 60 53 57 50 41 49 42 81 68 67 66 62 63 67 72 58 52 44 58 46 52 39 29 28 30 28 30 28 29 32
99 99 88 98 97 96 88 77 78 74 60 58 61 65 63 70 64 56 48 49 40 58 64 69 69 65 70 68 69 58 55 52 50 43 50 42 42 31 31 29 25 27 30 28 28
100 100 97 88 95 96 98 91 71 67 61 65 67 64 64 68 58 54 52 50 49 53 59 57 86 78 71 58 63 58 49 42 45 42 42 39 39 32 35 30 30 30 30 28 27
95 96 98 81 81 99 85 78 78 66 62 48 57 64 69 63 60 58 59 59 58 62 61 66 85 78 59 71 63 60 57 46 50 46 45 47 33 29 48 47 40 32 29 33 32

GFSSW_sfc_rhum_060.txt.gz
RH
71 71 71 72 74 76 77 79 81 78 78 78 78 79 79 83 78 27 27 27 36 73 59 27 24 15 13 13 14 13 12 11 11 14 12 14 16 18 25 22 35 38 34 44 52
71 72 71 72 76 78 78 78 83 78 75 75 78 81 82 83 43 20 31 60 70 76 24 24 21 15 12 12 13 13 12 11 9 10 12 12 13 13 21 16 29 35 44 55 52
71 72 71 72 74 78 81 83 83 77 75 76 77 78 82 70 20 10 71 81 79 69 19 16 14 13 11 11 13 12 13 10 11 11 11 13 13 16 20 20 16 26 31 50 54
74 74 74 73 72 73 80 82 82 75 75 75 74 74 80 44 7 17 68 78 72 40 19 17 16 14 13 14 11 14 12 10 10 10 13 15 14 20 20 20 31 30 36 50 54
76 77 77 75 74 77 82 83 82 78 76 75 74 74 60 24 13 8 54 54 38 31 18 18 18 16 14 11 12 16 10 12 11 12 13 15 18 19 20 22 33 40 45 55 57
80 82 79 78 78 79 84 85 85 84 81 77 75 74 58 39 10 16 25 22 24 26 20 17 16 13 14 13 13 11 12 10 10 13 14 18 14 32 17 22 40 44 45 50 56
81 82 84 81 81 82 84 87 86 85 84 79 75 58 58 40 14 14 21 16 19 23 22 20 17 16 13 16 12 12 16 14 14 13 13 16 18 32 18 33 39 41 42 48 62
78 83 87 87 87 88 87 87 86 85 83 79 78 57 46 20 23 31 25 24 17 21 25 16 19 18 18 14 17 15 15 16 11 12 16 23 18 12 20 32 32 37 38 45 49
79 83 86 87 88 88 88 86 85 79 78 77 68 57 34 34 34 26 30 32 18 20 24 21 21 22 17 18 17 19 15 16 13 13 18 25 17 17 27 28 26 30 37 42 42
79 80 84 88 88 88 88 85 71 73 58 53 48 60 30 16 19 32 38 37 24 21 30 29 25 24 21 17 22 18 19 14 15 14 18 19 19 15 20 29 32 27 34 40 42
77 80 82 87 87 89 69 41 36 41 43 42 34 41 32 32 31 22 39 42 27 23 31 31 30 29 22 20 15 13 16 14 10 13 19 18 15 12 12 19 26 30 34 37 40
77 80 81 86 88 87 54 53 66 61 88 46 44 42 31 32 46 27 34 34 39 27 27 36 39 25 21 18 19 16 18 16 12 16 18 13 12 13 12 15 18 24 31 35 38
76 80 81 88 88 68 58 58 50 52 65 49 41 45 41 36 43 35 34 38 36 36 19 33 28 26 27 22 23 20 19 18 16 16 16 17 17 15 13 17 19 25 24 29 35
79 82 87 88 78 54 52 49 46 56 80 36 37 39 40 34 37 26 22 34 30 30 29 24 18 28 28 25 19 22 16 18 20 21 16 18 20 15 15 14 13 14 27 29 33
81 80 86 85 68 54 53 50 50 70 41 25 31 27 30 33 21 27 20 24 32 24 29 28 26 23 28 25 18 22 17 22 21 22 20 16 19 15 15 17 14 13 14 28 30
77 80 83 60 66 52 49 56 60 77 39 29 24 27 36 31 27 27 31 20 18 23 33 27 24 22 19 19 21 20 23 24 24 22 31 20 20 16 14 15 12 11 12 18 27
76 79 74 53 62 58 65 55 67 40 22 35 37 29 26 26 29 31 36 34 26 32 35 26 27 25 24 20 22 22 26 31 33 37 34 20 24 21 16 15 14 14 13 19 28
77 83 67 48 50 69 80 63 60 29 33 34 38 30 25 26 28 30 37 36 24 17 20 29 38 28 26 25 26 29 26 28 44 39 26 27 29 20 15 16 17 16 16 18 25
78 62 63 55 59 74 88 76 35 33 36 47 34 31 28 27 28 30 34 36 27 23 26 31 28 24 26 25 22 30 33 22 30 41 39 28 25 20 15 14 14 13 14 16 16
84 71 57 54 68 90 96 61 41 38 44 43 47 39 38 35 29 32 35 36 38 29 23 28 33 22 27 25 25 28 23 38 33 43 45 28 29 22 19 16 14 16 17 17 20
85 79 47 57 79 96 90 59 42 32 40 46 51 48 43 42 33 29 44 37 34 30 27 27 36 36 28 32 30 32 33 30 27 30 38 37 28 20 19 20 20 18 18 18 19
82 90 66 73 97 92 90 53 52 41 31 38 46 49 48 44 40 31 36 38 34 36 37 27 38 36 29 26 22 22 27 29 38 38 36 40 28 19 22 20 21 20 17 18 18
80 72 84 82 94 87 65 51 54 48 38 37 40 50 44 46 47 32 32 29 32 38 61 50 33 37 27 23 28 29 26 27 28 31 40 54 32 18 20 19 17 17 18 18 19
90 95 84 94 78 79 61 69 59 49 42 39 41 48 48 52 42 44 37 29 31 40 73 63 55 35 37 29 34 44 34 36 32 42 37 33 29 22 20 19 19 19 19 17 18
97 96 55 93 88 74 74 74 52 54 48 41 45 45 47 59 48 46 37 32 28 47 45 56 68 52 48 46 45 43 40 36 37 36 40 30 28 23 22 27 28 24 21 20 19
99 90 87 70 58 70 76 64 66 45 49 50 50 41 47 55 50 47 40 39 40 35 42 47 51 52 47 40 43 42 34 32 31 34 33 30 30 24 19 20 29 30 26 26 24
90 76 98 61 59 78 68 65 50 47 49 39 44 51 57 49 44 43 44 45 45 49 51 50 57 50 43 42 44 45 35 29 34 33 34 39 29 21 19 24 31 32 30 31 31

GFSSW_sfc_rhum_063.txt.gz
RH
70 71 71 72 74 75 76 76 78 77 76 75 75 79 78 82 79 29 15 22 28 64 63 19 22 18 13 11 9 9 13 12 9 9 9 9 10 9 11 12 12 18 21 28 38
69 70 70 71 73 75 75 77 80 76 75 76 78 79 80 82 45 22 41 74 71 65 24 17 21 17 13 11 10 11 12 10 7 7 8 9 9 9 11 11 13 16 20 30 35
69 70 72 72 72 73 78 81 81 77 75 78 78 78 80 66 30 13 62 78 81 66 21 12 15 14 14 10 9 11 12 8 7 7 7 8 9 9 12 14 12 18 15 20 34
73 72 73 73 73 74 82 84 82 79 78 76 76 76 78 46 24 11 57 71 71 32 22 18 15 16 17 13 8 11 10 8 7 7 8 9 8 10 12 14 12 19 21 23 35
74 75 76 76 76 78 83 85 86 83 81 79 78 76 50 30 26 11 48 40 32 27 22 17 16 16 17 11 8 11 9 8 7 7 8 9 10 12 12 10 12 21 29 30 36
78 80 80 79 78 78 83 85 86 86 84 80 78 77 46 36 16 12 12 10 9 21 22 15 15 13 13 11 10 9 9 10 7 8 9 10 11 10 12 11 14 25 28 32 36
76 79 82 81 79 81 84 86 86 86 84 79 79 55 43 25 12 10 14 12 9 8 16 18 14 14 14 15 10 10 11 10 9 8 9 10 12 14 9 11 18 24 26 30 41
76 79 85 85 85 87 87 86 86 84 84 80 78 50 41 14 13 16 15 16 13 10 10 18 17 20 18 13 12 13 12 14 10 9 10 10 16 10 8 16 18 20 24 28 37
77 79 84 86 88 88 87 86 84 84 77 75 60 49 32 29 19 14 14 17 19 16 13 11 18 21 21 21 19 17 16 15 12 8 9 12 15 9 13 15 17 17 22 25 30
76 77 81 84 88 88 87 87 64 71 61 38 35 50 31 18 12 20 24 22 28 35 20 16 22 25 22 23 26 19 16 14 13 10 11 12 16 11 13 16 18 16 17 24 29
73 75 79 82 85 87 72 32 28 39 31 28 25 33 21 20 19 22 24 34 27 30 45 16 24 29 23 23 21 16 14 14 12 9 12 13 12 12 10 11 15 17 18 21 27
72 75 78 80 85 85 63 42 49 52 69 34 31 30 26 23 29 24 25 31 39 50 39 31 25 18 19 20 20 19 17 15 12 10 14 12 10 10 9 9 11 13 16 20 24
72 75 80 85 86 71 42 44 35 45 55 31 26 28 29 28 30 26 22 28 40 59 51 44 23 22 20 21 22 20 21 17 16 12 13 15 12 10 9 10 10 12 12 14 20
71 76 84 87 74 46 42 35 36 48 67 24 24 26 30 30 31 18 19 30 42 56 58 37 24 27 27 27 24 24 16 16 15 16 19 13 17 12 10 10 11 12 13 14 16
74 76 84 83 53 48 40 38 42 61 47 16 25 21 24 27 22 24 16 28 37 39 34 42 23 21 28 26 23 24 17 16 16 18 20 19 16 13 10 12 11 11 11 13 16
71 76 80 49 54 48 37 47 52 90 42 21 18 22 22 19 25 23 23 19 26 48 38 30 22 23 21 17 20 17 19 20 20 22 33 24 20 15 12 12 12 9 10 10 16
72 76 69 46 51 48 47 55 59 42 15 22 24 21 20 20 22 24 34 35 28 46 51 41 33 24 22 22 21 18 24 33 34 36 36 19 20 19 12 12 12 12 10 12 14
74 80 55 39 44 50 56 55 56 19 18 20 24 18 18 19 24 27 31 36 29 26 37 38 46 31 23 26 22 22 23 32 45 42 26 18 24 16 12 11 11 11 11 11 17
74 48 46 46 48 48 74 66 30 20 18 28 18 14 16 20 24 26 29 33 28 28 32 30 22 17 18 25 25 23 27 21 29 37 39 23 20 16 14 12 12 12 11 12 12
48 52 46 42 50 70 90 61 28 24 31 25 25 19 26 25 26 26 30 33 35 31 25 26 31 18 22 22 26 26 19 30 28 46 48 28 31 21 17 15 13 13 15 15 14
53 72 39 42 58 93 92 51 31 23 29 33 27 30 27 30 29 29 52 40 36 32 35 25 31 28 22 28 30 32 30 31 25 28 41 42 28 18 18 18 17 16 15 15 16
57 94 46 49 89 74 75 47 45 28 25 30 31 33 36 35 35 31 31 34 36 34 54 31 31 35 47 21 20 25 30 29 41 52 34 43 31 17 24 20 17 16 15 15 16
77 59 60 72 91 79 57 45 37 34 29 29 30 28 28 34 38 31 27 25 29 38 54 48 33 44 40 41 23 26 27 31 31 36 56 62 35 18 18 19 18 17 16 16 16
89 99 55 85 63 63 53 56 42 32 32 27 27 25 28 36 32 37 34 26 26 29 63 56 56 37 33 30 21 31 26 26 28 45 41 43 34 24 20 19 19 22 21 18 17
77 84 57 85 68 63 54 55 43 41 33 29 33 33 34 41 36 40 34 30 27 41 32 43 85 72 35 34 32 21 25 25 31 34 42 36 29 22 19 21 24 23 23 20 19
96 71 55 55 54 49 54 66 49 44 34 39 44 34 28 34 34 43 36 32 35 28 38 37 66 89 57 38 36 37 32 26 27 26 28 26 26 19 20 16 18 25 26 26 28
58 58 80 61 52 64 62 49 41 39 38 35 38 35 38 36 39 45 42 41 49 49 45 44 44 75 86 43 40 53 37 31 29 24 26 32 27 26 20 18 22 26 33 36 34

GFSSW_sfc_rhum_069.txt.gz
RH
68 70 70 71 72 75 75 77 83 80 78 78 78 79 80 84 84 61 45 41 49 58 57 23 20 27 32 38 29 29 31 29 25 21 17 13 18 17 12 14 17 17 19 44 54
68 69 69 70 74 79 78 80 84 80 78 80 79 80 83 84 83 59 49 63 63 67 37 25 19 20 38 37 34 28 32 26 18 16 15 11 14 15 14 16 20 19 49 51 48
67 70 71 73 74 77 80 83 84 78 77 80 80 80 82 79 58 26 56 62 64 74 50 41 25 16 35 32 31 28 28 20 16 14 13 13 12 12 14 18 15 21 48 47 47
73 75 76 73 73 74 81 83 82 77 77 77 77 77 81 76 28 22 59 64 68 55 48 40 30 21 28 35 28 31 21 18 16 13 13 13 11 12 15 18 14 17 32 46 49
72 75 75 73 73 75 81 83 82 78 78 78 77 76 79 58 41 20 49 55 52 41 35 34 27 23 28 25 27 26 20 16 13 12 12 11 12 13 14 13 14 17 27 32 48
77 77 76 76 76 76 79 81 82 81 79 78 78 75 85 78 24 17 18 16 18 17 28 26 30 20 26 24 23 21 20 17 15 13 10 11 13 13 14 12 11 14 35 34 40
72 77 78 76 76 76 78 80 80 80 78 77 79 68 78 69 28 27 27 22 16 13 15 13 14 27 32 35 21 19 22 18 16 14 13 11 16 18 14 12 12 16 33 38 42
69 74 79 79 81 84 83 81 80 79 77 78 79 75 78 36 34 29 25 20 18 15 18 18 14 20 32 30 29 31 26 29 19 15 14 15 19 14 13 13 14 14 31 36 45
74 75 79 80 82 83 83 82 81 77 78 81 87 89 76 37 40 31 25 20 20 21 23 15 17 25 30 40 45 37 41 31 22 14 14 16 16 13 11 11 15 15 28 38 46
68 72 76 79 80 81 83 80 73 76 69 52 55 85 64 38 20 18 20 27 25 26 31 28 31 32 37 46 61 50 37 29 24 17 16 15 15 13 12 15 23 25 25 35 47
66 68 73 78 78 80 80 79 50 61 53 57 55 59 42 28 18 19 17 33 34 31 50 40 45 45 34 32 34 34 34 29 25 24 28 25 18 15 13 18 25 25 24 28 42
66 68 71 76 81 80 84 83 50 64 79 50 45 41 32 26 31 25 18 30 45 54 46 57 58 44 35 39 37 35 35 32 25 24 25 21 17 16 14 16 19 24 26 25 37
71 71 72 80 81 84 78 60 44 50 85 55 35 36 34 29 35 31 23 33 43 52 52 53 55 42 46 55 50 42 34 30 31 26 23 22 20 19 15 15 14 18 20 22 36
73 75 78 84 82 68 64 45 54 55 90 50 32 25 28 28 35 24 21 30 38 51 67 72 58 52 47 48 42 59 35 27 27 30 43 26 35 23 17 15 15 13 20 24 34
74 74 77 76 91 79 53 50 51 73 92 34 28 22 27 32 27 25 20 31 42 64 73 68 71 72 72 50 42 61 44 41 45 52 51 38 35 27 21 21 17 14 17 21 25
74 73 75 69 80 64 50 56 67 98 88 26 27 29 32 32 30 26 26 28 30 51 70 63 60 68 56 48 50 47 54 52 51 58 74 41 35 33 24 19 20 15 14 19 22
75 72 70 59 80 52 51 76 85 89 29 22 26 23 28 24 32 33 31 36 51 63 66 53 53 51 60 71 51 48 76 86 76 70 72 31 34 28 23 18 18 19 16 17 22
76 78 78 61 63 62 79 93 96 45 34 20 23 23 25 18 19 34 35 40 33 39 43 56 72 45 46 53 47 52 74 84 91 92 61 34 40 28 19 16 16 15 17 26 31
78 87 85 69 67 74 92 95 68 34 23 29 24 28 24 16 20 31 41 44 34 32 42 49 52 39 43 35 38 74 68 50 89 67 86 60 36 21 19 17 16 15 15 22 33
94 89 78 57 69 83 99 82 56 36 34 30 35 25 23 25 29 31 44 46 42 36 33 42 51 32 38 39 40 66 50 89 99 96 95 56 50 36 36 21 18 21 22 22 28
94 95 62 64 80 93 96 81 51 38 35 35 38 39 38 34 30 33 46 55 42 42 43 51 56 47 36 44 45 56 85 91 84 72 78 88 69 44 33 31 29 28 29 31 29
96 98 68 86 95 98 94 59 54 45 42 42 35 37 40 39 41 40 37 54 40 47 56 52 68 70 46 47 48 50 51 76 98 89 66 69 68 35 30 31 31 32 26 27 31
99 94 61 92 98 91 74 57 53 53 52 41 37 36 36 40 49 38 35 44 44 51 59 54 66 82 56 47 49 53 48 50 70 77 96 95 61 38 35 32 30 31 31 35 36
99 99 82 93 90 98 84 70 64 46 46 37 35 36 40 43 38 42 40 40 38 53 64 62 67 75 85 78 63 69 61 53 70 99 91 89 71 61 53 61 34 36 35 39 40
100 95 78 96 93 88 81 76 92 70 43 34 38 38 40 48 44 45 39 38 35 64 64 78 94 74 73 56 54 59 71 53 70 84 96 70 68 55 65 65 46 46 43 44 46
100 99 78 80 74 84 77 80 65 52 86 57 46 36 36 41 42 52 58 56 71 60 73 67 88 81 73 66 65 64 56 41 42 63 84 70 69 67 59 61 54 46 46 50 52
96 80 96 80 77 86 97 83 61 50 44 45 62 75 72 57 58 58 59 58 62 70 72 80 76 88 92 83 82 80 58 46 51 66 64 81 67 57 59 60 51 52 49 54 55

GFSSW_sfc_rhum_072.txt.gz
RH
68 68 69 70 72 75 77 77 80 77 76 76 77 78 80 84 84 70 48 44 61 68 64 28 24 33 40 46 41 38 52 53 39 31 25 19 18 14 14 23 23 21 33 43 57
66 68 69 72 75 76 76 78 79 77 75 76 77 77 82 84 86 72 52 58 71 67 35 30 23 20 45 46 44 47 50 46 30 24 22 18 20 15 16 17 22 37 64 59 57
71 73 74 73 72 73 76 81 80 75 73 74 76 77 82 80 80 37 51 68 70 71 34 37 33 21 32 44 44 43 43 33 26 21 19 21 19 15 14 20 20 28 68 63 63
69 70 71 72 71 72 78 82 77 73 72 72 74 76 80 83 9 24 64 71 67 66 57 52 51 31 28 39 39 45 32 28 26 22 21 20 16 16 15 16 17 29 57 59 60
69 74 75 73 73 73 78 80 79 74 72 72 73 75 80 77 60 29 49 42 58 52 51 48 42 27 28 28 28 38 34 28 25 22 20 17 18 16 15 13 13 33 52 57 57
69 71 75 74 72 72 75 79 80 78 73 72 73 73 92 88 29 26 25 27 28 36 29 39 36 27 26 30 31 28 30 28 25 21 18 18 16 16 14 13 13 34 52 53 56
70 72 75 73 71 71 74 78 80 80 75 74 73 68 78 75 38 35 36 36 25 19 17 17 20 22 28 40 33 30 31 24 22 23 22 19 19 20 12 13 14 14 36 41 53
72 72 75 77 76 78 78 78 78 78 76 75 75 82 88 46 51 45 41 34 27 21 18 17 24 23 27 31 34 38 39 42 26 22 19 19 25 16 14 15 15 15 31 40 48
71 71 76 78 80 80 78 78 76 77 74 76 91 96 88 51 52 38 40 34 25 22 24 17 24 26 28 44 51 47 53 43 32 21 20 19 21 16 14 15 15 16 24 42 48
70 67 73 77 79 78 79 77 75 77 71 69 63 90 68 43 31 21 26 25 30 30 35 32 33 37 43 54 66 56 51 54 37 23 24 29 30 22 18 16 15 14 23 38 47
68 67 70 76 76 77 76 89 62 63 59 65 66 68 56 38 29 26 23 22 40 33 48 44 50 52 42 38 42 43 45 46 39 29 32 32 29 24 21 18 16 25 28 36 46
71 69 70 74 77 77 87 83 61 58 78 51 54 52 42 40 46 34 27 28 46 56 51 62 62 46 40 42 47 47 49 48 35 26 29 34 32 25 20 18 16 24 30 36 50
73 71 72 78 79 79 72 60 51 51 82 60 42 41 46 39 44 35 30 28 49 58 58 68 59 47 46 49 50 47 49 50 48 31 29 33 36 30 24 17 17 22 25 29 50
76 78 79 80 74 73 73 52 50 65 93 58 48 38 36 36 44 30 25 29 45 55 66 72 68 57 57 59 53 56 40 48 51 45 52 40 65 35 26 21 18 18 25 30 44
78 78 78 72 87 91 61 51 52 75 61 30 30 25 31 34 30 28 24 31 48 70 72 69 78 80 73 59 48 58 46 62 56 65 67 47 55 38 26 24 22 20 20 32 43
74 77 75 75 86 79 62 58 76 91 65 37 33 34 43 37 35 28 29 29 33 69 76 67 67 71 64 58 51 48 68 66 58 64 83 49 48 44 30 22 20 20 19 26 44
73 75 77 70 90 69 67 88 92 98 29 31 39 34 40 42 39 32 36 37 55 68 79 68 74 64 60 67 61 65 90 87 80 83 77 40 43 38 28 23 23 23 20 21 41
74 80 82 70 79 80 83 92 86 46 44 30 34 32 43 28 35 36 40 46 38 50 51 58 66 66 59 59 73 66 90 95 91 93 80 47 49 34 23 18 18 18 19 27 45
77 96 94 87 83 84 95 94 73 49 38 46 40 30 31 22 28 39 40 43 36 39 50 53 58 49 51 45 49 69 92 67 94 88 91 65 50 30 28 24 21 20 23 38 48
97 97 96 64 80 84 97 74 60 41 42 41 56 40 45 43 38 38 49 52 48 38 38 49 58 39 49 47 50 60 58 90 99 96 94 61 54 56 40 35 29 36 40 42 48
96 97 75 72 84 95 97 82 56 42 36 59 65 60 42 44 42 43 62 62 45 47 49 64 60 55 48 64 60 84 95 94 82 81 97 92 90 52 54 39 38 42 44 47 50
97 99 73 84 95 95 88 70 55 45 45 46 52 54 44 42 44 41 50 62 50 50 61 61 72 91 60 45 43 59 78 93 99 89 81 94 88 72 72 55 41 44 45 50 55
98 91 76 85 99 96 82 70 62 62 55 45 51 50 44 49 50 47 52 51 50 57 55 57 81 94 64 62 54 60 54 75 82 88 98 99 85 75 80 61 51 48 55 58 62
99 99 90 95 93 94 96 90 88 62 56 51 51 50 47 51 46 50 47 56 52 55 63 62 71 80 89 80 73 97 66 67 87 99 85 90 76 86 80 77 68 54 58 58 65
100 95 89 98 94 96 92 84 80 74 67 67 55 51 47 55 52 52 51 49 58 71 70 73 81 86 78 69 60 64 67 75 91 78 92 71 78 67 82 87 81 56 56 61 69
99 99 94 95 84 91 82 70 62 63 96 80 69 81 64 57 48 59 60 63 74 64 76 75 86 88 85 67 66 66 61 67 82 78 87 77 75 74 86 79 82 59 61 70 71
97 92 94 81 88 92 94 82 72 74 84 84 71 92 90 68 79 63 62 60 62 67 79 79 83 93 95 81 78 88 69 59 73 62 72 93 76 84 83 75 65 70 66 72 71

GFSSW_sfc_rhum_075.txt.gz
RH
68 68 68 71 76 75 74 75 76 76 76 74 73 74 76 80 84 75 65 46 65 65 66 40 36 46 46 48 44 38 53 61 44 36 26 24 24 20 19 20 24 25 52 48 62
70 70 71 72 74 74 74 75 77 76 73 72 72 72 78 83 88 82 57 58 70 73 51 34 27 31 49 54 52 52 64 43 35 25 27 26 28 22 19 19 20 26 60 67 64
68 68 69 70 71 72 73 76 76 74 72 72 71 71 80 80 73 21 56 66 67 71 43 38 34 25 37 50 50 54 44 37 34 30 31 31 24 23 22 22 19 22 49 71 70
69 68 71 73 73 73 75 79 74 72 71 71 70 72 72 87 7 30 66 70 65 70 56 64 57 41 32 33 42 51 42 35 36 31 31 28 26 23 22 20 17 17 50 68 69
68 68 70 72 72 71 75 77 74 72 71 71 70 72 69 84 65 34 51 40 37 61 60 59 51 40 32 29 32 44 42 35 33 31 29 26 27 24 22 18 16 17 66 69 66
68 72 74 73 70 69 74 77 78 76 72 71 72 73 75 93 37 28 31 31 26 54 51 50 45 38 35 30 30 30 30 31 31 32 32 30 27 28 20 15 15 22 66 66 66
69 74 72 69 69 69 72 78 78 78 73 72 74 72 78 77 49 44 48 41 32 24 24 18 22 24 28 31 33 35 41 36 32 30 31 27 28 28 19 16 16 21 50 59 64
72 72 76 75 74 76 78 77 77 77 76 77 74 72 88 52 56 55 52 42 38 37 25 21 21 26 26 26 38 44 45 52 36 29 26 24 32 23 19 18 18 17 32 52 64
70 72 75 76 78 77 76 75 78 78 77 76 84 88 85 53 62 47 40 36 32 28 26 17 26 28 29 38 55 56 57 52 41 26 26 26 28 23 19 18 19 18 21 43 51
70 71 74 77 78 77 76 79 80 76 73 71 69 91 70 43 40 32 35 35 35 32 35 33 38 38 45 58 60 64 60 64 47 34 31 33 34 29 25 26 25 22 19 36 44
72 71 73 77 77 76 80 84 69 65 60 66 66 69 52 44 32 30 28 26 38 33 44 47 48 52 45 42 47 48 52 55 49 37 40 40 36 31 29 30 28 24 20 29 45
72 71 71 75 78 77 73 72 61 66 93 58 54 52 50 47 54 37 30 35 35 58 50 59 64 46 40 40 47 51 55 55 46 37 38 39 39 31 27 29 25 22 20 22 50
73 72 73 78 78 72 74 66 52 56 90 58 43 44 46 45 52 42 31 34 48 54 60 62 55 54 50 53 56 57 56 56 53 46 39 46 44 34 27 27 25 19 18 27 49
74 75 82 80 68 86 81 58 54 64 99 57 49 44 41 42 53 32 30 31 42 60 65 67 59 60 61 62 59 71 46 46 60 65 67 44 68 44 36 31 26 22 27 34 52
75 73 81 74 92 91 68 60 58 79 74 29 41 30 35 38 32 36 29 34 54 72 72 69 76 81 78 64 56 66 54 68 66 74 69 64 68 48 35 33 27 23 21 28 45
74 72 77 78 94 86 73 70 84 90 56 33 38 42 42 38 35 30 29 30 37 68 79 69 72 71 71 62 58 49 75 79 70 68 98 65 58 59 41 30 24 22 24 23 36
73 74 77 78 89 83 81 90 89 90 35 42 41 40 46 49 41 33 35 38 51 71 79 72 80 71 65 73 70 64 87 90 94 96 87 50 55 45 34 28 26 24 21 23 36
73 77 84 74 88 87 90 90 96 44 46 40 40 43 48 44 45 37 40 45 40 56 61 68 52 79 67 67 78 77 82 92 92 93 75 47 58 41 27 23 28 28 24 23 27
78 95 97 92 88 91 93 95 64 58 47 51 43 44 43 37 39 38 44 46 40 46 52 56 54 59 64 56 63 90 96 69 99 92 95 72 53 37 37 36 37 47 35 30 43
96 98 96 82 87 84 84 74 71 48 46 43 59 60 60 50 46 47 46 48 45 40 40 46 58 45 56 56 62 74 64 96 99 96 96 71 56 72 73 68 52 53 59 58 62
95 95 71 84 88 94 91 83 64 45 47 57 63 70 85 59 44 50 55 63 50 58 47 60 56 55 64 78 82 86 92 94 86 87 98 95 95 74 94 85 64 61 68 76 62
96 98 71 84 94 93 99 78 59 58 56 60 55 51 89 79 49 55 50 62 63 54 62 61 78 90 70 52 54 74 80 94 99 94 89 99 86 74 85 83 63 68 74 81 79
96 96 75 81 99 97 82 75 68 65 65 61 54 47 58 93 90 62 60 52 54 51 61 55 77 85 68 69 62 77 72 80 86 93 99 98 85 76 76 78 71 68 78 77 80
96 99 83 96 93 95 96 88 68 62 65 66 63 58 64 77 70 59 68 42 52 57 69 62 73 76 81 84 75 90 74 75 87 100 97 95 88 90 83 83 80 68 73 79 80
100 96 86 98 91 88 91 92 90 80 53 65 70 64 66 77 62 71 56 54 66 68 75 68 69 89 82 77 71 70 69 66 92 96 99 74 72 68 84 84 83 81 70 71 75
100 97 90 94 88 90 83 82 78 81 87 74 75 72 83 92 66 64 59 62 71 66 76 76 84 89 85 70 71 65 57 58 59 74 86 90 83 70 80 85 90 86 79 74 76
95 96 94 81 86 93 92 82 72 62 70 68 87 98 91 81 73 82 78 69 69 71 74 75 82 89 89 79 78 78 72 51 56 68 70 85 74 82 90 89 90 90 80 79 78

GFSSW_sfc_rhum_078.txt.gz
RH
68 69 68 69 71 74 73 73 74 75 74 73 72 72 72 77 82 85 75 37 67 66 71 44 41 51 49 53 50 43 51 62 44 37 26 27 30 24 22 21 23 26 48 53 73
68 67 67 69 71 72 72 74 75 74 72 72 72 71 72 79 89 94 58 54 66 68 46 38 34 43 52 62 58 53 66 38 37 31 28 29 33 26 25 26 26 24 43 70 77
68 68 68 68 70 71 72 73 73 72 70 71 71 71 75 80 71 15 62 60 64 72 58 37 30 26 40 60 56 66 53 41 37 32 33 38 31 26 26 29 24 24 28 76 81
68 68 69 70 70 70 71 76 71 71 71 70 69 70 76 87 7 45 60 69 69 71 54 65 55 39 34 34 44 58 49 42 37 32 36 34 34 29 27 27 23 21 21 63 78
69 70 72 72 69 68 70 75 71 71 71 71 70 71 78 87 63 35 45 40 47 62 56 62 53 44 36 32 34 44 41 40 38 37 37 33 35 31 30 25 22 22 24 57 72
72 72 74 71 68 67 68 74 77 74 73 72 72 69 92 89 38 33 42 40 30 60 56 58 51 44 41 37 34 30 29 30 32 34 35 36 33 38 34 25 24 20 20 48 73
71 73 73 71 69 69 70 76 77 78 75 76 74 69 84 71 48 49 54 47 37 31 33 27 33 26 26 30 29 38 48 44 42 38 39 36 39 39 29 24 23 21 20 46 74
70 72 75 75 74 76 78 77 77 80 81 81 76 73 91 49 54 55 54 50 46 38 33 24 22 26 28 28 35 46 54 62 42 40 32 30 38 28 26 24 23 22 21 42 71
72 73 76 79 80 79 78 77 79 79 78 79 84 87 83 51 61 52 48 39 34 37 33 19 27 32 32 38 48 59 67 58 49 33 33 33 35 29 25 25 24 23 22 23 57
73 72 73 78 79 79 77 78 77 80 76 72 68 90 64 39 43 35 39 41 31 32 35 33 42 41 51 49 54 66 65 72 62 42 44 42 41 36 31 32 31 31 29 24 30
70 71 71 75 76 77 79 75 73 76 72 70 67 76 54 40 36 33 29 29 35 37 43 46 48 54 47 47 42 52 58 62 60 42 47 43 44 39 35 35 34 32 32 30 26
71 71 70 72 75 72 71 70 65 70 94 66 66 64 50 46 61 41 34 34 44 55 47 56 62 47 40 40 43 46 55 61 50 43 45 52 51 40 36 35 31 28 28 28 28
71 73 72 77 73 76 90 72 58 64 98 69 47 46 47 47 59 51 37 35 38 51 56 59 46 51 48 53 56 61 65 63 58 50 52 54 50 42 33 32 30 29 26 24 24
75 74 78 81 73 91 83 66 63 74 97 52 48 48 44 45 62 40 33 31 39 46 62 63 50 51 64 64 61 76 56 55 56 75 75 60 80 51 43 37 33 29 28 25 32
76 74 76 76 90 84 64 70 63 86 38 24 47 35 42 53 38 38 32 36 45 62 69 69 76 80 76 65 60 69 61 72 74 84 88 76 85 62 44 42 36 31 28 25 38
73 74 72 84 95 84 82 76 85 66 32 39 42 43 44 42 39 33 34 32 43 70 76 66 72 70 68 65 63 58 73 78 82 83 94 69 79 68 47 37 30 27 24 25 30
73 73 77 83 91 86 88 88 67 75 34 50 50 38 43 47 46 36 39 42 55 64 67 68 78 74 67 74 74 77 82 94 96 95 86 57 75 59 36 31 31 35 38 33 27
75 76 85 83 92 90 93 81 62 44 54 48 44 43 55 45 45 42 43 49 43 54 74 73 49 80 70 67 79 90 84 91 96 97 92 52 66 48 48 54 46 51 57 57 35
76 94 94 91 89 94 91 97 55 69 53 55 48 68 59 55 58 45 47 48 44 49 55 60 52 69 71 64 64 80 98 84 99 88 96 73 58 54 69 73 62 68 75 82 78
96 96 85 84 91 92 93 73 70 54 53 56 72 74 84 79 76 61 51 46 42 45 40 46 56 52 62 62 71 75 69 99 99 97 95 74 76 85 82 80 73 82 90 90 77
94 88 70 89 92 94 97 81 72 51 60 69 70 69 61 74 87 78 57 62 71 60 45 53 53 58 69 81 87 87 91 93 94 98 95 97 90 78 88 86 76 79 77 85 81
96 92 67 90 96 93 99 80 61 65 61 66 64 62 68 77 75 94 87 79 78 78 65 63 74 78 69 57 65 68 86 91 99 99 96 97 88 84 86 72 77 80 82 84 87
96 98 80 84 99 96 79 75 68 70 68 68 70 62 59 75 89 90 98 74 63 85 80 62 84 76 72 70 69 90 88 85 89 98 96 98 86 81 86 74 74 80 78 83 83
94 98 80 95 88 95 98 90 81 62 69 71 71 68 72 81 76 85 94 82 68 65 76 60 75 66 69 68 80 87 68 64 91 99 96 94 81 80 88 85 78 86 80 80 82
93 95 86 99 97 88 84 88 95 85 71 71 73 76 79 89 81 96 94 97 78 67 75 63 71 87 84 76 79 78 77 72 76 82 98 75 77 67 79 83 89 85 74 79 80
100 96 96 94 90 86 80 80 82 84 83 77 96 77 81 93 79 91 76 87 84 64 78 76 91 86 76 71 65 60 45 52 58 64 79 82 80 63 77 84 89 90 74 77 77
99 97 95 82 87 91 90 74 72 72 67 60 72 77 82 76 77 73 70 81 84 72 78 76 83 83 82 71 68 55 64 47 55 54 62 77 69 70 81 86 88 91 88 82 80

GFSSW_sfc_rhum_081.txt.gz
RH
68 68 67 68 69 71 69 70 73 72 71 70 71 71 71 72 79 74 54 30 57 62 65 40 39 40 37 37 33 29 28 29 26 24 17 19 18 16 16 16 16 15 23 34 53
68 67 67 68 68 70 71 71 72 71 70 71 70 70 71 76 78 75 50 52 64 65 38 29 32 38 36 38 39 33 36 27 25 21 20 18 19 16 18 18 18 18 18 53 65
68 67 68 66 66 70 69 70 70 70 69 70 70 70 74 76 54 10 70 61 62 66 39 27 23 27 27 40 40 41 33 32 27 24 22 22 22 19 20 23 20 22 18 26 53
69 69 70 70 69 68 70 74 69 68 69 70 71 71 74 73 7 34 54 63 65 60 43 38 31 23 24 25 32 34 41 31 26 22 23 23 19 21 21 23 19 19 19 19 26
72 72 72 70 70 68 71 75 70 70 71 72 72 70 73 68 41 31 44 42 54 59 40 53 44 36 34 29 26 37 31 29 27 27 28 28 30 30 27 23 20 20 22 23 23
72 71 72 72 70 69 70 75 76 74 74 75 74 67 84 73 30 31 44 37 30 52 46 50 45 37 37 32 32 29 26 25 26 28 27 28 25 27 24 22 22 23 21 21 21
70 71 73 72 71 70 71 77 78 78 77 80 74 66 81 63 45 44 48 42 30 34 44 46 40 32 28 24 24 27 31 28 30 30 31 27 31 33 24 22 25 22 19 18 24
73 73 74 74 74 74 78 78 80 80 81 79 75 68 80 47 46 53 51 46 43 39 30 24 20 25 23 22 25 28 33 32 32 33 30 30 31 21 19 21 20 19 19 19 17
72 72 72 78 79 79 78 79 78 79 79 76 76 74 70 48 52 44 45 42 36 40 34 23 22 26 26 28 31 38 31 47 38 30 30 30 32 24 21 22 22 21 19 18 19
68 68 70 73 77 77 79 76 75 79 75 70 66 76 55 37 41 35 43 42 34 35 33 31 30 32 37 32 35 35 46 47 45 32 30 33 34 30 27 27 29 25 23 24 22
67 69 70 69 72 78 75 62 61 60 64 57 52 58 41 34 35 33 27 29 30 32 39 35 36 40 34 37 29 32 37 38 39 34 36 33 31 28 28 29 29 26 24 23 22
70 72 71 71 73 71 72 68 65 65 92 61 66 61 48 40 53 41 32 36 40 49 41 48 48 37 35 35 38 38 40 40 38 36 37 37 37 32 31 30 27 26 24 22 21
73 74 73 75 68 75 80 65 56 63 94 69 50 52 44 51 64 51 37 33 35 50 49 55 40 45 40 41 44 45 51 52 51 43 41 44 40 29 26 26 25 26 24 22 22
76 74 75 76 68 80 71 60 66 71 71 30 41 43 44 45 60 41 37 31 38 39 53 53 40 45 52 52 51 64 49 50 55 59 62 47 60 39 32 29 28 26 27 25 23
72 73 75 74 81 79 56 71 68 80 16 17 46 33 42 45 36 36 33 33 37 49 57 50 66 67 55 49 51 58 52 57 59 63 68 56 64 43 37 35 30 28 27 25 25
71 72 72 79 87 78 77 78 74 39 14 30 37 33 34 39 40 32 34 32 35 52 67 46 61 62 56 57 54 52 59 61 65 66 82 53 56 47 39 34 30 25 25 29 31
73 74 77 81 73 82 82 69 22 20 32 52 50 36 39 46 42 35 38 40 49 64 66 60 66 63 59 60 63 62 69 69 74 85 61 47 60 48 43 61 54 55 55 54 55
74 77 78 77 85 88 77 57 18 47 61 45 40 44 50 60 54 48 41 45 39 44 58 57 46 68 62 53 55 72 65 67 80 76 69 54 60 49 62 57 60 64 68 67 66
74 84 80 79 86 82 81 53 49 66 54 52 40 69 66 54 61 59 53 43 39 44 46 55 43 62 65 57 52 77 82 66 92 75 88 54 45 58 56 60 60 66 68 75 75
89 84 77 85 87 82 85 56 58 53 57 56 59 60 54 46 48 61 64 51 72 42 40 41 46 49 63 56 61 70 66 98 98 86 79 57 60 67 78 74 70 75 78 82 82
87 76 70 83 84 91 88 67 63 52 56 64 65 56 46 58 69 70 71 72 82 77 53 42 46 61 62 66 68 79 95 87 93 92 77 74 62 76 82 83 88 81 82 86 88
93 88 65 89 89 92 86 74 63 64 57 59 65 65 67 70 84 78 76 83 84 96 78 54 60 60 64 54 55 65 76 72 89 86 91 86 70 76 84 83 84 78 79 82 85
96 92 75 82 95 86 68 73 67 65 65 65 61 60 54 66 77 71 79 75 90 98 92 76 74 74 67 70 76 80 82 86 83 90 85 88 61 71 72 76 81 82 80 81 83
95 93 70 92 79 92 92 85 78 61 62 63 67 62 68 74 67 79 79 74 83 92 90 82 77 64 57 62 62 74 62 56 82 93 97 81 62 56 68 74 84 86 80 81 82
93 91 81 92 90 78 78 79 80 78 67 68 70 85 78 83 74 75 72 85 68 80 84 84 93 78 66 63 68 68 57 50 54 60 73 46 53 48 56 69 88 84 81 80 83
95 90 90 86 84 76 69 66 60 71 74 60 71 70 64 72 69 86 80 76 92 88 99 87 93 85 70 60 49 44 35 37 43 47 50 52 59 48 54 64 86 83 83 85 86
96 89 90 78 82 82 81 62 59 64 59 55 64 74 73 66 87 95 86 80 91 99 99 79 80 69 55 56 49 40 43 37 46 54 60 70 56 48 73 81 88 86 81 89 92

GFSSW_sfc_rhum_084.txt.gz
RH
66 66 66 66 66 68 69 69 70 70 70 70 71 71 71 72 76 39 30 26 36 55 62 30 29 24 17 16 18 14 17 17 14 15 13 11 11 9 9 10 8 10 12 14 23
66 66 66 65 66 69 69 69 69 69 68 69 70 71 72 76 54 30 36 49 61 64 21 24 22 24 20 19 19 18 19 16 13 14 14 12 11 10 10 11 13 11 10 12 21
66 68 68 68 68 69 69 70 70 69 68 69 71 72 76 66 35 12 65 65 57 55 22 15 15 20 19 19 21 20 20 16 16 16 13 13 12 11 12 15 12 13 10 11 15
69 70 69 68 68 70 70 72 70 69 68 72 73 73 74 49 10 24 48 58 59 36 24 18 16 19 17 18 15 24 19 18 15 14 15 15 13 14 13 15 12 10 10 11 14
71 71 70 70 69 69 70 73 70 70 72 73 74 71 55 35 17 18 38 31 31 32 25 19 17 14 16 14 12 19 14 13 15 15 15 14 15 15 14 13 12 12 13 16 16
71 71 72 72 71 70 69 73 74 73 75 76 75 71 56 36 19 20 22 21 19 26 24 26 22 19 22 22 20 16 20 17 17 18 17 19 17 15 16 13 14 14 14 14 14
72 73 74 72 71 70 69 74 77 77 77 82 76 58 57 31 22 22 24 19 17 20 23 24 26 23 20 23 18 20 21 16 15 16 19 18 23 22 14 12 14 14 14 14 16
71 71 71 72 72 72 74 78 79 78 81 78 75 55 49 29 25 31 27 26 19 18 19 18 22 24 22 17 20 23 20 22 13 20 22 24 23 14 14 14 15 14 14 13 12
66 66 69 74 76 77 78 78 75 77 79 75 62 59 35 34 33 29 31 28 26 29 24 18 17 20 20 22 22 23 21 18 20 19 19 21 22 17 16 17 17 15 14 13 13
65 67 69 70 75 77 80 74 73 77 62 56 48 65 39 29 31 29 27 28 25 31 26 25 21 24 22 21 22 21 25 21 24 18 20 21 21 17 15 18 21 19 16 15 15
66 69 71 70 72 76 58 36 30 41 35 28 25 34 24 20 21 23 21 25 22 26 21 22 24 25 21 24 20 19 20 21 20 17 24 25 21 18 16 15 18 19 18 16 16
69 72 71 71 72 67 42 44 51 53 54 38 38 40 35 33 38 24 24 27 28 32 26 31 28 17 17 21 26 24 25 24 21 22 29 27 26 21 19 18 18 18 19 18 17
73 72 73 74 68 53 47 51 44 50 59 33 33 37 33 39 40 33 27 26 29 30 35 32 26 28 27 30 32 30 30 28 31 32 31 33 28 21 20 18 17 17 17 16 17
72 72 75 77 53 46 47 40 43 58 33 14 36 33 30 34 44 28 27 23 28 29 30 34 26 36 33 32 30 32 30 38 40 42 38 32 37 22 22 21 20 20 19 17 16
70 70 72 74 50 36 40 43 48 68 12 20 33 25 13 36 30 30 26 28 28 30 34 33 38 38 37 32 35 38 40 42 43 44 44 38 40 21 23 26 24 20 20 19 17
70 71 72 54 50 42 46 52 62 30 11 20 28 21 21 25 29 26 27 27 22 28 30 29 36 47 38 38 30 38 46 43 43 46 65 37 35 22 27 41 39 35 32 30 28
71 71 59 48 46 51 55 49 19 12 16 31 33 22 25 36 30 32 32 35 35 39 36 28 35 30 45 44 44 43 46 42 57 72 42 34 39 30 40 44 46 47 44 41 40
71 66 66 49 53 61 54 23 13 28 33 29 28 18 27 38 28 39 33 35 30 32 33 37 43 40 41 40 34 42 36 43 52 45 35 36 42 36 42 41 41 42 45 46 49
68 48 53 60 64 58 36 24 20 38 37 37 20 21 22 31 20 32 40 39 32 30 44 40 36 43 49 42 35 52 62 43 66 52 58 31 30 42 39 43 47 48 51 55 59
42 47 54 64 67 46 38 33 37 37 37 33 26 30 30 23 20 21 30 67 82 61 61 41 42 40 50 47 47 50 43 80 70 73 57 31 35 42 55 61 56 52 55 62 68
48 43 52 59 60 38 61 34 38 36 40 43 39 39 32 37 36 36 32 51 76 67 68 41 37 49 52 56 47 66 75 75 77 77 63 46 41 54 67 69 58 51 63 71 77
59 76 50 60 59 55 49 54 58 44 38 45 47 47 49 45 48 51 48 46 66 79 93 54 49 42 45 46 38 42 53 57 69 75 72 81 49 52 60 56 52 71 64 72 76
59 45 47 60 86 58 52 52 49 44 42 43 45 41 41 50 58 43 47 47 59 83 100 92 56 52 54 53 50 55 64 76 76 71 69 80 54 45 48 49 63 67 64 74 79
67 86 51 49 48 65 69 57 51 42 44 48 46 45 53 54 45 58 48 40 65 72 77 94 85 52 45 48 49 61 51 50 59 81 68 56 41 32 28 33 58 70 66 72 81
66 76 60 81 61 52 52 54 45 52 42 45 44 74 63 59 52 52 54 65 50 71 99 98 88 68 46 41 40 41 41 38 42 46 50 33 26 28 34 43 52 70 71 76 81
95 58 50 48 59 53 51 42 40 41 55 47 51 42 51 53 49 59 58 64 72 91 100 98 96 95 80 44 34 33 24 23 25 26 30 36 38 32 37 42 76 73 75 80 84
83 63 56 59 53 60 60 41 42 45 45 42 46 52 50 44 54 58 58 65 82 91 100 99 68 73 80 42 33 35 31 32 37 38 41 49 43 38 51 82 83 85 81 85 88

GFSSW_sfc_rhum_090.txt.gz
RH
66 66 66 66 69 69 70 70 72 71 71 71 71 71 73 76 80 46 35 34 30 48 47 15 20 19 15 16 14 16 23 23 19 15 13 9 8 7 6 7 7 7 7 10 18
66 66 67 68 70 70 70 71 72 72 71 71 70 72 75 80 62 43 33 52 56 53 17 11 16 19 16 16 15 16 25 22 14 12 11 9 9 8 8 8 10 9 10 10 13
66 67 69 69 69 70 71 72 73 71 69 70 71 73 78 71 45 23 64 59 57 54 15 10 12 15 20 16 15 15 19 16 14 12 11 10 11 10 10 12 11 13 11 10 10
68 68 71 70 70 71 73 75 72 71 69 69 71 75 78 60 22 24 60 58 56 27 22 20 11 15 17 19 15 16 13 13 13 12 13 12 11 13 12 14 10 10 10 10 13
71 72 72 72 72 72 72 75 71 71 70 72 74 76 60 40 29 31 58 55 31 25 28 20 16 14 15 13 14 15 13 12 12 12 12 11 11 13 13 10 9 9 10 13 14
72 73 74 73 72 70 70 73 74 71 73 75 76 77 62 37 10 12 13 12 15 17 19 18 15 12 12 12 12 12 10 9 8 10 8 11 11 10 12 9 9 10 10 12 12
73 73 72 69 68 70 70 70 74 74 75 79 79 63 45 30 11 12 11 12 9 10 15 15 14 16 16 18 14 15 18 15 14 13 13 12 15 15 11 10 10 9 9 10 14
70 67 66 68 70 71 72 76 77 75 79 81 80 56 37 14 14 14 12 12 11 10 10 12 14 18 21 19 18 17 17 20 12 9 9 9 14 9 7 8 10 10 11 10 11
64 63 66 70 74 77 78 78 77 76 77 76 68 52 32 28 18 16 17 18 15 13 12 9 12 20 20 24 24 19 21 18 13 8 10 10 14 11 10 10 12 13 12 12 12
65 65 67 71 76 77 79 78 66 79 70 45 35 47 36 22 17 16 18 18 20 18 15 15 14 17 17 19 29 22 17 13 13 9 9 12 13 13 13 13 14 13 14 14 14
67 67 69 71 72 76 67 38 51 65 50 36 29 35 21 9 14 14 11 16 21 21 29 21 22 21 18 16 16 17 19 20 16 14 15 15 12 10 10 10 12 13 13 12 13
67 69 69 69 71 77 61 32 33 39 35 19 16 18 18 22 28 18 12 16 20 27 22 25 28 18 15 16 17 18 21 21 18 16 16 15 14 12 12 14 14 14 14 14 14
68 68 70 71 73 63 32 32 26 32 45 22 21 23 21 23 27 21 17 16 18 20 23 25 21 16 17 19 18 18 20 19 19 16 16 18 19 18 13 12 13 14 15 15 15
67 69 71 75 69 29 40 24 30 42 53 25 24 22 19 15 30 18 18 21 22 24 20 18 16 18 19 23 20 25 17 18 19 20 27 19 33 24 15 13 14 17 21 21 18
67 68 70 69 61 32 29 28 34 56 46 17 25 18 12 18 16 20 18 21 27 22 20 24 20 21 22 22 21 24 19 20 23 30 34 32 33 21 16 15 14 26 28 36 39
68 69 69 55 56 32 33 38 50 71 39 18 17 18 11 10 14 15 19 21 21 22 20 19 14 17 20 20 19 19 24 24 27 34 53 34 28 24 19 41 36 37 38 39 40
68 67 61 40 46 38 45 49 59 44 10 18 18 15 12 10 8 16 15 21 25 36 35 22 19 15 17 26 24 28 36 44 48 55 52 31 40 25 38 37 41 41 38 42 42
67 67 55 33 39 49 50 49 42 14 13 15 14 12 13 8 8 15 12 14 11 31 32 27 30 18 18 23 28 29 33 44 62 55 42 44 70 31 39 37 33 33 36 40 45
68 51 52 50 50 49 52 49 29 23 18 19 14 13 10 10 17 14 15 11 24 43 56 54 38 29 23 18 19 30 65 32 55 51 56 34 62 56 50 38 32 38 41 46 49
57 45 41 46 47 57 53 40 21 20 20 18 21 12 20 19 20 19 17 19 40 40 39 45 60 28 26 43 22 27 26 61 60 82 56 32 28 31 90 44 35 43 49 50 52
61 48 49 40 54 54 71 30 23 20 23 24 23 24 24 26 24 24 22 18 36 36 33 44 62 45 33 69 45 32 41 50 61 59 67 70 68 81 79 73 42 44 49 55 59
52 68 45 46 63 41 44 30 42 21 23 25 28 28 29 27 29 30 28 23 37 41 47 66 71 67 44 30 49 62 33 44 86 64 49 62 63 84 85 42 39 44 49 56 59
44 42 38 54 86 45 37 28 26 25 24 26 27 24 25 30 36 30 30 26 41 41 51 55 59 71 42 30 58 66 59 57 54 69 90 98 69 54 42 29 42 51 52 57 62
53 88 45 40 32 48 45 34 31 29 26 24 27 25 30 36 31 37 41 40 38 32 80 80 66 58 72 54 54 92 68 50 66 100 75 84 69 80 56 55 55 58 57 60 66
55 70 46 69 42 37 37 36 36 34 25 24 28 32 38 46 41 40 32 32 27 67 82 95 91 58 48 44 49 57 86 46 56 62 92 61 53 78 84 81 72 63 61 65 72
92 51 36 44 37 38 41 34 29 26 32 34 34 28 28 35 34 39 38 40 47 40 95 59 81 83 69 44 45 81 62 71 76 76 64 39 66 63 72 80 84 78 76 82 84
40 40 48 44 40 47 49 34 30 32 34 27 28 33 36 31 28 30 31 34 37 49 72 68 74 76 74 53 71 97 43 43 32 46 48 64 72 56 74 91 94 92 86 89 91

GFSSW_sfc_rhum_093.txt.gz
RH
68 68 68 68 70 72 72 72 73 74 72 70 71 72 72 77 82 68 63 56 51 58 54 26 22 25 25 25 26 28 43 46 39 29 23 16 15 12 10 10 12 12 12 30 31
67 67 67 69 72 72 72 73 74 74 72 71 70 71 74 81 85 80 52 61 63 54 24 21 15 16 27 26 28 28 36 37 26 23 22 16 18 15 14 14 14 15 13 17 26
67 67 68 70 71 72 73 75 76 73 72 71 69 71 78 80 75 34 64 64 60 62 21 18 14 13 29 23 25 28 29 23 22 20 19 18 18 15 16 19 18 23 14 14 20
67 69 70 71 72 73 75 79 74 72 71 70 69 74 78 81 30 43 64 67 66 44 28 24 22 19 22 30 21 26 20 19 17 15 16 17 18 17 16 20 16 15 16 16 16
71 72 72 72 73 73 75 77 73 72 71 70 72 75 80 72 62 47 68 64 39 28 29 27 31 28 20 20 19 22 22 18 15 15 15 16 16 17 15 12 12 11 12 16 19
75 74 74 74 73 72 70 74 74 71 71 74 74 74 90 73 19 31 34 34 25 31 32 31 30 22 18 17 18 15 15 16 17 17 15 16 17 16 16 13 11 10 12 13 16
73 75 75 72 69 68 68 71 76 73 74 75 78 74 75 55 22 22 17 14 13 13 16 16 21 24 24 28 22 21 25 20 19 18 17 16 18 19 15 14 13 12 12 12 17
74 74 72 68 68 71 72 76 76 74 75 78 82 80 82 30 31 26 19 17 16 15 16 14 14 21 28 27 27 32 29 31 21 17 14 16 21 14 12 12 11 11 11 11 11
73 69 68 74 75 76 76 78 76 73 76 81 89 92 64 34 28 20 16 18 18 18 17 11 15 22 26 36 43 37 41 32 24 16 16 14 14 12 12 12 15 18 17 17 18
68 66 67 74 77 80 80 79 72 72 77 57 55 82 52 28 16 17 21 21 26 26 23 21 22 26 29 35 46 42 35 29 25 18 19 22 21 16 14 12 17 18 15 13 13
65 66 68 71 75 76 80 65 78 88 74 64 58 43 32 16 17 21 16 17 22 31 40 26 32 34 28 25 24 24 24 24 23 20 21 21 23 18 16 13 12 12 12 11 14
68 68 69 70 72 76 78 70 42 49 58 35 50 36 17 19 31 25 18 22 22 39 34 37 39 28 22 20 22 23 24 27 24 20 20 20 20 20 16 15 14 12 12 12 13
69 69 69 72 73 76 59 38 34 45 62 34 23 22 24 25 31 26 18 18 23 28 28 35 32 25 26 25 25 25 28 28 26 21 20 22 24 20 16 14 14 14 13 12 14
68 69 72 76 85 62 52 35 44 55 77 37 22 24 20 24 29 21 21 28 30 27 27 30 22 22 25 25 24 31 25 24 24 28 38 26 39 30 25 23 18 15 31 25 50
66 69 72 68 84 62 45 41 45 72 81 25 24 19 16 20 20 26 21 26 32 32 31 35 28 28 27 25 22 30 28 28 31 34 46 42 50 36 27 24 17 51 50 55 54
68 70 70 68 81 58 48 55 67 96 73 22 26 26 18 14 15 25 27 26 25 33 30 28 21 22 23 21 24 25 30 31 36 39 54 39 45 40 31 24 60 55 60 55 57
70 69 67 48 68 55 64 71 90 91 18 24 20 17 17 16 13 10 22 23 42 35 41 35 34 25 17 22 27 37 43 67 72 71 60 43 66 48 55 54 66 66 55 66 60
67 69 67 52 61 64 75 80 77 25 23 16 16 16 18 14 13 18 19 22 15 49 60 52 49 37 26 23 32 38 43 80 74 71 55 44 82 55 74 70 71 47 52 57 63
68 74 76 74 61 70 80 87 52 27 21 21 17 18 17 17 21 19 22 22 46 51 74 74 53 36 31 31 39 39 53 49 77 62 69 52 40 50 68 74 86 56 59 65 68
78 76 72 60 61 80 90 61 32 22 21 20 22 18 28 27 28 28 27 28 46 43 41 49 69 40 32 45 38 52 33 78 88 96 90 49 40 88 86 86 83 64 68 69 71
82 81 66 52 70 90 96 57 25 23 24 26 29 31 31 35 31 32 29 29 40 42 44 69 69 59 48 54 66 52 62 55 65 77 88 92 84 87 88 90 85 67 68 71 74
87 95 61 60 95 91 75 40 42 22 23 24 33 35 40 39 39 41 37 48 54 53 54 68 80 86 56 38 34 57 83 94 98 78 79 84 75 78 84 82 85 66 66 69 71
83 75 63 73 96 85 45 31 26 25 25 28 31 32 34 41 52 42 42 54 50 54 72 68 78 75 43 43 54 75 78 92 96 73 83 87 98 81 78 83 66 71 70 72 73
92 94 74 75 55 67 59 44 38 33 29 26 29 33 38 51 44 53 51 41 48 57 71 72 82 69 66 53 50 63 58 56 94 99 89 96 98 92 88 92 77 74 75 76 77
92 83 70 92 75 56 50 46 45 41 30 30 34 44 48 55 50 54 45 44 40 62 87 90 91 79 67 62 60 58 54 56 91 95 93 99 99 94 91 89 81 74 75 79 82
96 85 57 62 47 53 48 46 34 35 45 39 46 38 39 49 46 51 46 49 58 53 80 97 97 85 81 57 52 60 62 84 91 97 96 77 98 84 78 80 84 79 78 84 85
62 61 78 56 56 74 74 46 41 44 47 32 40 49 50 43 49 50 47 47 55 60 79 78 90 91 87 60 63 86 79 70 80 93 90 97 90 73 87 92 92 88 85 88 88

GFSSW_sfc_rhum_096.txt.gz
RH
71 70 69 69 70 73 74 74 75 75 74 72 72 72 72 75 83 80 70 47 59 62 64 37 30 25 32 29 30 36 60 64 56 45 35 26 24 18 16 16 16 11 17 27 37
71 69 68 69 72 74 73 74 76 76 74 72 72 71 73 80 89 88 62 61 67 66 32 30 24 21 40 33 28 34 46 50 39 35 32 25 27 21 18 18 19 16 17 35 37
72 70 69 70 72 73 74 76 77 75 73 72 70 70 78 83 76 42 60 70 68 68 24 24 22 18 30 31 30 35 36 31 25 24 27 29 26 20 19 22 19 21 18 20 34
72 70 70 70 72 73 77 81 76 73 72 70 68 72 78 86 18 40 66 63 63 48 36 28 25 25 24 33 30 30 24 23 21 20 20 21 18 19 20 20 18 18 17 17 19
78 75 72 72 72 74 77 79 74 72 71 69 69 74 82 80 65 39 65 63 52 39 33 33 36 33 28 21 24 30 27 23 21 20 19 18 19 18 17 17 15 13 15 17 18
79 79 75 75 75 75 74 75 74 72 70 70 72 71 87 62 19 26 53 55 40 33 36 36 40 35 33 28 25 20 19 18 18 20 21 20 21 20 20 16 16 15 16 17 18
80 80 79 76 75 71 69 72 76 74 71 72 74 72 86 57 30 33 30 26 30 30 34 24 28 27 28 31 28 29 35 30 25 22 22 19 18 21 18 17 17 16 15 14 19
76 80 82 77 71 69 71 76 77 73 72 74 78 72 80 39 43 40 34 28 18 16 18 18 18 20 31 29 30 36 37 43 28 21 19 19 23 16 14 15 13 12 13 12 13
80 81 78 75 76 77 77 76 74 72 72 76 92 85 83 46 45 34 28 21 18 20 20 14 22 22 24 39 45 46 49 41 33 22 22 21 23 19 14 16 16 15 14 16 18
83 78 71 75 77 80 81 75 74 73 66 66 68 89 67 37 22 20 23 22 28 32 26 25 26 27 31 40 54 50 44 44 38 25 24 25 25 20 20 19 19 18 20 18 15
79 70 69 72 74 77 79 82 75 91 79 80 68 62 40 26 18 22 19 20 23 36 44 32 31 34 29 30 30 31 32 32 26 22 25 26 24 19 20 22 21 18 17 16 14
75 70 69 70 70 71 81 81 47 50 60 49 65 57 46 37 30 30 22 25 27 31 42 48 40 28 24 26 28 29 30 30 24 21 25 25 23 17 17 21 18 18 17 16 14
74 73 70 70 71 76 78 51 45 48 66 37 32 37 37 26 33 33 21 26 26 30 36 47 34 29 29 31 33 30 31 30 32 27 27 26 25 23 19 18 17 17 17 18 20
76 72 71 71 70 75 59 40 52 59 72 40 32 24 24 29 38 26 22 26 29 27 28 31 22 26 28 32 31 38 27 27 30 38 42 28 44 30 24 26 24 22 31 67 68
77 70 69 67 93 71 45 49 51 78 46 33 26 21 22 29 23 31 23 30 36 35 39 42 34 33 34 32 27 31 30 33 36 44 44 37 52 30 29 28 26 30 65 70 71
71 70 68 68 86 69 54 57 68 89 42 37 31 32 25 23 19 30 31 27 29 35 36 37 30 29 30 24 26 26 35 39 42 44 55 38 49 40 36 51 80 72 74 73 77
69 66 68 59 78 59 64 72 94 81 27 26 29 19 18 20 18 14 27 36 44 41 38 37 33 32 30 37 30 33 49 70 74 80 55 34 46 40 42 78 79 83 71 75 77
67 67 68 56 61 68 77 83 83 34 27 18 16 17 20 18 19 22 22 25 52 61 73 76 68 44 37 44 47 38 38 59 84 80 67 47 69 64 75 69 72 74 79 72 80
67 81 77 75 64 74 83 86 52 31 22 21 21 25 25 23 26 28 29 47 57 52 70 80 69 38 34 38 46 52 55 46 64 62 80 66 50 65 71 74 78 79 83 82 77
88 83 81 68 67 80 86 67 33 24 22 25 28 31 38 33 34 32 30 48 53 46 51 65 72 45 41 32 34 48 49 74 89 88 79 67 57 83 86 86 84 87 86 77 74
84 89 67 62 74 86 89 59 30 23 27 33 36 38 36 41 38 38 36 53 52 53 60 68 76 61 48 49 58 44 70 80 80 75 78 79 81 89 85 86 88 82 73 76 77
88 95 65 69 94 93 74 45 43 26 29 32 37 40 44 43 42 44 44 57 58 57 63 71 75 88 57 40 36 42 56 91 99 92 86 91 85 82 90 87 85 78 73 73 76
88 75 63 75 94 82 47 32 33 31 32 32 37 40 39 45 50 49 53 60 54 57 69 69 78 76 46 41 48 58 54 79 96 97 92 96 89 87 87 92 94 83 79 77 77
94 93 74 77 73 69 60 50 45 37 31 28 34 38 44 56 50 58 51 53 52 75 67 68 81 67 68 57 64 74 63 61 80 96 91 82 88 95 96 93 86 77 75 76 77
95 89 69 90 74 55 55 49 51 46 36 38 41 48 50 56 53 56 53 52 46 65 91 81 94 84 74 65 61 61 58 56 59 64 98 96 100 100 97 91 80 73 73 77 82
93 68 68 58 54 52 57 48 46 41 47 45 50 46 47 54 52 58 60 57 58 54 93 90 94 90 70 55 50 62 56 55 56 80 87 95 99 90 83 76 82 82 80 83 84
77 68 66 56 59 74 76 55 48 49 50 38 49 53 52 51 55 55 58 58 58 63 80 93 93 88 79 64 64 78 61 49 91 99 96 99 99 86 89 90 93 88 86 90 93

GFSSW_sfc_rhum_102.txt.gz
RH
82 78 77 76 75 74 74 76 76 78 77 75 74 74 73 75 83 88 62 36 67 56 62 44 36 36 35 31 42 58 65 75 52 47 38 35 40 31 27 26 26 23 21 19 54
80 78 77 75 78 76 75 76 78 78 76 74 72 71 71 79 95 93 52 53 65 62 42 35 29 31 42 46 36 50 74 54 45 41 39 37 46 36 32 30 28 26 25 22 60
82 80 77 75 77 76 76 78 79 78 74 72 69 68 76 84 53 17 60 63 61 63 49 32 26 20 30 39 35 44 50 43 37 37 37 34 32 29 30 32 28 29 23 22 20
85 84 81 76 75 75 80 84 79 76 71 69 68 70 74 85 23 39 61 70 68 70 39 32 30 26 24 34 35 41 36 32 33 30 29 30 26 28 28 28 23 22 23 25 23
87 85 83 77 75 77 81 83 79 74 70 68 68 71 80 50 35 27 62 72 69 41 34 31 28 25 24 25 28 36 33 28 28 29 31 30 32 29 28 24 22 22 22 25 25
88 87 85 82 78 78 81 83 76 71 71 69 68 70 89 27 17 36 36 56 46 41 37 36 33 30 40 44 36 32 27 26 27 25 25 24 25 28 23 21 20 20 21 22 24
89 88 86 83 81 80 80 79 73 72 72 69 70 72 83 26 32 32 38 52 45 33 39 37 37 35 32 27 31 33 41 37 34 32 32 29 32 28 22 21 19 18 18 19 23
90 89 89 89 86 85 81 74 74 72 71 70 75 82 88 46 57 55 50 41 32 32 34 32 30 28 27 24 30 41 45 49 35 32 29 26 36 24 20 22 20 19 19 19 19
92 92 92 90 89 87 75 74 74 71 68 70 82 91 84 49 57 52 45 37 24 31 29 19 24 27 28 35 39 50 55 51 41 31 32 29 36 26 19 20 22 22 21 20 20
93 93 93 91 88 80 79 75 70 73 74 70 71 74 61 33 41 33 51 32 30 33 30 31 31 32 38 40 50 52 56 64 51 34 31 29 28 24 23 25 26 25 23 22 20
93 93 91 91 88 81 77 71 85 86 92 71 72 51 48 48 44 24 33 34 29 34 44 36 40 42 38 36 36 43 46 47 41 29 35 30 27 26 25 26 26 24 24 23 22
92 92 91 88 82 81 76 66 58 46 64 69 68 67 50 55 58 47 23 32 30 40 45 54 47 35 28 30 31 33 37 39 33 28 32 32 31 27 27 26 24 22 24 27 55
94 92 90 88 85 87 75 57 50 43 49 36 55 64 58 58 59 59 28 29 32 35 42 54 46 41 36 41 39 40 42 42 42 38 38 37 36 34 28 28 27 37 52 89 92
93 93 92 85 78 70 77 42 41 43 29 22 43 55 56 60 65 42 29 29 33 35 38 40 32 37 42 41 41 51 39 38 43 51 58 40 52 36 33 33 34 84 94 93 86
94 92 88 71 88 79 53 56 61 63 81 25 45 29 49 41 31 38 30 36 34 34 36 37 40 38 40 36 35 41 36 39 41 52 59 48 53 44 31 33 90 94 87 89 83
91 89 80 84 80 68 60 64 75 92 54 43 35 40 48 42 33 35 34 34 35 40 45 37 37 36 37 35 35 34 41 41 51 53 65 46 48 41 40 79 92 92 90 88 84
90 84 81 84 85 71 63 74 82 70 34 48 47 41 41 39 37 36 44 55 50 46 43 51 43 41 41 47 41 42 49 61 65 76 61 53 55 40 83 92 89 90 93 89 84
86 78 74 67 87 77 72 88 78 44 37 23 26 32 29 25 29 24 44 60 51 58 69 52 47 47 38 44 38 46 51 64 71 76 72 53 62 56 90 86 80 83 85 83 85
78 96 91 71 64 74 76 93 56 47 28 30 26 27 34 29 27 31 58 66 56 53 51 73 66 44 37 37 35 44 72 62 78 74 78 65 59 86 87 85 85 86 84 86 88
96 94 92 77 72 87 94 70 60 32 35 36 35 37 35 34 33 32 51 54 54 53 53 67 52 55 46 33 37 41 41 76 88 95 82 64 70 72 90 86 73 86 88 85 77
93 98 80 79 77 91 91 81 39 30 32 42 39 42 41 40 39 38 53 55 54 60 55 58 59 64 40 48 47 51 51 61 86 94 97 87 82 88 93 92 91 88 93 95 82
92 97 80 78 98 96 93 64 44 35 37 41 46 44 45 45 43 45 58 63 59 56 64 73 76 78 54 45 49 54 82 87 94 84 94 97 82 84 88 88 89 92 91 76 71
90 98 77 82 98 91 70 44 46 38 38 38 40 42 42 46 49 56 69 64 54 60 72 65 76 70 46 53 58 66 61 72 91 90 88 98 82 85 88 95 98 99 96 85 73
88 98 86 81 84 76 62 53 45 38 42 42 45 44 46 55 53 57 60 54 52 70 63 63 70 61 56 58 74 79 68 70 81 98 76 74 71 58 81 95 88 90 96 94 75
96 87 74 94 86 65 56 56 51 48 40 40 45 48 52 56 52 57 55 56 51 63 86 76 86 81 73 75 76 74 76 72 70 65 84 66 69 72 96 96 94 91 92 84 79
96 78 70 71 64 57 59 54 49 46 49 45 54 49 45 51 50 55 56 58 58 88 92 90 84 90 80 74 79 71 54 57 61 66 65 61 71 83 92 90 88 88 92 83 83
80 76 68 66 62 70 74 55 51 52 56 49 50 53 54 56 56 53 53 57 56 61 93 92 94 89 92 55 54 65 62 68 62 78 63 82 75 91 94 90 89 86 84 87 88

GFSSW_sfc_rhum_105.txt.gz
RH
86 85 80 81 81 77 75 75 77 78 77 76 74 72 72 73 81 77 50 31 53 57 57 34 29 27 24 25 34 34 28 31 27 31 22 26 26 25 22 23 21 19 16 17 17
87 83 79 81 82 81 77 76 78 78 77 74 72 70 71 78 83 67 49 50 69 65 32 25 21 26 32 26 27 36 37 27 29 27 23 27 27 25 22 22 22 20 20 19 16
88 86 83 82 82 81 80 81 78 78 76 72 69 69 76 76 32 15 61 60 60 58 29 26 21 19 21 28 24 30 27 36 32 30 28 26 26 23 23 24 21 22 18 17 18
88 88 86 84 82 81 81 82 79 77 73 69 67 68 75 72 33 26 66 68 63 58 35 25 22 22 20 26 27 24 29 27 26 24 27 26 20 21 21 22 18 17 19 20 19
90 89 87 86 82 82 82 83 79 76 70 68 66 71 70 27 16 24 62 72 59 55 30 27 26 23 20 19 22 30 27 26 25 24 24 23 24 24 24 19 17 18 20 20 18
90 91 89 87 84 83 83 84 80 73 69 68 66 72 72 23 14 32 32 60 49 38 32 25 21 19 23 31 26 26 23 22 22 22 23 24 23 25 21 17 18 17 17 17 18
91 91 92 90 90 85 83 83 76 72 70 68 67 72 82 28 26 32 38 47 37 33 32 29 28 29 27 22 23 25 30 28 27 26 26 24 25 28 19 18 18 15 14 15 20
91 92 92 91 90 88 88 88 77 72 70 68 69 74 72 40 45 50 42 34 30 30 28 27 28 28 21 21 23 28 32 30 27 25 23 22 27 20 17 16 15 15 15 17 16
92 92 93 92 93 92 90 85 76 70 66 66 76 78 64 44 39 36 36 27 27 29 29 20 22 25 22 25 27 34 28 36 31 25 25 24 27 19 15 14 17 17 17 17 17
86 93 94 93 94 93 84 73 66 72 72 67 70 73 55 28 34 38 47 32 24 25 28 28 25 25 28 28 32 32 36 38 37 25 24 23 22 19 17 18 20 18 18 19 18
89 95 95 94 93 88 82 78 92 90 88 63 65 48 34 39 42 26 41 35 28 32 35 29 32 36 30 30 26 29 32 28 26 23 27 28 24 21 19 20 21 20 20 20 30
92 93 93 94 90 84 65 55 59 54 63 63 60 60 45 45 48 37 29 34 33 36 38 35 38 31 30 30 29 28 29 32 29 26 28 27 27 23 22 22 21 20 33 67 65
89 95 95 93 87 83 74 56 59 61 85 62 50 52 45 45 37 41 24 28 32 39 40 44 38 34 29 31 32 34 38 38 36 29 29 31 25 25 22 22 44 68 70 64 64
94 94 94 91 88 84 80 61 51 52 60 45 36 43 48 48 53 24 26 23 28 35 34 36 30 38 39 38 37 43 32 31 32 38 34 28 33 25 23 23 60 72 68 67 64
96 94 92 75 84 76 60 51 47 65 90 33 39 32 51 39 30 41 28 28 30 31 31 30 33 35 34 31 30 33 33 36 36 37 41 34 34 27 27 25 56 75 73 69 65
95 92 84 84 82 82 83 79 84 92 84 40 37 45 64 54 32 35 33 28 28 32 34 29 29 30 30 30 30 30 34 36 41 40 47 33 32 22 25 34 65 76 76 71 68
93 86 78 80 89 77 68 78 91 84 40 43 43 44 43 41 37 36 40 42 40 47 46 38 34 34 38 39 34 36 40 39 44 55 40 37 39 27 42 75 74 78 73 71 68
91 85 79 91 91 86 89 98 94 56 44 29 30 43 51 23 24 25 47 50 46 39 47 33 48 41 33 29 30 36 42 43 52 51 47 46 48 33 77 70 72 72 70 66 66
83 94 94 96 92 79 88 92 68 48 30 28 24 30 29 25 24 45 55 54 50 50 47 60 55 39 31 30 29 40 55 45 57 63 56 38 40 72 67 63 71 74 75 79 72
96 98 96 96 93 94 98 90 53 32 32 34 34 34 32 33 29 39 53 51 52 50 49 55 51 49 40 31 28 35 28 48 76 61 43 26 41 44 72 71 75 78 88 78 68
94 98 95 95 98 99 95 78 45 32 30 39 36 40 38 37 35 42 53 52 52 58 46 47 42 49 36 34 34 32 35 47 58 74 55 36 37 72 79 82 81 82 80 81 73
99 98 95 98 99 100 82 57 52 44 42 41 42 42 47 57 40 40 54 54 52 52 49 60 57 51 40 46 43 42 56 61 58 53 67 66 46 81 77 89 88 85 78 72 71
100 100 96 98 97 94 62 61 47 40 39 40 46 40 40 46 47 54 63 57 50 57 64 57 58 49 55 49 44 52 49 64 76 68 73 68 50 73 71 84 82 81 75 72 75
96 99 100 93 96 73 77 70 44 39 40 42 43 40 47 50 50 54 63 44 47 64 61 57 54 41 34 44 50 64 57 50 63 79 54 53 53 48 44 80 80 80 83 83 85
84 90 74 95 95 73 62 53 48 44 36 38 41 44 46 51 47 52 48 45 46 65 74 68 64 62 50 49 61 57 54 56 60 60 71 60 62 60 51 82 88 83 81 82 82
96 78 71 68 74 70 58 48 45 44 44 42 48 43 42 45 43 49 48 44 45 79 81 78 76 76 66 52 51 54 45 49 49 53 52 46 62 44 80 82 82 86 88 90 86
76 70 67 66 64 68 69 52 46 56 57 45 47 48 49 51 46 43 45 48 45 60 86 76 77 69 70 50 45 47 46 51 55 69 62 83 65 79 88 83 84 88 90 85 85

GFSSW_sfc_rhum_108.txt.gz
RH
88 88 86 84 85 80 76 74 76 77 77 76 74 71 70 74 76 28 27 26 32 51 59 23 20 17 16 16 16 14 16 16 15 16 15 15 15 14 16 15 15 15 14 14 12
89 86 84 84 86 85 80 77 77 78 77 75 72 69 71 77 43 27 36 45 64 65 20 18 18 18 14 14 16 15 14 14 11 13 14 12 14 13 16 12 14 13 12 12 11
90 89 88 86 86 86 84 82 78 77 76 73 69 68 74 64 26 13 55 61 66 50 16 14 12 14 13 15 14 15 16 13 14 14 11 12 12 12 16 16 14 15 13 11 13
91 90 90 88 86 86 85 84 80 77 74 69 67 67 74 35 35 20 63 63 61 28 18 18 15 15 14 15 12 16 13 13 12 12 13 15 12 13 12 14 11 11 12 12 14
92 92 91 89 88 87 86 85 81 77 71 67 66 69 41 22 20 25 70 61 33 27 18 16 16 15 14 11 11 18 11 11 12 12 12 11 12 13 12 11 12 12 13 14 14
94 93 92 91 89 89 87 87 84 75 68 66 66 72 39 31 11 15 16 28 20 22 16 14 14 13 14 12 13 13 16 15 15 16 15 17 14 14 16 13 12 13 14 13 13
92 94 93 92 91 91 90 88 83 71 68 66 65 47 48 28 14 17 23 22 20 22 18 16 14 15 16 20 16 19 19 15 15 16 15 14 17 17 13 12 14 14 12 11 14
88 90 94 93 92 93 91 89 83 73 69 67 66 53 46 20 20 24 18 19 22 21 19 19 19 22 23 16 17 19 18 22 16 18 17 19 20 14 13 13 13 12 11 12 11
87 88 92 94 94 93 93 88 82 73 66 63 56 55 43 33 26 18 18 16 14 22 22 17 20 20 19 21 20 20 21 20 18 16 15 18 18 15 13 13 12 11 11 12 12
86 86 89 94 95 94 92 79 72 72 68 58 58 59 42 33 20 27 27 16 13 23 27 24 21 23 22 20 24 20 20 19 22 16 18 17 17 13 11 10 12 12 12 14 14
88 87 87 95 95 92 86 85 89 82 74 52 47 42 23 21 28 26 28 29 15 14 18 21 23 24 21 21 18 17 20 19 16 14 16 19 17 15 13 13 14 14 13 15 24
85 90 88 95 94 87 69 74 63 52 66 54 45 43 36 31 35 26 22 28 28 21 15 19 26 15 15 17 20 21 23 22 18 18 22 20 18 15 14 14 14 14 16 32 36
84 92 90 95 92 87 75 57 50 50 78 53 40 42 37 33 40 33 24 23 29 26 23 27 21 22 22 24 28 27 26 24 24 19 18 20 19 13 14 14 17 27 36 39 43
86 93 96 94 93 78 77 51 60 50 90 51 43 37 34 34 42 26 21 22 28 31 26 30 22 28 27 26 24 27 19 23 23 22 21 20 18 15 14 17 25 37 41 45 45
92 93 95 82 88 86 61 62 63 60 93 30 31 24 31 35 25 24 20 24 28 27 32 33 23 23 30 24 23 24 18 22 23 24 25 21 22 11 15 19 28 41 51 49 47
94 94 88 88 81 65 55 55 83 96 90 51 27 35 40 34 28 28 25 22 21 30 26 25 19 23 22 20 21 20 25 25 25 25 33 21 18 10 16 16 34 52 53 53 50
95 91 82 64 81 67 58 80 96 90 36 36 33 32 33 30 31 32 31 31 30 38 35 25 24 24 28 28 25 25 30 35 36 38 28 20 18 14 27 41 47 60 53 50 48
92 89 83 88 82 73 83 93 97 54 42 29 30 31 33 21 29 32 32 33 32 29 29 33 42 29 25 27 26 28 27 31 33 26 21 29 30 26 49 57 61 58 55 54 51
90 96 96 94 87 80 92 97 75 57 33 36 28 42 36 24 25 33 38 30 29 32 31 40 37 30 27 25 26 30 39 31 46 36 40 20 21 52 58 69 61 57 54 54 52
95 95 98 94 88 94 99 96 61 31 24 24 32 33 36 26 23 27 39 38 43 41 38 56 54 41 35 26 23 30 24 47 49 47 29 14 17 21 58 60 58 66 60 54 49
95 99 96 94 88 98 97 80 50 26 24 28 27 33 31 30 23 29 39 43 44 56 46 47 47 44 36 34 30 26 26 28 36 35 36 26 19 56 75 72 69 54 54 54 51
99 98 97 94 100 99 91 70 60 49 38 32 30 34 36 50 32 36 42 41 41 39 39 46 36 34 31 32 31 26 28 25 47 34 35 38 31 56 64 59 58 55 57 52 52
100 100 97 97 98 88 71 67 40 35 31 34 43 33 35 70 71 52 50 50 45 41 43 41 36 35 31 37 37 35 36 39 56 49 47 51 37 52 62 60 61 59 56 56 58
99 99 100 99 97 67 78 81 65 36 33 31 40 39 46 48 53 55 52 40 46 42 57 39 33 27 20 32 33 47 37 36 49 66 40 32 33 30 34 34 43 58 62 62 62
79 88 62 96 96 80 74 73 60 52 30 28 34 37 40 47 44 48 43 40 45 63 58 44 47 35 30 26 33 29 30 34 36 39 57 47 53 45 34 35 65 64 62 61 66
94 60 51 58 73 77 70 51 40 36 34 34 34 33 32 34 31 40 41 37 40 56 55 57 63 54 43 34 32 34 27 27 31 36 36 31 49 28 35 65 67 71 69 71 76
55 56 53 78 75 73 63 39 35 39 41 28 32 35 38 39 35 33 34 34 36 48 68 55 58 54 52 32 33 41 34 30 27 36 40 71 56 43 68 67 69 71 72 78 84

GFSSW_sfc_rhum_111.txt.gz
RH
90 89 88 88 87 83 78 76 76 76 76 76 75 72 70 75 74 24 22 27 28 44 51 15 14 11 9 12 10 12 14 16 14 12 11 10 12 9 10 13 11 12 12 11 11
91 90 87 88 89 88 85 80 78 76 77 76 74 70 73 77 40 25 40 52 54 57 15 16 15 14 12 12 13 15 16 15 11 10 11 10 10 10 10 12 13 12 11 10 10
92 91 90 89 89 89 88 85 82 77 76 75 70 68 75 64 28 15 60 68 58 46 14 12 11 13 14 12 12 13 18 13 10 10 10 11 10 9 10 13 12 13 12 10 10
94 93 92 91 90 89 89 87 82 77 75 72 67 67 72 35 36 21 61 60 67 30 14 12 12 13 13 13 11 15 12 11 11 10 10 11 10 12 11 12 10 9 10 10 11
96 95 93 92 92 91 90 88 85 79 75 68 65 66 43 36 27 33 70 56 26 20 16 15 16 15 17 14 11 12 11 11 9 8 10 9 10 10 10 8 8 8 10 12 12
91 93 94 94 92 92 92 90 87 82 71 66 65 68 44 53 18 12 16 24 18 18 16 14 15 13 15 15 15 12 11 11 11 10 12 12 12 11 11 10 11 11 11 12 13
88 90 93 94 94 93 93 92 89 80 68 65 65 37 46 46 20 14 16 14 16 16 18 14 12 14 14 17 13 14 18 16 15 13 13 12 15 15 11 10 10 10 10 11 13
84 87 90 94 95 95 94 93 87 76 68 65 65 44 58 27 18 19 16 17 15 17 16 14 13 15 17 16 17 18 18 21 14 12 12 13 20 12 10 11 12 11 10 10 10
86 86 88 89 96 96 95 92 85 75 68 63 57 53 53 35 27 20 19 20 16 17 17 15 18 20 19 24 25 21 23 20 16 12 14 16 18 12 11 12 13 11 10 10 11
83 83 88 88 94 97 94 86 76 67 62 50 42 62 43 38 24 16 16 14 14 15 21 22 18 22 20 20 27 22 19 16 17 13 13 16 16 13 11 11 13 11 10 10 10
81 82 86 89 94 95 87 83 91 86 69 55 42 41 32 21 18 21 20 17 13 14 26 23 24 25 21 20 19 19 19 19 14 12 15 17 14 12 10 10 11 11 11 12 12
81 82 84 90 96 89 75 83 60 42 53 48 44 40 33 29 36 28 20 28 26 23 19 23 26 20 17 17 18 18 21 20 15 12 14 15 15 12 11 11 11 11 12 12 17
83 84 85 91 94 93 85 69 43 41 76 48 34 36 32 31 38 34 26 27 29 29 27 26 18 14 18 20 18 17 20 20 18 15 14 17 17 13 10 10 9 10 13 22 28
85 87 87 95 98 88 90 55 38 52 95 48 33 33 29 30 38 23 22 25 29 31 27 31 22 20 22 24 19 25 17 19 20 20 22 12 17 12 12 12 13 18 25 30 34
87 85 90 92 83 92 68 53 48 74 97 23 23 21 23 33 24 19 19 27 35 30 29 36 31 30 30 29 24 24 19 19 19 21 20 17 17 15 11 12 18 26 34 37 38
86 91 94 92 73 69 53 50 83 99 86 30 22 26 30 30 30 19 20 22 24 29 26 25 22 25 20 17 17 18 20 20 20 20 29 20 18 15 11 11 18 40 39 41 39
88 95 93 74 86 56 57 86 98 91 30 32 30 26 30 28 28 22 26 29 32 40 38 28 28 24 20 28 25 21 28 37 35 36 34 16 16 16 20 31 30 41 39 40 38
96 95 88 75 58 61 76 98 100 37 33 23 25 24 30 24 22 22 26 27 25 25 32 56 71 28 24 25 30 27 28 42 71 50 37 18 24 27 41 42 41 38 39 36 37
96 99 98 93 65 60 93 99 64 35 24 28 27 30 29 25 22 24 27 26 21 24 40 52 46 32 24 21 22 25 37 24 43 42 40 30 26 43 50 47 49 46 39 38 36
96 97 98 88 76 86 99 86 49 33 34 29 37 31 36 32 27 25 27 24 22 22 24 42 70 33 27 23 22 23 26 51 39 47 40 23 23 24 65 67 54 49 43 39 36
94 98 95 95 92 99 99 86 73 35 26 29 32 29 28 30 26 24 26 31 27 34 34 34 40 42 33 31 29 30 31 31 31 40 52 47 33 52 72 58 52 42 40 38 37
95 100 95 96 100 100 98 93 57 37 24 26 26 26 29 30 29 28 27 42 31 38 50 42 48 60 42 25 26 25 30 29 53 43 30 28 23 46 50 43 43 41 40 36 38
100 100 96 96 99 98 93 74 54 34 32 33 35 30 36 45 40 35 39 42 37 39 42 50 54 53 36 29 28 30 28 28 32 34 42 53 35 45 40 40 45 36 37 38 42
100 99 100 100 95 94 96 77 51 39 37 34 34 29 35 48 42 55 50 42 40 34 52 43 37 35 31 26 29 39 25 25 36 66 41 29 24 31 34 28 24 33 43 42 47
99 95 72 95 94 92 75 72 55 46 33 30 41 40 43 55 53 59 60 48 41 56 39 38 46 32 26 21 20 25 27 28 29 36 50 36 42 30 25 26 37 48 44 45 54
100 89 69 61 59 94 91 88 71 56 45 43 41 35 38 43 39 44 40 40 44 44 46 42 58 48 39 25 24 29 22 20 21 26 26 21 32 22 23 37 48 55 54 59 63
89 51 56 86 93 95 86 77 65 50 37 28 29 31 32 28 27 27 27 26 29 41 52 49 49 49 55 26 28 35 27 22 20 20 24 54 36 41 50 76 59 61 62 68 72

GFSSW_sfc_rhum_114.txt.gz
RH
91 91 90 89 89 87 83 81 78 76 76 76 77 76 72 77 73 31 28 27 27 43 43 12 14 14 11 10 11 11 19 20 17 15 14 10 11 10 9 11 12 11 12 12 13
92 91 91 90 91 90 88 85 83 77 77 76 77 75 76 77 45 33 43 58 54 58 12 14 16 14 16 14 13 15 21 20 14 12 12 10 10 11 10 10 14 12 12 12 11
94 93 93 92 92 91 90 88 86 78 76 76 75 72 75 62 38 20 61 62 54 46 16 14 13 12 16 14 13 15 20 16 14 13 12 11 11 10 12 13 11 14 12 11 12
90 95 95 94 93 92 92 91 87 80 76 75 70 69 71 44 41 24 62 66 59 28 22 17 15 17 17 18 13 16 14 14 13 12 11 12 10 11 11 13 11 10 11 11 12
88 90 93 92 91 94 94 92 89 84 78 71 67 66 48 51 41 35 69 54 28 22 20 19 19 19 21 17 16 17 14 12 11 11 12 11 10 11 11 9 8 8 10 12 13
89 90 90 92 93 95 95 94 91 87 78 67 64 66 49 64 29 24 19 23 21 19 20 18 18 16 19 19 19 17 16 15 11 12 12 13 12 13 13 10 10 9 10 12 13
86 88 90 89 91 94 95 95 92 88 74 66 65 45 52 55 30 27 17 17 16 18 22 17 17 19 18 20 15 16 19 16 15 15 16 14 17 17 12 11 12 11 11 12 16
85 88 89 89 87 92 96 95 92 85 71 66 64 46 65 33 28 28 27 28 18 17 18 18 18 20 20 18 18 20 21 27 18 15 14 15 22 13 11 11 11 11 11 12 11
86 87 87 89 90 89 96 95 90 81 71 66 57 58 61 34 37 29 24 24 21 20 18 17 18 23 23 26 28 25 32 28 22 14 14 15 18 13 12 11 13 13 12 12 12
84 84 85 87 91 92 96 89 85 74 64 48 42 59 44 38 27 21 15 18 23 19 20 22 22 26 25 28 36 28 23 19 20 14 13 15 16 14 12 12 14 13 13 13 12
81 83 85 87 90 94 90 89 91 84 68 60 37 39 25 22 17 20 18 18 17 20 23 23 32 35 27 25 22 22 24 24 19 15 17 17 15 13 12 12 13 13 13 12 13
81 82 85 87 90 91 75 90 57 52 63 51 44 38 30 24 31 26 20 28 29 28 22 24 34 27 23 22 22 22 24 23 18 15 17 17 15 12 12 12 12 12 12 13 13
81 82 86 88 90 96 91 79 51 45 77 46 31 33 31 29 34 32 23 27 33 34 31 34 26 19 19 19 20 20 22 24 21 15 15 17 18 15 14 13 12 11 11 16 20
83 83 88 90 99 88 97 70 49 62 91 40 26 29 26 24 34 23 23 27 31 36 33 30 21 21 22 23 20 25 20 22 21 23 33 19 29 19 14 11 11 12 24 33 34
82 83 88 93 81 93 70 48 64 78 80 15 18 19 20 30 24 18 20 27 36 35 33 37 29 27 32 31 25 29 23 30 30 39 40 27 29 22 15 13 13 23 38 39 38
83 83 87 95 90 73 51 53 84 100 83 24 19 26 29 27 28 23 20 19 23 31 30 30 24 26 30 32 28 20 22 28 33 34 52 32 28 24 18 18 16 40 39 39 39
84 87 89 86 92 59 57 89 100 91 24 23 19 22 23 25 27 28 30 26 29 44 43 31 28 22 28 34 25 25 32 46 74 59 50 24 26 23 56 40 48 47 40 40 38
86 86 93 78 63 61 78 99 99 38 35 15 18 18 25 23 25 24 26 27 22 27 33 36 49 26 24 32 34 30 35 73 73 63 49 60 54 50 50 54 48 39 37 36 36
88 98 99 96 67 69 96 99 64 38 20 25 22 26 23 21 23 22 23 24 22 22 35 44 43 29 26 26 27 37 44 37 65 65 60 44 50 67 48 48 46 42 39 38 34
97 98 98 93 80 94 98 87 52 30 24 23 30 26 35 24 24 25 26 21 22 20 21 31 47 48 34 23 22 25 21 49 83 90 59 34 30 69 67 58 50 48 43 38 34
98 99 94 91 93 100 99 84 59 34 29 38 34 30 32 35 34 45 34 20 24 23 24 28 48 61 44 38 35 31 31 32 37 44 76 54 45 65 75 70 66 44 40 37 38
98 100 96 94 100 100 98 92 68 41 37 39 33 33 35 35 39 29 39 38 33 31 40 54 56 67 51 29 23 26 32 34 56 48 44 45 43 51 61 50 42 39 38 37 38
100 100 95 97 99 99 76 89 67 55 46 38 34 31 33 42 45 32 28 41 37 44 50 54 80 65 49 45 29 32 29 28 39 44 51 62 47 43 39 36 40 40 38 39 42
99 99 100 100 96 82 88 91 77 57 52 39 35 31 34 39 40 45 36 41 38 35 52 52 54 63 72 48 32 42 31 25 37 62 49 43 36 29 46 35 30 41 44 41 50
98 99 70 97 98 98 84 80 79 89 59 56 57 44 37 48 53 62 42 45 40 50 40 44 54 44 36 28 26 23 23 26 28 32 49 48 48 36 27 36 42 43 43 46 54
100 98 81 80 68 88 96 88 82 69 60 69 50 43 39 56 52 58 45 50 59 43 53 44 64 52 50 31 25 27 20 20 22 24 26 24 34 23 24 44 51 54 52 62 66
97 90 82 88 82 88 94 64 65 53 51 42 43 50 58 48 38 34 38 37 34 49 60 52 56 53 54 31 27 36 30 23 23 22 24 48 38 55 63 78 72 68 68 73 78

GFSSW_sfc_rhum_117.txt.gz
RH
92 91 91 90 90 89 88 86 85 84 81 79 79 79 79 79 74 44 43 43 43 59 48 15 15 21 23 19 16 18 32 33 28 23 19 15 15 14 14 15 16 18 19 17 17
94 93 93 92 93 92 91 89 87 85 83 82 82 79 79 78 57 49 52 58 59 58 17 17 20 21 26 24 20 22 35 27 21 21 20 17 18 15 15 15 18 18 17 16 14
85 89 94 94 94 94 93 92 90 87 83 82 82 78 77 71 53 28 60 60 55 49 21 22 22 19 22 25 24 25 26 22 20 18 19 19 16 15 16 20 17 18 18 16 18
82 85 88 90 94 95 94 93 92 89 83 80 75 72 74 61 59 33 62 62 57 38 29 32 27 26 28 26 23 27 19 18 18 17 17 17 17 16 16 18 15 14 15 17 16
89 89 86 84 88 94 94 95 95 91 84 78 71 68 60 64 54 38 64 58 40 28 25 25 27 28 31 26 25 26 24 20 19 18 17 15 18 17 15 13 13 12 12 15 18
86 89 89 89 89 91 94 96 95 92 86 74 68 68 62 82 38 33 40 35 25 25 25 25 26 24 27 26 28 23 21 20 19 19 18 18 17 18 17 14 15 13 14 15 16
87 88 88 88 90 89 90 95 95 93 85 72 66 54 61 71 41 39 34 33 26 28 30 26 25 28 28 30 23 23 28 24 23 21 20 17 21 22 17 16 15 15 16 15 19
87 88 89 88 89 90 88 93 96 91 80 68 66 55 75 42 40 43 42 42 31 22 23 23 25 30 33 28 27 29 30 36 25 22 20 23 28 21 18 17 17 16 15 17 19
86 87 89 88 89 89 91 93 94 84 75 69 71 69 81 41 47 39 39 41 30 32 25 19 26 34 33 41 46 39 49 39 31 23 23 24 25 18 17 17 18 18 23 18 17
84 85 86 88 89 95 95 90 86 81 75 58 54 70 56 40 31 31 33 30 31 32 31 29 35 40 43 51 62 49 43 38 33 26 21 22 22 19 18 18 20 20 18 18 20
83 84 86 87 89 92 93 95 95 97 75 76 63 55 36 29 25 30 21 25 26 32 38 33 47 54 41 36 35 33 34 35 29 22 24 24 21 19 17 19 19 23 21 19 40
84 85 85 87 89 91 82 89 74 64 87 69 62 52 37 33 42 33 26 35 33 38 34 35 42 36 32 32 34 34 35 34 25 20 21 23 22 18 17 16 16 17 18 19 45
85 86 86 88 84 97 94 81 61 55 93 58 46 56 52 42 46 42 33 34 41 44 42 42 34 26 28 30 32 32 33 30 28 27 30 31 33 24 18 15 15 16 15 21 42
85 86 87 88 95 91 95 79 64 68 99 60 39 36 34 38 44 33 31 35 42 45 43 46 34 33 32 32 27 34 29 30 32 50 60 43 62 38 28 22 19 16 40 41 44
83 86 87 88 95 88 76 77 63 78 85 22 25 22 27 38 31 28 24 35 47 46 45 46 42 42 42 37 28 35 39 30 28 42 55 45 62 40 27 25 28 48 51 52 48
84 85 87 91 98 81 69 64 83 96 92 36 26 33 34 35 34 28 29 33 33 43 42 42 31 34 35 30 35 36 38 38 38 52 77 50 53 47 36 33 64 62 50 48 45
85 85 89 86 93 66 60 92 99 99 30 23 24 28 34 35 34 32 36 40 43 49 52 40 39 33 31 39 47 53 51 74 82 77 61 37 45 39 78 71 66 60 49 48 45
86 87 88 85 86 61 87 99 100 52 35 19 22 22 30 29 29 28 38 44 34 33 44 50 64 40 44 45 57 52 46 88 85 82 72 50 66 96 90 82 83 51 41 40 43
86 96 98 98 80 73 95 98 80 48 28 32 29 34 31 26 28 30 35 38 31 29 39 51 53 35 32 33 46 48 52 43 72 72 81 63 78 90 89 82 84 84 72 67 60
98 95 98 96 78 94 98 85 68 41 32 35 44 34 36 34 37 34 35 27 29 26 32 42 52 52 46 30 32 36 31 69 92 94 83 58 54 96 96 93 84 76 59 46 48
96 99 95 97 88 99 99 90 65 47 39 44 45 43 44 44 45 62 70 55 39 31 33 51 59 72 55 54 44 40 44 44 66 78 92 90 73 76 89 87 68 59 47 51 54
95 99 97 95 100 100 98 79 61 53 45 48 49 48 58 50 50 60 73 81 54 48 56 65 77 94 73 45 40 39 44 43 74 61 68 74 68 70 75 68 60 48 50 52 53
100 100 96 100 99 98 84 76 66 62 60 52 54 48 57 51 64 54 56 49 50 56 66 61 89 84 66 57 55 57 40 41 54 60 68 85 78 60 52 49 54 55 54 54 56
100 99 100 100 97 98 85 82 78 65 63 57 56 52 49 53 53 58 51 52 52 52 59 60 80 75 69 67 62 60 45 37 51 84 60 55 48 41 63 57 55 56 64 64 64
99 98 88 98 97 99 91 84 75 78 59 59 68 67 60 67 57 60 54 58 49 56 56 60 69 61 49 42 42 61 49 36 40 47 63 50 59 50 55 65 64 58 61 66 70
100 100 97 91 77 97 99 98 77 68 68 87 76 64 68 76 69 84 57 65 66 61 61 60 81 67 64 42 39 39 29 27 29 33 33 29 47 75 68 68 70 68 70 75 75
98 95 97 87 94 97 91 88 86 70 71 63 70 73 74 70 60 54 46 55 58 66 75 69 77 75 81 49 45 53 44 40 31 52 55 87 86 78 86 87 82 83 80 82 83

GFSSW_sfc_rhum_123.txt.gz
RH
95 95 94 93 94 93 93 92 92 91 89 86 85 85 84 83 79 58 58 47 55 55 48 18 22 25 30 31 22 26 32 41 34 31 26 24 25 20 18 18 17 19 23 20 23
87 86 86 91 96 96 95 94 94 93 92 89 87 85 84 82 73 68 60 57 59 49 18 24 28 31 31 32 27 25 36 32 27 26 24 24 29 24 21 20 20 18 20 22 20
78 78 79 83 87 89 93 96 96 94 93 90 87 84 81 79 64 50 62 60 61 45 23 29 32 36 35 34 33 34 32 29 24 22 27 29 28 25 23 23 19 19 17 18 21
83 83 83 83 84 88 89 92 94 93 94 90 84 77 79 70 24 43 61 63 58 37 32 34 37 39 36 34 32 36 29 28 26 24 27 27 25 26 22 21 19 17 19 18 17
85 86 84 82 83 88 90 90 91 96 95 90 80 73 66 81 73 51 66 61 41 33 30 34 37 39 42 37 35 35 33 28 27 26 27 26 28 26 23 19 20 19 19 20 20
86 87 85 81 81 83 88 90 90 94 96 88 74 68 69 84 43 46 45 45 36 38 36 33 36 37 41 39 41 34 33 32 28 27 27 26 27 29 24 21 21 21 22 22 22
87 87 86 83 83 85 87 90 90 91 89 84 70 62 74 75 54 54 49 50 48 46 48 37 36 36 38 40 37 33 39 35 31 29 29 29 32 30 24 24 24 22 20 22 26
82 85 85 87 88 89 89 91 90 78 85 80 70 64 89 50 58 55 59 53 48 47 47 44 35 38 42 36 37 40 43 51 34 27 27 35 43 28 24 21 24 21 22 22 22
82 84 86 88 89 91 93 94 92 90 82 74 76 72 88 49 43 38 49 50 48 47 46 32 36 40 44 51 56 54 67 51 39 29 32 36 38 29 23 23 22 22 22 22 28
81 84 86 87 90 94 89 91 88 83 78 67 64 86 60 38 35 42 49 46 51 48 44 44 44 48 50 57 75 58 57 66 50 35 32 35 34 27 26 26 26 25 24 27 67
80 82 86 87 90 91 91 95 90 91 81 86 75 75 49 38 35 34 42 49 45 44 53 45 58 60 49 48 48 52 56 57 50 37 41 39 35 30 28 29 33 33 29 72 71
82 84 85 87 86 90 95 98 89 80 94 78 72 70 50 48 62 46 36 48 47 51 51 54 64 48 42 43 46 48 51 52 46 39 40 40 39 38 36 33 34 33 36 71 68
82 84 84 86 83 94 96 92 89 75 96 75 70 77 70 60 66 54 44 44 47 48 48 58 47 39 42 45 47 48 53 51 49 40 41 45 45 40 33 33 39 57 48 63 68
82 85 85 88 86 97 94 83 86 73 94 63 73 64 59 59 75 50 40 44 52 55 52 52 37 38 42 46 44 54 41 42 50 59 68 46 66 42 39 61 69 69 73 76 75
85 84 85 86 94 93 72 87 83 75 33 26 52 41 51 61 43 50 43 47 54 55 56 62 56 60 57 49 47 56 48 50 51 63 61 54 71 53 73 81 75 70 68 71 75
88 86 86 91 95 93 88 81 84 73 30 28 46 55 65 59 46 46 49 47 46 58 58 56 49 49 50 42 45 44 53 57 60 55 86 57 56 69 85 79 72 70 64 62 64
88 87 89 89 93 91 83 91 95 70 26 28 48 54 57 56 51 44 53 58 60 74 75 63 60 53 46 58 52 55 64 88 94 82 76 54 61 78 87 83 82 86 86 79 77
88 88 89 89 92 86 93 96 96 38 43 33 26 34 59 48 51 49 51 60 52 55 61 64 66 46 43 50 57 67 68 93 90 83 74 58 67 83 82 78 79 78 83 85 90
88 98 99 97 91 92 99 96 79 63 41 41 32 33 30 32 40 50 56 51 47 47 60 67 60 45 42 46 47 60 80 70 81 79 88 73 84 86 86 87 88 90 86 88 91
98 97 97 90 96 96 98 81 72 52 42 46 50 43 52 48 52 48 51 45 44 44 44 51 62 56 52 38 41 51 52 74 92 96 93 76 73 90 95 87 82 88 88 87 85
96 99 91 96 94 99 94 81 65 46 47 60 59 51 56 66 60 62 57 52 56 51 45 49 57 66 59 57 54 48 56 62 79 88 94 90 73 79 82 79 82 82 84 84 74
97 99 90 99 100 96 92 73 56 50 50 49 55 56 61 65 71 68 66 57 58 59 53 61 72 86 65 56 46 47 52 59 82 77 84 84 66 57 80 81 72 79 72 77 79
100 96 96 99 98 97 80 76 64 64 59 63 69 61 60 62 74 64 57 61 71 65 71 70 86 93 73 66 63 66 58 53 66 76 71 84 75 81 84 81 69 76 75 78 81
100 100 100 98 92 88 81 75 78 66 67 63 71 70 80 76 78 81 67 57 64 61 70 68 77 68 66 62 65 72 62 52 64 94 80 76 71 63 84 77 72 75 81 83 82
99 98 84 99 93 93 81 72 75 71 64 67 74 72 80 90 81 87 70 61 54 59 71 73 79 78 69 58 64 76 71 69 70 78 93 72 70 90 86 80 84 79 74 78 79
100 97 97 92 85 86 89 90 79 67 65 70 78 74 82 84 73 68 70 67 62 61 63 66 84 67 64 52 49 68 75 72 68 67 61 61 88 84 81 79 79 78 80 84 79
98 97 97 82 99 91 83 75 73 72 64 61 60 81 82 74 79 81 80 74 69 70 73 72 87 93 94 59 47 59 62 63 56 67 68 74 74 86 90 88 89 89 80 80 83

GFSSW_sfc_rhum_126.txt.gz
RH
96 96 95 95 95 96 95 94 94 94 94 92 89 87 85 85 81 67 58 53 55 58 50 22 27 31 31 31 22 28 36 43 38 32 28 26 26 24 22 20 22 20 24 20 23
89 85 83 86 88 92 95 96 96 95 94 94 90 88 86 84 79 73 61 63 54 51 20 26 32 34 32 34 28 27 39 36 31 30 30 25 34 26 24 24 24 22 21 19 17
78 79 79 81 86 86 86 88 91 93 93 92 90 85 84 82 60 46 61 60 52 42 29 34 38 38 35 34 40 36 34 31 27 26 35 37 30 28 28 28 24 23 20 21 19
82 83 83 82 83 86 88 89 90 94 95 94 86 80 80 72 13 57 59 56 54 34 28 34 36 40 38 39 37 40 32 31 30 29 32 31 33 30 25 24 22 20 21 22 22
83 84 80 77 78 81 87 90 90 91 95 88 82 73 70 77 57 56 59 60 44 33 33 36 39 41 46 46 38 41 38 33 31 31 30 29 31 30 27 23 23 22 23 25 25
85 84 82 80 78 81 85 88 90 91 92 87 75 69 77 55 43 51 50 46 41 38 38 37 39 40 45 46 46 40 39 39 35 33 34 34 32 29 27 25 22 23 23 24 27
84 83 80 80 82 84 85 88 91 88 80 81 74 62 83 54 58 59 54 56 53 51 58 44 36 37 44 45 42 39 45 41 39 40 35 35 35 33 27 24 23 22 22 22 27
80 81 84 85 87 88 89 92 92 85 85 78 70 74 85 55 64 60 62 56 54 52 51 50 50 44 44 42 42 48 51 59 39 34 33 32 47 29 26 24 22 22 22 23 75
79 82 84 86 89 92 94 92 92 85 82 75 82 85 79 51 46 39 52 52 54 52 53 40 40 46 47 56 65 60 75 59 44 34 36 35 46 33 28 26 25 27 26 40 82
78 80 84 87 90 92 87 90 85 83 79 68 66 80 51 34 39 44 52 50 55 56 56 54 50 53 54 62 72 66 63 68 58 42 37 44 42 37 31 29 29 30 31 85 83
76 80 82 87 88 90 90 94 83 81 90 67 67 67 58 45 42 40 51 54 45 49 59 55 74 81 67 54 51 51 58 60 55 41 48 47 46 41 36 35 35 36 43 87 80
78 81 82 84 83 84 95 96 92 82 93 80 76 74 59 58 66 49 43 56 52 62 51 54 72 58 49 47 50 53 59 58 49 43 45 46 46 42 40 47 72 78 81 82 75
79 81 81 85 84 93 98 93 90 80 98 79 77 80 72 66 68 62 44 51 52 54 56 68 53 44 46 49 51 53 56 56 55 46 49 53 58 48 63 69 70 78 77 76 80
80 83 84 85 84 96 95 84 89 84 88 46 72 71 70 68 77 57 46 47 54 53 50 52 42 43 48 48 47 60 45 47 51 68 82 53 75 59 86 79 78 79 85 85 79
84 83 85 77 95 95 84 91 88 65 33 32 68 51 61 70 56 59 47 52 60 59 58 60 58 58 52 46 44 51 50 55 60 71 75 63 76 75 84 87 84 79 74 70 68
88 85 84 92 95 93 92 84 82 69 29 24 59 68 72 65 55 55 51 50 49 57 61 57 54 51 53 48 50 49 58 65 65 67 95 70 70 70 92 80 85 82 78 76 71
88 87 88 91 90 90 87 92 86 58 20 30 58 67 67 64 56 50 64 66 69 78 78 68 62 56 49 59 55 59 69 93 95 91 86 57 68 53 94 76 81 82 83 79 80
88 88 89 89 94 84 94 92 88 29 33 34 30 54 63 55 55 53 60 66 60 58 69 69 65 58 51 59 61 69 70 90 93 87 77 66 72 65 82 81 74 72 77 88 95
89 99 99 95 94 89 100 98 66 58 42 49 27 30 30 30 51 53 59 59 54 51 64 69 63 47 48 50 49 66 80 69 85 80 90 80 73 80 78 83 83 81 83 85 83
98 99 96 91 94 95 100 79 76 57 48 49 39 43 48 50 52 52 50 49 53 49 51 58 68 51 50 41 43 54 57 79 90 94 87 78 74 77 92 88 85 89 87 76 84
96 98 88 97 92 98 96 86 68 51 48 61 62 53 60 67 70 66 60 49 58 54 52 55 58 64 61 57 54 58 70 74 81 82 91 90 69 71 79 83 86 82 87 81 77
98 99 88 97 100 98 87 74 64 54 53 54 60 59 62 66 67 66 67 58 58 59 56 60 68 80 69 56 55 50 57 56 84 83 90 88 68 63 82 81 76 78 85 79 86
100 98 94 98 95 95 75 73 67 67 60 61 67 57 53 54 64 66 51 44 54 67 67 72 87 92 75 67 68 64 57 56 71 77 69 88 72 91 88 85 81 85 81 85 87
99 99 100 100 89 81 77 78 78 70 67 61 74 71 76 81 74 82 75 61 66 79 75 77 78 76 70 62 70 78 68 54 67 93 68 64 64 89 90 86 81 84 84 85 84
100 99 89 99 96 92 85 75 79 79 66 69 77 71 82 90 88 93 85 76 59 59 81 85 87 81 72 65 65 64 69 68 63 60 77 66 73 69 74 82 82 85 83 81 80
99 98 98 96 82 93 97 82 83 71 70 79 77 78 76 79 70 66 70 73 71 66 70 77 93 78 69 59 60 70 77 79 76 70 70 70 75 85 87 86 86 78 77 80 79
99 97 93 79 91 91 84 76 74 72 67 64 65 78 83 72 72 74 78 74 70 69 76 88 96 96 96 72 64 86 80 74 64 65 67 79 68 90 92 86 90 87 82 82 82

GFSSW_sfc_rhum_129.txt.gz
RH
95 95 95 94 94 95 96 96 96 96 93 90 92 90 89 85 81 52 40 44 46 58 49 19 24 24 20 20 15 18 23 26 25 25 21 20 20 18 17 17 17 14 14 14 15
87 83 80 83 84 84 85 87 89 91 93 92 90 90 88 86 69 52 52 64 55 51 18 24 28 25 21 22 19 18 26 27 22 20 21 21 21 20 18 18 19 17 16 15 14
77 78 78 79 84 86 86 87 88 92 94 95 91 87 85 76 40 32 59 56 59 41 24 25 29 24 24 21 23 22 24 22 21 22 23 23 22 20 20 22 19 21 18 17 18
81 81 81 80 81 83 86 87 88 87 92 89 88 80 80 59 8 45 68 64 62 32 22 26 27 27 27 27 26 26 24 23 23 24 26 25 21 22 21 22 19 19 20 19 19
83 82 79 76 76 79 84 85 89 88 93 80 81 76 62 43 26 44 57 52 32 26 26 28 30 30 33 33 30 32 29 28 27 28 26 25 26 25 23 19 18 18 19 21 27
84 82 77 76 77 79 83 86 89 90 82 76 77 72 63 25 32 47 47 41 35 28 28 26 29 30 34 34 33 32 32 31 30 28 29 30 26 25 22 19 18 18 19 33 59
82 80 77 78 80 82 84 88 90 88 80 76 75 61 75 29 46 50 50 42 40 40 38 34 33 29 32 36 32 32 36 34 32 29 26 25 26 27 21 22 21 19 19 56 66
79 80 82 84 86 88 92 93 92 88 80 77 70 66 59 46 52 51 52 46 48 43 42 42 42 33 33 32 35 38 40 40 30 27 28 25 26 24 21 24 22 22 27 63 66
77 81 84 86 88 93 90 90 90 85 82 76 69 72 38 42 34 35 44 44 49 49 45 38 34 37 35 44 46 46 43 45 33 28 29 30 35 25 24 26 25 24 50 65 68
75 77 82 86 89 90 86 88 82 79 76 66 63 58 32 27 37 45 45 46 49 52 50 48 41 40 43 46 34 44 46 42 41 30 30 32 34 31 27 27 30 34 64 66 66
75 77 79 85 86 89 89 82 67 61 82 44 44 42 44 43 39 40 46 48 42 46 56 48 56 61 51 45 41 41 44 44 38 33 38 38 36 32 29 47 56 57 67 66 64
76 77 78 80 83 87 87 86 82 81 73 70 70 67 59 51 47 38 36 48 47 56 45 47 64 56 50 50 46 46 47 44 38 35 36 37 40 36 52 69 71 71 68 66 60
80 79 78 83 84 89 94 83 77 69 84 60 71 75 64 56 50 46 37 44 48 52 51 54 44 43 48 47 49 47 48 46 42 38 39 42 40 49 65 66 68 69 66 61 59
81 80 81 81 77 90 87 73 80 74 66 30 59 60 66 63 59 49 39 39 44 46 48 49 41 41 44 42 43 52 39 40 44 51 57 43 50 48 64 73 74 72 68 64 59
83 82 82 74 86 89 78 85 81 58 36 32 64 50 61 62 54 54 44 41 49 50 46 44 51 46 47 43 38 44 40 45 49 55 59 50 54 51 65 71 75 71 66 61 57
87 84 85 92 93 85 84 83 74 64 32 22 61 66 68 62 51 49 44 40 42 50 50 46 43 45 42 43 40 43 47 53 53 53 67 51 47 49 69 59 68 65 64 63 62
88 87 82 86 81 83 81 89 75 47 18 27 52 64 58 56 49 52 53 59 52 56 56 52 48 43 43 46 48 48 57 64 68 73 61 47 58 43 56 60 58 68 65 64 70
88 89 87 80 85 83 92 88 62 20 24 26 26 55 56 50 48 47 60 58 54 46 60 53 48 47 49 46 48 59 57 61 76 70 50 51 53 42 64 61 61 62 62 70 78
89 99 96 93 90 83 98 96 39 31 30 46 23 20 20 28 45 46 51 51 46 47 51 58 54 38 46 45 39 57 63 51 66 67 72 48 46 57 74 76 74 70 71 77 81
97 95 96 92 92 91 99 75 66 50 45 42 20 34 29 49 40 40 42 41 45 46 46 51 57 42 40 37 37 50 47 65 75 83 73 50 50 48 74 71 73 76 74 72 80
96 99 87 94 90 94 96 82 62 50 46 53 52 45 56 55 60 55 50 43 47 45 44 48 56 52 51 46 45 56 58 58 63 70 84 62 43 50 52 60 67 70 67 68 73
98 100 88 96 98 97 88 73 62 52 48 48 53 55 56 60 55 54 60 53 52 51 46 48 60 62 53 49 48 43 52 54 74 68 76 67 53 70 62 58 64 65 72 68 68
100 100 93 98 96 96 69 68 62 61 53 53 60 56 53 56 53 58 49 46 46 55 60 70 77 61 58 59 62 79 62 52 61 59 64 87 55 76 70 68 68 75 73 72 71
99 99 100 100 88 74 73 67 71 64 58 58 66 66 66 68 58 60 68 58 64 59 74 75 75 74 68 52 52 66 60 50 59 75 60 61 53 57 76 76 76 72 72 71 68
99 99 85 98 93 85 75 69 62 62 64 62 66 57 72 77 76 77 74 70 56 55 67 78 75 70 64 59 57 54 54 56 56 54 67 56 60 46 61 68 67 71 73 72 69
99 99 97 88 77 90 88 81 72 68 63 70 68 67 66 67 61 53 57 55 62 56 68 73 86 69 69 58 59 65 59 56 57 55 52 49 58 58 73 70 76 75 72 74 72
99 94 89 94 86 92 80 72 68 69 64 59 64 72 76 68 66 64 64 61 61 67 74 77 85 85 82 70 77 82 64 61 57 55 58 78 58 68 76 74 73 73 69 72 76

GFSSW_sfc_rhum_132.txt.gz
RH
94 95 92 90 87 86 86 86 87 88 89 90 91 90 89 86 76 20 24 39 36 60 55 16 17 16 13 14 11 11 18 17 20 19 18 15 15 13 13 13 13 12 13 13 12
87 82 79 80 82 83 84 84 85 87 91 93 94 91 88 86 36 23 49 61 60 55 16 16 16 16 13 15 13 14 17 17 17 16 17 16 15 15 14 14 15 14 13 13 12
78 78 78 79 82 83 84 85 86 85 88 94 90 89 86 65 26 21 61 64 65 44 18 18 19 17 16 15 16 16 14 17 17 18 16 16 14 14 16 17 17 18 15 14 15
79 80 79 77 77 78 82 84 85 84 87 90 82 84 81 37 10 27 64 66 62 27 20 20 17 19 18 17 17 18 17 17 16 18 18 18 16 17 17 19 14 14 14 17 26
81 80 77 75 75 77 82 84 83 86 90 81 77 80 42 19 11 32 56 51 23 22 20 18 22 22 20 20 20 20 19 20 19 20 18 18 19 19 19 16 13 13 18 32 32
81 77 73 72 75 78 81 86 86 88 86 81 75 80 37 18 23 30 32 30 25 22 22 21 22 22 21 20 21 24 22 21 20 18 18 22 18 19 18 16 16 14 28 37 40
78 75 74 75 78 81 84 88 89 90 85 75 74 48 41 18 23 26 30 25 26 28 23 25 24 20 23 24 25 24 26 19 18 20 20 19 19 21 16 16 16 16 29 40 45
77 74 76 79 83 88 89 92 92 89 83 75 70 49 27 24 24 26 24 24 25 22 27 28 28 24 26 26 26 25 26 18 21 20 21 19 15 16 16 17 16 16 32 40 45
76 75 77 81 85 88 86 89 86 81 81 74 53 47 20 30 23 30 28 32 34 32 26 28 27 27 28 27 24 29 15 26 22 19 19 18 17 16 15 16 19 19 36 42 46
75 72 75 80 85 88 86 84 81 74 64 54 48 52 21 15 28 28 31 33 33 30 33 33 28 27 26 24 15 17 23 24 23 17 19 18 17 15 18 18 23 28 38 42 44
75 72 75 78 84 87 67 42 38 46 60 28 21 28 20 26 26 29 33 35 30 29 26 34 28 25 17 22 28 28 27 25 20 19 24 22 21 18 18 19 25 32 40 45 45
77 73 74 76 81 84 58 36 49 60 27 23 30 31 32 34 24 28 30 35 34 23 33 37 31 22 30 37 37 33 32 26 19 22 26 23 23 19 30 32 41 40 43 45 44
78 75 73 79 81 72 60 50 56 59 43 21 35 37 34 34 18 12 28 29 29 25 30 26 21 30 39 36 36 29 31 25 26 23 23 27 25 27 40 43 48 48 46 45 45
81 78 79 79 72 60 60 57 55 63 39 19 34 40 49 38 33 27 22 17 26 25 24 28 20 32 31 27 24 29 23 28 28 32 30 31 24 24 32 38 47 50 49 48 46
82 81 82 76 60 60 65 60 58 58 34 20 42 38 45 40 42 45 29 22 18 24 29 22 34 35 34 28 28 28 31 33 36 37 36 30 36 21 30 34 39 46 49 48 44
84 83 89 77 70 63 58 64 67 55 26 22 44 51 49 41 41 34 30 31 29 28 30 22 31 31 24 28 29 33 37 35 37 35 37 25 29 15 30 29 28 40 45 46 44
86 85 74 61 56 64 66 78 62 35 10 19 35 45 40 34 41 40 34 38 30 37 35 28 28 25 29 33 34 34 40 37 35 42 32 33 34 24 27 30 31 39 41 45 47
88 88 78 60 58 62 73 77 64 9 8 18 23 39 34 34 33 38 39 34 34 31 29 26 29 32 32 31 28 36 34 41 44 32 27 34 35 24 30 32 37 37 40 46 53
89 85 80 83 76 65 86 84 16 8 13 17 17 13 17 31 32 34 36 31 28 32 34 35 32 28 32 34 29 40 46 29 45 37 44 28 22 44 51 49 52 50 49 51 59
70 74 73 78 77 74 89 51 24 26 30 25 14 15 13 12 23 27 25 27 37 33 33 34 30 16 24 32 32 36 29 48 50 58 44 24 24 31 50 50 54 54 52 50 61
69 86 73 77 72 80 94 48 32 36 36 28 22 22 22 26 25 22 17 31 34 33 28 32 39 28 38 34 25 37 43 45 44 45 55 44 28 30 27 30 40 42 46 46 56
94 100 78 75 94 84 78 44 53 36 36 36 38 34 25 26 31 29 29 35 37 30 28 25 30 36 25 24 34 35 39 39 68 53 67 59 40 30 33 32 34 36 44 43 57
100 100 85 94 97 88 45 43 42 45 33 36 34 34 26 30 34 27 25 26 37 32 36 36 35 39 23 27 40 49 43 45 69 91 78 73 49 39 43 42 42 45 45 51 54
100 100 100 100 59 57 51 45 48 44 40 45 45 47 38 38 32 32 40 48 48 44 68 60 50 48 35 26 33 52 43 41 57 76 55 45 36 28 40 45 48 48 50 51 54
99 94 75 98 97 66 50 42 44 46 41 37 40 43 40 44 39 42 36 35 36 44 41 48 57 45 37 34 37 40 40 36 40 44 62 49 42 30 28 32 41 46 52 54 55
100 97 84 55 61 74 62 56 43 36 38 40 45 38 39 44 37 36 36 37 39 34 46 52 62 54 50 37 37 41 35 34 34 38 39 37 40 27 34 42 53 53 55 56 57
98 71 59 64 72 87 73 55 44 43 41 36 37 45 52 40 41 44 45 44 44 48 55 52 63 63 76 43 55 60 42 34 32 29 37 66 43 31 43 49 48 54 54 58 63